<?xml version="1.0" encoding="UTF-8" standalone="no" ?>
<gpx xmlns="http://www.topografix.com/GPX/1/1" xmlns:xsi="http://www.w3.org/2001/XMLSchema-instance" xsi:schemaLocation="http://www.topografix.com/GPX/1/1 http://www.topografix.com/GPX/1/1/gpx.xsd" version="1.1" creator="VisuGPX - https://www.visugpx.com">
  <metadata>
    <name>petit som depuis la ruchère</name>
    <desc><![CDATA[la ruchere - col de sarriette - petit som - pas dinay
montée au grand som impossible car trop de neige]]></desc>
  </metadata>
  <trk>
    <name><![CDATA[2017-04-22 15:15:35]]></name>
    <trkseg>
      <trkpt lat="45.40869" lon="5.79689">
        <ele>1161.41</ele>
        <time>2017-04-22T08:32:51Z</time>
      </trkpt>
      <trkpt lat="45.4087" lon="5.7969">
        <ele>1157.56</ele>
        <time>2017-04-22T08:33:15Z</time>
      </trkpt>
      <trkpt lat="45.40868" lon="5.79693">
        <ele>1150.84</ele>
        <time>2017-04-22T08:33:38Z</time>
      </trkpt>
      <trkpt lat="45.40868" lon="5.79696">
        <ele>1147.95</ele>
        <time>2017-04-22T08:33:59Z</time>
      </trkpt>
      <trkpt lat="45.40866" lon="5.79695">
        <ele>1147.95</ele>
        <time>2017-04-22T08:34:20Z</time>
      </trkpt>
      <trkpt lat="45.40864" lon="5.79695">
        <ele>1148.91</ele>
        <time>2017-04-22T08:34:47Z</time>
      </trkpt>
      <trkpt lat="45.40867" lon="5.79696">
        <ele>1148.43</ele>
        <time>2017-04-22T08:35:10Z</time>
      </trkpt>
      <trkpt lat="45.40865" lon="5.79695">
        <ele>1150.35</ele>
        <time>2017-04-22T08:35:55Z</time>
      </trkpt>
      <trkpt lat="45.40866" lon="5.79693">
        <ele>1150.84</ele>
        <time>2017-04-22T08:36:27Z</time>
      </trkpt>
      <trkpt lat="45.40868" lon="5.79694">
        <ele>1147.95</ele>
        <time>2017-04-22T08:36:54Z</time>
      </trkpt>
      <trkpt lat="45.40868" lon="5.79694">
        <ele>1148.43</ele>
        <time>2017-04-22T08:37:23Z</time>
      </trkpt>
      <trkpt lat="45.40869" lon="5.79696">
        <ele>1151.32</ele>
        <time>2017-04-22T08:37:33Z</time>
      </trkpt>
      <trkpt lat="45.40868" lon="5.79696">
        <ele>1152.28</ele>
        <time>2017-04-22T08:37:50Z</time>
      </trkpt>
      <trkpt lat="45.40867" lon="5.79694">
        <ele>1153.24</ele>
        <time>2017-04-22T08:38:14Z</time>
      </trkpt>
      <trkpt lat="45.40868" lon="5.79697">
        <ele>1154.2</ele>
        <time>2017-04-22T08:38:35Z</time>
      </trkpt>
      <trkpt lat="45.40866" lon="5.797">
        <ele>1154.2</ele>
        <time>2017-04-22T08:38:51Z</time>
      </trkpt>
      <trkpt lat="45.40867" lon="5.79699">
        <ele>1154.2</ele>
        <time>2017-04-22T08:38:54Z</time>
      </trkpt>
      <trkpt lat="45.40868" lon="5.79674">
        <ele>1156.6</ele>
        <time>2017-04-22T08:39:09Z</time>
      </trkpt>
      <trkpt lat="45.40863" lon="5.79652">
        <ele>1159.01</ele>
        <time>2017-04-22T08:39:22Z</time>
      </trkpt>
      <trkpt lat="45.40866" lon="5.79636">
        <ele>1157.56</ele>
        <time>2017-04-22T08:39:33Z</time>
      </trkpt>
      <trkpt lat="45.40866" lon="5.79624">
        <ele>1157.08</ele>
        <time>2017-04-22T08:39:46Z</time>
      </trkpt>
      <trkpt lat="45.40866" lon="5.79609">
        <ele>1158.05</ele>
        <time>2017-04-22T08:39:58Z</time>
      </trkpt>
      <trkpt lat="45.40869" lon="5.79603">
        <ele>1155.64</ele>
        <time>2017-04-22T08:40:10Z</time>
      </trkpt>
      <trkpt lat="45.40869" lon="5.79603">
        <ele>1155.64</ele>
        <time>2017-04-22T08:40:11Z</time>
      </trkpt>
      <trkpt lat="45.4088" lon="5.79587">
        <ele>1154.68</ele>
        <time>2017-04-22T08:40:23Z</time>
      </trkpt>
      <trkpt lat="45.40889" lon="5.79582">
        <ele>1150.84</ele>
        <time>2017-04-22T08:40:33Z</time>
      </trkpt>
      <trkpt lat="45.40904" lon="5.79573">
        <ele>1147.47</ele>
        <time>2017-04-22T08:40:43Z</time>
      </trkpt>
      <trkpt lat="45.40913" lon="5.79564">
        <ele>1148.43</ele>
        <time>2017-04-22T08:40:53Z</time>
      </trkpt>
      <trkpt lat="45.40922" lon="5.79555">
        <ele>1147.47</ele>
        <time>2017-04-22T08:41:04Z</time>
      </trkpt>
      <trkpt lat="45.4093" lon="5.79545">
        <ele>1147.95</ele>
        <time>2017-04-22T08:41:07Z</time>
      </trkpt>
      <trkpt lat="45.40949" lon="5.79524">
        <ele>1146.51</ele>
        <time>2017-04-22T08:41:18Z</time>
      </trkpt>
      <trkpt lat="45.4095" lon="5.79519">
        <ele>1142.18</ele>
        <time>2017-04-22T08:41:26Z</time>
      </trkpt>
      <trkpt lat="45.40958" lon="5.79493">
        <ele>1141.22</ele>
        <time>2017-04-22T08:41:36Z</time>
      </trkpt>
      <trkpt lat="45.40964" lon="5.7948">
        <ele>1143.63</ele>
        <time>2017-04-22T08:41:39Z</time>
      </trkpt>
      <trkpt lat="45.40981" lon="5.79427">
        <ele>1155.16</ele>
        <time>2017-04-22T08:41:51Z</time>
      </trkpt>
      <trkpt lat="45.40979" lon="5.79426">
        <ele>1155.64</ele>
        <time>2017-04-22T08:41:52Z</time>
      </trkpt>
      <trkpt lat="45.4097" lon="5.79412">
        <ele>1157.08</ele>
        <time>2017-04-22T08:42:03Z</time>
      </trkpt>
      <trkpt lat="45.4096" lon="5.79399">
        <ele>1161.89</ele>
        <time>2017-04-22T08:42:12Z</time>
      </trkpt>
      <trkpt lat="45.40941" lon="5.79391">
        <ele>1163.33</ele>
        <time>2017-04-22T08:42:24Z</time>
      </trkpt>
      <trkpt lat="45.40923" lon="5.79384">
        <ele>1163.81</ele>
        <time>2017-04-22T08:42:34Z</time>
      </trkpt>
      <trkpt lat="45.4091" lon="5.79377">
        <ele>1164.29</ele>
        <time>2017-04-22T08:42:44Z</time>
      </trkpt>
      <trkpt lat="45.40902" lon="5.79372">
        <ele>1164.77</ele>
        <time>2017-04-22T08:42:50Z</time>
      </trkpt>
      <trkpt lat="45.40899" lon="5.79369">
        <ele>1164.77</ele>
        <time>2017-04-22T08:42:54Z</time>
      </trkpt>
      <trkpt lat="45.40886" lon="5.79359">
        <ele>1165.74</ele>
        <time>2017-04-22T08:43:05Z</time>
      </trkpt>
      <trkpt lat="45.40883" lon="5.79357">
        <ele>1166.22</ele>
        <time>2017-04-22T08:43:07Z</time>
      </trkpt>
      <trkpt lat="45.40873" lon="5.79341">
        <ele>1171.98</ele>
        <time>2017-04-22T08:43:19Z</time>
      </trkpt>
      <trkpt lat="45.40862" lon="5.79321">
        <ele>1179.67</ele>
        <time>2017-04-22T08:43:31Z</time>
      </trkpt>
      <trkpt lat="45.40862" lon="5.7932">
        <ele>1180.64</ele>
        <time>2017-04-22T08:43:32Z</time>
      </trkpt>
      <trkpt lat="45.40863" lon="5.79318">
        <ele>1181.12</ele>
        <time>2017-04-22T08:43:33Z</time>
      </trkpt>
      <trkpt lat="45.40865" lon="5.79312">
        <ele>1182.56</ele>
        <time>2017-04-22T08:43:38Z</time>
      </trkpt>
      <trkpt lat="45.40866" lon="5.79295">
        <ele>1184.96</ele>
        <time>2017-04-22T08:43:50Z</time>
      </trkpt>
      <trkpt lat="45.40866" lon="5.79287">
        <ele>1186.4</ele>
        <time>2017-04-22T08:43:57Z</time>
      </trkpt>
      <trkpt lat="45.40865" lon="5.79269">
        <ele>1189.29</ele>
        <time>2017-04-22T08:44:09Z</time>
      </trkpt>
      <trkpt lat="45.40865" lon="5.79253">
        <ele>1187.37</ele>
        <time>2017-04-22T08:44:19Z</time>
      </trkpt>
      <trkpt lat="45.40867" lon="5.79239">
        <ele>1191.69</ele>
        <time>2017-04-22T08:44:29Z</time>
      </trkpt>
      <trkpt lat="45.40866" lon="5.79219">
        <ele>1198.42</ele>
        <time>2017-04-22T08:44:44Z</time>
      </trkpt>
      <trkpt lat="45.40869" lon="5.79204">
        <ele>1204.19</ele>
        <time>2017-04-22T08:44:55Z</time>
      </trkpt>
      <trkpt lat="45.40869" lon="5.79201">
        <ele>1204.19</ele>
        <time>2017-04-22T08:44:57Z</time>
      </trkpt>
      <trkpt lat="45.40867" lon="5.79175">
        <ele>1204.67</ele>
        <time>2017-04-22T08:45:10Z</time>
      </trkpt>
      <trkpt lat="45.40861" lon="5.79153">
        <ele>1202.75</ele>
        <time>2017-04-22T08:45:24Z</time>
      </trkpt>
      <trkpt lat="45.40859" lon="5.79146">
        <ele>1203.23</ele>
        <time>2017-04-22T08:45:29Z</time>
      </trkpt>
      <trkpt lat="45.40848" lon="5.79129">
        <ele>1202.75</ele>
        <time>2017-04-22T08:45:40Z</time>
      </trkpt>
      <trkpt lat="45.40845" lon="5.79126">
        <ele>1202.75</ele>
        <time>2017-04-22T08:45:42Z</time>
      </trkpt>
      <trkpt lat="45.40843" lon="5.79124">
        <ele>1202.75</ele>
        <time>2017-04-22T08:45:43Z</time>
      </trkpt>
      <trkpt lat="45.40841" lon="5.79123">
        <ele>1202.75</ele>
        <time>2017-04-22T08:45:44Z</time>
      </trkpt>
      <trkpt lat="45.4084" lon="5.79121">
        <ele>1202.75</ele>
        <time>2017-04-22T08:45:45Z</time>
      </trkpt>
      <trkpt lat="45.40838" lon="5.7912">
        <ele>1202.75</ele>
        <time>2017-04-22T08:45:46Z</time>
      </trkpt>
      <trkpt lat="45.40836" lon="5.79118">
        <ele>1202.27</ele>
        <time>2017-04-22T08:45:47Z</time>
      </trkpt>
      <trkpt lat="45.40829" lon="5.79107">
        <ele>1201.79</ele>
        <time>2017-04-22T08:45:53Z</time>
      </trkpt>
      <trkpt lat="45.40827" lon="5.79105">
        <ele>1201.79</ele>
        <time>2017-04-22T08:45:54Z</time>
      </trkpt>
      <trkpt lat="45.40826" lon="5.79103">
        <ele>1201.3</ele>
        <time>2017-04-22T08:45:55Z</time>
      </trkpt>
      <trkpt lat="45.40826" lon="5.79102">
        <ele>1201.3</ele>
        <time>2017-04-22T08:45:56Z</time>
      </trkpt>
      <trkpt lat="45.40825" lon="5.79099">
        <ele>1201.3</ele>
        <time>2017-04-22T08:45:57Z</time>
      </trkpt>
      <trkpt lat="45.40824" lon="5.79098">
        <ele>1201.3</ele>
        <time>2017-04-22T08:45:58Z</time>
      </trkpt>
      <trkpt lat="45.40823" lon="5.79097">
        <ele>1201.3</ele>
        <time>2017-04-22T08:45:59Z</time>
      </trkpt>
      <trkpt lat="45.40822" lon="5.79095">
        <ele>1201.3</ele>
        <time>2017-04-22T08:46:00Z</time>
      </trkpt>
      <trkpt lat="45.40816" lon="5.79091">
        <ele>1200.82</ele>
        <time>2017-04-22T08:46:04Z</time>
      </trkpt>
      <trkpt lat="45.40812" lon="5.79076">
        <ele>1203.23</ele>
        <time>2017-04-22T08:46:12Z</time>
      </trkpt>
      <trkpt lat="45.40811" lon="5.79074">
        <ele>1203.23</ele>
        <time>2017-04-22T08:46:13Z</time>
      </trkpt>
      <trkpt lat="45.4081" lon="5.79073">
        <ele>1203.71</ele>
        <time>2017-04-22T08:46:14Z</time>
      </trkpt>
      <trkpt lat="45.40808" lon="5.7907">
        <ele>1203.23</ele>
        <time>2017-04-22T08:46:16Z</time>
      </trkpt>
      <trkpt lat="45.40807" lon="5.79069">
        <ele>1203.23</ele>
        <time>2017-04-22T08:46:17Z</time>
      </trkpt>
      <trkpt lat="45.40804" lon="5.79061">
        <ele>1202.75</ele>
        <time>2017-04-22T08:46:22Z</time>
      </trkpt>
      <trkpt lat="45.40803" lon="5.79059">
        <ele>1202.75</ele>
        <time>2017-04-22T08:46:23Z</time>
      </trkpt>
      <trkpt lat="45.40803" lon="5.79054">
        <ele>1202.75</ele>
        <time>2017-04-22T08:46:25Z</time>
      </trkpt>
      <trkpt lat="45.40803" lon="5.79052">
        <ele>1202.75</ele>
        <time>2017-04-22T08:46:26Z</time>
      </trkpt>
      <trkpt lat="45.40803" lon="5.79049">
        <ele>1203.71</ele>
        <time>2017-04-22T08:46:27Z</time>
      </trkpt>
      <trkpt lat="45.40802" lon="5.79047">
        <ele>1203.71</ele>
        <time>2017-04-22T08:46:28Z</time>
      </trkpt>
      <trkpt lat="45.40799" lon="5.79019">
        <ele>1206.11</ele>
        <time>2017-04-22T08:46:37Z</time>
      </trkpt>
      <trkpt lat="45.408" lon="5.79001">
        <ele>1204.67</ele>
        <time>2017-04-22T08:46:44Z</time>
      </trkpt>
      <trkpt lat="45.40796" lon="5.78993">
        <ele>1204.67</ele>
        <time>2017-04-22T08:46:48Z</time>
      </trkpt>
      <trkpt lat="45.40786" lon="5.78982">
        <ele>1203.71</ele>
        <time>2017-04-22T08:46:54Z</time>
      </trkpt>
      <trkpt lat="45.40776" lon="5.78974">
        <ele>1203.23</ele>
        <time>2017-04-22T08:47:02Z</time>
      </trkpt>
      <trkpt lat="45.40764" lon="5.78964">
        <ele>1202.75</ele>
        <time>2017-04-22T08:47:07Z</time>
      </trkpt>
      <trkpt lat="45.40762" lon="5.78964">
        <ele>1202.27</ele>
        <time>2017-04-22T08:47:08Z</time>
      </trkpt>
      <trkpt lat="45.40759" lon="5.78962">
        <ele>1202.27</ele>
        <time>2017-04-22T08:47:09Z</time>
      </trkpt>
      <trkpt lat="45.40756" lon="5.78961">
        <ele>1202.27</ele>
        <time>2017-04-22T08:47:10Z</time>
      </trkpt>
      <trkpt lat="45.40752" lon="5.7896">
        <ele>1201.79</ele>
        <time>2017-04-22T08:47:11Z</time>
      </trkpt>
      <trkpt lat="45.4075" lon="5.78959">
        <ele>1201.79</ele>
        <time>2017-04-22T08:47:12Z</time>
      </trkpt>
      <trkpt lat="45.40747" lon="5.78958">
        <ele>1201.79</ele>
        <time>2017-04-22T08:47:13Z</time>
      </trkpt>
      <trkpt lat="45.4074" lon="5.78957">
        <ele>1200.34</ele>
        <time>2017-04-22T08:47:14Z</time>
      </trkpt>
      <trkpt lat="45.40719" lon="5.78955">
        <ele>1198.9</ele>
        <time>2017-04-22T08:47:24Z</time>
      </trkpt>
      <trkpt lat="45.40705" lon="5.78953">
        <ele>1197.46</ele>
        <time>2017-04-22T08:47:31Z</time>
      </trkpt>
      <trkpt lat="45.40687" lon="5.78943">
        <ele>1196.5</ele>
        <time>2017-04-22T08:47:41Z</time>
      </trkpt>
      <trkpt lat="45.40678" lon="5.78935">
        <ele>1196.5</ele>
        <time>2017-04-22T08:47:49Z</time>
      </trkpt>
      <trkpt lat="45.40677" lon="5.7893">
        <ele>1196.5</ele>
        <time>2017-04-22T08:47:51Z</time>
      </trkpt>
      <trkpt lat="45.40676" lon="5.78925">
        <ele>1196.02</ele>
        <time>2017-04-22T08:47:53Z</time>
      </trkpt>
      <trkpt lat="45.40673" lon="5.78923">
        <ele>1196.02</ele>
        <time>2017-04-22T08:47:54Z</time>
      </trkpt>
      <trkpt lat="45.40672" lon="5.78923">
        <ele>1196.02</ele>
        <time>2017-04-22T08:47:55Z</time>
      </trkpt>
      <trkpt lat="45.4067" lon="5.78922">
        <ele>1196.02</ele>
        <time>2017-04-22T08:47:56Z</time>
      </trkpt>
      <trkpt lat="45.4067" lon="5.7892">
        <ele>1196.02</ele>
        <time>2017-04-22T08:47:57Z</time>
      </trkpt>
      <trkpt lat="45.40669" lon="5.78918">
        <ele>1196.02</ele>
        <time>2017-04-22T08:47:58Z</time>
      </trkpt>
      <trkpt lat="45.40668" lon="5.78916">
        <ele>1196.02</ele>
        <time>2017-04-22T08:47:59Z</time>
      </trkpt>
      <trkpt lat="45.40665" lon="5.78914">
        <ele>1196.02</ele>
        <time>2017-04-22T08:48:00Z</time>
      </trkpt>
      <trkpt lat="45.40664" lon="5.78913">
        <ele>1196.02</ele>
        <time>2017-04-22T08:48:01Z</time>
      </trkpt>
      <trkpt lat="45.40661" lon="5.78911">
        <ele>1195.54</ele>
        <time>2017-04-22T08:48:02Z</time>
      </trkpt>
      <trkpt lat="45.40661" lon="5.78908">
        <ele>1195.54</ele>
        <time>2017-04-22T08:48:03Z</time>
      </trkpt>
      <trkpt lat="45.40661" lon="5.78905">
        <ele>1195.54</ele>
        <time>2017-04-22T08:48:04Z</time>
      </trkpt>
      <trkpt lat="45.4066" lon="5.78903">
        <ele>1195.54</ele>
        <time>2017-04-22T08:48:05Z</time>
      </trkpt>
      <trkpt lat="45.4066" lon="5.789">
        <ele>1196.02</ele>
        <time>2017-04-22T08:48:06Z</time>
      </trkpt>
      <trkpt lat="45.40659" lon="5.78897">
        <ele>1196.02</ele>
        <time>2017-04-22T08:48:07Z</time>
      </trkpt>
      <trkpt lat="45.40659" lon="5.78893">
        <ele>1196.02</ele>
        <time>2017-04-22T08:48:08Z</time>
      </trkpt>
      <trkpt lat="45.40644" lon="5.78872">
        <ele>1193.61</ele>
        <time>2017-04-22T08:48:16Z</time>
      </trkpt>
      <trkpt lat="45.40643" lon="5.78869">
        <ele>1193.61</ele>
        <time>2017-04-22T08:48:17Z</time>
      </trkpt>
      <trkpt lat="45.40637" lon="5.78856">
        <ele>1192.65</ele>
        <time>2017-04-22T08:48:23Z</time>
      </trkpt>
      <trkpt lat="45.40636" lon="5.78854">
        <ele>1192.65</ele>
        <time>2017-04-22T08:48:24Z</time>
      </trkpt>
      <trkpt lat="45.40636" lon="5.78852">
        <ele>1192.65</ele>
        <time>2017-04-22T08:48:25Z</time>
      </trkpt>
      <trkpt lat="45.40636" lon="5.78849">
        <ele>1192.65</ele>
        <time>2017-04-22T08:48:26Z</time>
      </trkpt>
      <trkpt lat="45.40635" lon="5.78846">
        <ele>1192.65</ele>
        <time>2017-04-22T08:48:28Z</time>
      </trkpt>
      <trkpt lat="45.40634" lon="5.78844">
        <ele>1192.65</ele>
        <time>2017-04-22T08:48:29Z</time>
      </trkpt>
      <trkpt lat="45.40627" lon="5.78835">
        <ele>1192.65</ele>
        <time>2017-04-22T08:48:33Z</time>
      </trkpt>
      <trkpt lat="45.40625" lon="5.78833">
        <ele>1192.65</ele>
        <time>2017-04-22T08:48:34Z</time>
      </trkpt>
      <trkpt lat="45.40624" lon="5.7883">
        <ele>1193.13</ele>
        <time>2017-04-22T08:48:35Z</time>
      </trkpt>
      <trkpt lat="45.40623" lon="5.78826">
        <ele>1193.13</ele>
        <time>2017-04-22T08:48:37Z</time>
      </trkpt>
      <trkpt lat="45.40623" lon="5.78823">
        <ele>1193.13</ele>
        <time>2017-04-22T08:48:39Z</time>
      </trkpt>
      <trkpt lat="45.40619" lon="5.78815">
        <ele>1194.09</ele>
        <time>2017-04-22T08:48:42Z</time>
      </trkpt>
      <trkpt lat="45.40616" lon="5.78811">
        <ele>1194.09</ele>
        <time>2017-04-22T08:48:43Z</time>
      </trkpt>
      <trkpt lat="45.40616" lon="5.78809">
        <ele>1195.06</ele>
        <time>2017-04-22T08:48:44Z</time>
      </trkpt>
      <trkpt lat="45.40615" lon="5.78807">
        <ele>1196.02</ele>
        <time>2017-04-22T08:48:45Z</time>
      </trkpt>
      <trkpt lat="45.40615" lon="5.78805">
        <ele>1196.98</ele>
        <time>2017-04-22T08:48:46Z</time>
      </trkpt>
      <trkpt lat="45.40613" lon="5.78802">
        <ele>1197.94</ele>
        <time>2017-04-22T08:48:47Z</time>
      </trkpt>
      <trkpt lat="45.40613" lon="5.788">
        <ele>1198.9</ele>
        <time>2017-04-22T08:48:48Z</time>
      </trkpt>
      <trkpt lat="45.40612" lon="5.78797">
        <ele>1199.86</ele>
        <time>2017-04-22T08:48:49Z</time>
      </trkpt>
      <trkpt lat="45.40612" lon="5.78795">
        <ele>1200.34</ele>
        <time>2017-04-22T08:48:50Z</time>
      </trkpt>
      <trkpt lat="45.40611" lon="5.78792">
        <ele>1200.34</ele>
        <time>2017-04-22T08:48:51Z</time>
      </trkpt>
      <trkpt lat="45.40611" lon="5.7879">
        <ele>1200.34</ele>
        <time>2017-04-22T08:48:52Z</time>
      </trkpt>
      <trkpt lat="45.40611" lon="5.78786">
        <ele>1200.34</ele>
        <time>2017-04-22T08:48:53Z</time>
      </trkpt>
      <trkpt lat="45.4061" lon="5.78785">
        <ele>1200.34</ele>
        <time>2017-04-22T08:48:54Z</time>
      </trkpt>
      <trkpt lat="45.4061" lon="5.78779">
        <ele>1200.34</ele>
        <time>2017-04-22T08:48:56Z</time>
      </trkpt>
      <trkpt lat="45.40609" lon="5.78776">
        <ele>1200.34</ele>
        <time>2017-04-22T08:48:57Z</time>
      </trkpt>
      <trkpt lat="45.40609" lon="5.78774">
        <ele>1199.86</ele>
        <time>2017-04-22T08:48:58Z</time>
      </trkpt>
      <trkpt lat="45.40607" lon="5.78765">
        <ele>1199.86</ele>
        <time>2017-04-22T08:49:02Z</time>
      </trkpt>
      <trkpt lat="45.40605" lon="5.78759">
        <ele>1199.86</ele>
        <time>2017-04-22T08:49:04Z</time>
      </trkpt>
      <trkpt lat="45.40605" lon="5.78757">
        <ele>1199.86</ele>
        <time>2017-04-22T08:49:05Z</time>
      </trkpt>
      <trkpt lat="45.40604" lon="5.78754">
        <ele>1200.34</ele>
        <time>2017-04-22T08:49:06Z</time>
      </trkpt>
      <trkpt lat="45.40604" lon="5.78751">
        <ele>1200.34</ele>
        <time>2017-04-22T08:49:07Z</time>
      </trkpt>
      <trkpt lat="45.40602" lon="5.78748">
        <ele>1200.34</ele>
        <time>2017-04-22T08:49:08Z</time>
      </trkpt>
      <trkpt lat="45.40602" lon="5.78746">
        <ele>1200.34</ele>
        <time>2017-04-22T08:49:09Z</time>
      </trkpt>
      <trkpt lat="45.40599" lon="5.78738">
        <ele>1199.86</ele>
        <time>2017-04-22T08:49:13Z</time>
      </trkpt>
      <trkpt lat="45.40598" lon="5.78736">
        <ele>1199.86</ele>
        <time>2017-04-22T08:49:14Z</time>
      </trkpt>
      <trkpt lat="45.40596" lon="5.78732">
        <ele>1199.38</ele>
        <time>2017-04-22T08:49:16Z</time>
      </trkpt>
      <trkpt lat="45.40594" lon="5.7873">
        <ele>1199.38</ele>
        <time>2017-04-22T08:49:17Z</time>
      </trkpt>
      <trkpt lat="45.40583" lon="5.78717">
        <ele>1198.9</ele>
        <time>2017-04-22T08:49:23Z</time>
      </trkpt>
      <trkpt lat="45.40581" lon="5.78714">
        <ele>1198.9</ele>
        <time>2017-04-22T08:49:25Z</time>
      </trkpt>
      <trkpt lat="45.4058" lon="5.78711">
        <ele>1198.9</ele>
        <time>2017-04-22T08:49:26Z</time>
      </trkpt>
      <trkpt lat="45.40579" lon="5.78707">
        <ele>1198.42</ele>
        <time>2017-04-22T08:49:27Z</time>
      </trkpt>
      <trkpt lat="45.40578" lon="5.78705">
        <ele>1198.9</ele>
        <time>2017-04-22T08:49:28Z</time>
      </trkpt>
      <trkpt lat="45.40576" lon="5.78702">
        <ele>1198.42</ele>
        <time>2017-04-22T08:49:29Z</time>
      </trkpt>
      <trkpt lat="45.40572" lon="5.78688">
        <ele>1198.42</ele>
        <time>2017-04-22T08:49:35Z</time>
      </trkpt>
      <trkpt lat="45.40571" lon="5.78685">
        <ele>1198.42</ele>
        <time>2017-04-22T08:49:36Z</time>
      </trkpt>
      <trkpt lat="45.40571" lon="5.78683">
        <ele>1198.42</ele>
        <time>2017-04-22T08:49:37Z</time>
      </trkpt>
      <trkpt lat="45.4057" lon="5.7868">
        <ele>1198.42</ele>
        <time>2017-04-22T08:49:38Z</time>
      </trkpt>
      <trkpt lat="45.40569" lon="5.78679">
        <ele>1198.42</ele>
        <time>2017-04-22T08:49:39Z</time>
      </trkpt>
      <trkpt lat="45.40568" lon="5.78676">
        <ele>1197.94</ele>
        <time>2017-04-22T08:49:40Z</time>
      </trkpt>
      <trkpt lat="45.40566" lon="5.78674">
        <ele>1197.94</ele>
        <time>2017-04-22T08:49:41Z</time>
      </trkpt>
      <trkpt lat="45.40565" lon="5.78673">
        <ele>1197.94</ele>
        <time>2017-04-22T08:49:42Z</time>
      </trkpt>
      <trkpt lat="45.40564" lon="5.7867">
        <ele>1197.94</ele>
        <time>2017-04-22T08:49:43Z</time>
      </trkpt>
      <trkpt lat="45.40562" lon="5.78668">
        <ele>1197.46</ele>
        <time>2017-04-22T08:49:44Z</time>
      </trkpt>
      <trkpt lat="45.40562" lon="5.78665">
        <ele>1197.46</ele>
        <time>2017-04-22T08:49:45Z</time>
      </trkpt>
      <trkpt lat="45.40561" lon="5.78663">
        <ele>1197.46</ele>
        <time>2017-04-22T08:49:46Z</time>
      </trkpt>
      <trkpt lat="45.40561" lon="5.78661">
        <ele>1197.46</ele>
        <time>2017-04-22T08:49:47Z</time>
      </trkpt>
      <trkpt lat="45.40559" lon="5.7866">
        <ele>1196.98</ele>
        <time>2017-04-22T08:49:48Z</time>
      </trkpt>
      <trkpt lat="45.40558" lon="5.78659">
        <ele>1196.98</ele>
        <time>2017-04-22T08:49:49Z</time>
      </trkpt>
      <trkpt lat="45.40556" lon="5.78657">
        <ele>1196.5</ele>
        <time>2017-04-22T08:49:50Z</time>
      </trkpt>
      <trkpt lat="45.40554" lon="5.78654">
        <ele>1196.5</ele>
        <time>2017-04-22T08:49:52Z</time>
      </trkpt>
      <trkpt lat="45.4055" lon="5.78651">
        <ele>1195.54</ele>
        <time>2017-04-22T08:49:54Z</time>
      </trkpt>
      <trkpt lat="45.40549" lon="5.78648">
        <ele>1195.54</ele>
        <time>2017-04-22T08:49:55Z</time>
      </trkpt>
      <trkpt lat="45.4055" lon="5.78644">
        <ele>1195.06</ele>
        <time>2017-04-22T08:49:57Z</time>
      </trkpt>
      <trkpt lat="45.40555" lon="5.78634">
        <ele>1195.06</ele>
        <time>2017-04-22T08:50:02Z</time>
      </trkpt>
      <trkpt lat="45.40548" lon="5.78617">
        <ele>1196.02</ele>
        <time>2017-04-22T08:50:11Z</time>
      </trkpt>
      <trkpt lat="45.40544" lon="5.7861">
        <ele>1197.46</ele>
        <time>2017-04-22T08:50:16Z</time>
      </trkpt>
      <trkpt lat="45.4054" lon="5.78596">
        <ele>1197.46</ele>
        <time>2017-04-22T08:50:24Z</time>
      </trkpt>
      <trkpt lat="45.40537" lon="5.78588">
        <ele>1196.98</ele>
        <time>2017-04-22T08:50:28Z</time>
      </trkpt>
      <trkpt lat="45.40535" lon="5.78587">
        <ele>1196.98</ele>
        <time>2017-04-22T08:50:29Z</time>
      </trkpt>
      <trkpt lat="45.40528" lon="5.78581">
        <ele>1196.98</ele>
        <time>2017-04-22T08:50:33Z</time>
      </trkpt>
      <trkpt lat="45.40527" lon="5.78579">
        <ele>1196.5</ele>
        <time>2017-04-22T08:50:34Z</time>
      </trkpt>
      <trkpt lat="45.40524" lon="5.78573">
        <ele>1196.02</ele>
        <time>2017-04-22T08:50:37Z</time>
      </trkpt>
      <trkpt lat="45.40523" lon="5.78568">
        <ele>1197.94</ele>
        <time>2017-04-22T08:50:41Z</time>
      </trkpt>
      <trkpt lat="45.40524" lon="5.78562">
        <ele>1200.82</ele>
        <time>2017-04-22T08:50:45Z</time>
      </trkpt>
      <trkpt lat="45.40524" lon="5.7856">
        <ele>1200.82</ele>
        <time>2017-04-22T08:50:46Z</time>
      </trkpt>
      <trkpt lat="45.40523" lon="5.78556">
        <ele>1200.82</ele>
        <time>2017-04-22T08:50:49Z</time>
      </trkpt>
      <trkpt lat="45.40526" lon="5.78553">
        <ele>1200.82</ele>
        <time>2017-04-22T08:50:53Z</time>
      </trkpt>
      <trkpt lat="45.40526" lon="5.78552">
        <ele>1200.82</ele>
        <time>2017-04-22T08:50:54Z</time>
      </trkpt>
      <trkpt lat="45.40525" lon="5.78544">
        <ele>1201.3</ele>
        <time>2017-04-22T08:50:58Z</time>
      </trkpt>
      <trkpt lat="45.40525" lon="5.78539">
        <ele>1201.79</ele>
        <time>2017-04-22T08:51:00Z</time>
      </trkpt>
      <trkpt lat="45.40524" lon="5.78536">
        <ele>1201.79</ele>
        <time>2017-04-22T08:51:01Z</time>
      </trkpt>
      <trkpt lat="45.40525" lon="5.78532">
        <ele>1201.79</ele>
        <time>2017-04-22T08:51:03Z</time>
      </trkpt>
      <trkpt lat="45.40525" lon="5.78529">
        <ele>1201.79</ele>
        <time>2017-04-22T08:51:04Z</time>
      </trkpt>
      <trkpt lat="45.40524" lon="5.78527">
        <ele>1202.27</ele>
        <time>2017-04-22T08:51:05Z</time>
      </trkpt>
      <trkpt lat="45.40515" lon="5.78516">
        <ele>1201.79</ele>
        <time>2017-04-22T08:51:11Z</time>
      </trkpt>
      <trkpt lat="45.40513" lon="5.78507">
        <ele>1201.79</ele>
        <time>2017-04-22T08:51:16Z</time>
      </trkpt>
      <trkpt lat="45.40512" lon="5.78504">
        <ele>1201.79</ele>
        <time>2017-04-22T08:51:17Z</time>
      </trkpt>
      <trkpt lat="45.40511" lon="5.78502">
        <ele>1201.79</ele>
        <time>2017-04-22T08:51:18Z</time>
      </trkpt>
      <trkpt lat="45.40511" lon="5.785">
        <ele>1201.79</ele>
        <time>2017-04-22T08:51:19Z</time>
      </trkpt>
      <trkpt lat="45.4051" lon="5.78499">
        <ele>1202.27</ele>
        <time>2017-04-22T08:51:20Z</time>
      </trkpt>
      <trkpt lat="45.40504" lon="5.78488">
        <ele>1201.79</ele>
        <time>2017-04-22T08:51:27Z</time>
      </trkpt>
      <trkpt lat="45.40502" lon="5.78486">
        <ele>1202.27</ele>
        <time>2017-04-22T08:51:28Z</time>
      </trkpt>
      <trkpt lat="45.40502" lon="5.78484">
        <ele>1202.27</ele>
        <time>2017-04-22T08:51:29Z</time>
      </trkpt>
      <trkpt lat="45.40502" lon="5.78481">
        <ele>1202.27</ele>
        <time>2017-04-22T08:51:30Z</time>
      </trkpt>
      <trkpt lat="45.40501" lon="5.7848">
        <ele>1202.27</ele>
        <time>2017-04-22T08:51:31Z</time>
      </trkpt>
      <trkpt lat="45.405" lon="5.78478">
        <ele>1202.27</ele>
        <time>2017-04-22T08:51:32Z</time>
      </trkpt>
      <trkpt lat="45.40499" lon="5.78477">
        <ele>1202.75</ele>
        <time>2017-04-22T08:51:33Z</time>
      </trkpt>
      <trkpt lat="45.40498" lon="5.78475">
        <ele>1202.75</ele>
        <time>2017-04-22T08:51:34Z</time>
      </trkpt>
      <trkpt lat="45.40497" lon="5.78473">
        <ele>1202.75</ele>
        <time>2017-04-22T08:51:35Z</time>
      </trkpt>
      <trkpt lat="45.40495" lon="5.78471">
        <ele>1202.75</ele>
        <time>2017-04-22T08:51:37Z</time>
      </trkpt>
      <trkpt lat="45.40491" lon="5.78455">
        <ele>1204.67</ele>
        <time>2017-04-22T08:51:47Z</time>
      </trkpt>
      <trkpt lat="45.4049" lon="5.78453">
        <ele>1204.67</ele>
        <time>2017-04-22T08:51:48Z</time>
      </trkpt>
      <trkpt lat="45.40489" lon="5.78452">
        <ele>1204.67</ele>
        <time>2017-04-22T08:51:49Z</time>
      </trkpt>
      <trkpt lat="45.40489" lon="5.7845">
        <ele>1205.15</ele>
        <time>2017-04-22T08:51:50Z</time>
      </trkpt>
      <trkpt lat="45.40489" lon="5.78449">
        <ele>1205.15</ele>
        <time>2017-04-22T08:51:51Z</time>
      </trkpt>
      <trkpt lat="45.40484" lon="5.78441">
        <ele>1206.11</ele>
        <time>2017-04-22T08:51:57Z</time>
      </trkpt>
      <trkpt lat="45.40482" lon="5.78439">
        <ele>1206.11</ele>
        <time>2017-04-22T08:51:58Z</time>
      </trkpt>
      <trkpt lat="45.40481" lon="5.78438">
        <ele>1206.11</ele>
        <time>2017-04-22T08:51:59Z</time>
      </trkpt>
      <trkpt lat="45.40481" lon="5.78436">
        <ele>1205.63</ele>
        <time>2017-04-22T08:52:00Z</time>
      </trkpt>
      <trkpt lat="45.4048" lon="5.78435">
        <ele>1206.11</ele>
        <time>2017-04-22T08:52:01Z</time>
      </trkpt>
      <trkpt lat="45.40478" lon="5.78433">
        <ele>1206.11</ele>
        <time>2017-04-22T08:52:02Z</time>
      </trkpt>
      <trkpt lat="45.4047" lon="5.78418">
        <ele>1206.11</ele>
        <time>2017-04-22T08:52:13Z</time>
      </trkpt>
      <trkpt lat="45.40465" lon="5.78409">
        <ele>1206.11</ele>
        <time>2017-04-22T08:52:18Z</time>
      </trkpt>
      <trkpt lat="45.40465" lon="5.78408">
        <ele>1206.11</ele>
        <time>2017-04-22T08:52:19Z</time>
      </trkpt>
      <trkpt lat="45.40464" lon="5.78407">
        <ele>1206.11</ele>
        <time>2017-04-22T08:52:20Z</time>
      </trkpt>
      <trkpt lat="45.40451" lon="5.78387">
        <ele>1206.59</ele>
        <time>2017-04-22T08:52:34Z</time>
      </trkpt>
      <trkpt lat="45.40444" lon="5.78374">
        <ele>1208.03</ele>
        <time>2017-04-22T08:52:43Z</time>
      </trkpt>
      <trkpt lat="45.40443" lon="5.78372">
        <ele>1208.03</ele>
        <time>2017-04-22T08:52:44Z</time>
      </trkpt>
      <trkpt lat="45.40441" lon="5.78369">
        <ele>1208.03</ele>
        <time>2017-04-22T08:52:46Z</time>
      </trkpt>
      <trkpt lat="45.40436" lon="5.78356">
        <ele>1211.4</ele>
        <time>2017-04-22T08:52:57Z</time>
      </trkpt>
      <trkpt lat="45.40428" lon="5.78342">
        <ele>1215.24</ele>
        <time>2017-04-22T08:53:07Z</time>
      </trkpt>
      <trkpt lat="45.40423" lon="5.78336">
        <ele>1217.65</ele>
        <time>2017-04-22T08:53:14Z</time>
      </trkpt>
      <trkpt lat="45.4042" lon="5.78334">
        <ele>1217.65</ele>
        <time>2017-04-22T08:53:15Z</time>
      </trkpt>
      <trkpt lat="45.40404" lon="5.78323">
        <ele>1219.09</ele>
        <time>2017-04-22T08:53:28Z</time>
      </trkpt>
      <trkpt lat="45.40384" lon="5.78316">
        <ele>1218.13</ele>
        <time>2017-04-22T08:53:41Z</time>
      </trkpt>
      <trkpt lat="45.40362" lon="5.78314">
        <ele>1217.65</ele>
        <time>2017-04-22T08:53:54Z</time>
      </trkpt>
      <trkpt lat="45.4035" lon="5.78313">
        <ele>1217.65</ele>
        <time>2017-04-22T08:54:05Z</time>
      </trkpt>
      <trkpt lat="45.40335" lon="5.78311">
        <ele>1216.69</ele>
        <time>2017-04-22T08:54:16Z</time>
      </trkpt>
      <trkpt lat="45.40309" lon="5.78309">
        <ele>1217.65</ele>
        <time>2017-04-22T08:54:27Z</time>
      </trkpt>
      <trkpt lat="45.4029" lon="5.7831">
        <ele>1218.13</ele>
        <time>2017-04-22T08:54:36Z</time>
      </trkpt>
      <trkpt lat="45.40275" lon="5.78312">
        <ele>1218.61</ele>
        <time>2017-04-22T08:54:46Z</time>
      </trkpt>
      <trkpt lat="45.40255" lon="5.78321">
        <ele>1219.09</ele>
        <time>2017-04-22T08:54:56Z</time>
      </trkpt>
      <trkpt lat="45.40232" lon="5.78332">
        <ele>1219.09</ele>
        <time>2017-04-22T08:55:07Z</time>
      </trkpt>
      <trkpt lat="45.40215" lon="5.78344">
        <ele>1219.57</ele>
        <time>2017-04-22T08:55:17Z</time>
      </trkpt>
      <trkpt lat="45.40192" lon="5.78354">
        <ele>1219.57</ele>
        <time>2017-04-22T08:55:28Z</time>
      </trkpt>
      <trkpt lat="45.4018" lon="5.78354">
        <ele>1219.57</ele>
        <time>2017-04-22T08:55:38Z</time>
      </trkpt>
      <trkpt lat="45.40179" lon="5.78351">
        <ele>1219.57</ele>
        <time>2017-04-22T08:55:40Z</time>
      </trkpt>
      <trkpt lat="45.40179" lon="5.7835">
        <ele>1219.57</ele>
        <time>2017-04-22T08:55:41Z</time>
      </trkpt>
      <trkpt lat="45.40179" lon="5.78347">
        <ele>1219.57</ele>
        <time>2017-04-22T08:55:42Z</time>
      </trkpt>
      <trkpt lat="45.40179" lon="5.78345">
        <ele>1219.57</ele>
        <time>2017-04-22T08:55:43Z</time>
      </trkpt>
      <trkpt lat="45.40178" lon="5.78344">
        <ele>1219.57</ele>
        <time>2017-04-22T08:55:44Z</time>
      </trkpt>
      <trkpt lat="45.40178" lon="5.78342">
        <ele>1219.57</ele>
        <time>2017-04-22T08:55:45Z</time>
      </trkpt>
      <trkpt lat="45.40179" lon="5.78339">
        <ele>1220.05</ele>
        <time>2017-04-22T08:55:46Z</time>
      </trkpt>
      <trkpt lat="45.40179" lon="5.78337">
        <ele>1220.05</ele>
        <time>2017-04-22T08:55:47Z</time>
      </trkpt>
      <trkpt lat="45.4018" lon="5.78332">
        <ele>1220.05</ele>
        <time>2017-04-22T08:55:49Z</time>
      </trkpt>
      <trkpt lat="45.40179" lon="5.7833">
        <ele>1220.05</ele>
        <time>2017-04-22T08:55:50Z</time>
      </trkpt>
      <trkpt lat="45.40177" lon="5.78329">
        <ele>1220.53</ele>
        <time>2017-04-22T08:55:51Z</time>
      </trkpt>
      <trkpt lat="45.40177" lon="5.78327">
        <ele>1220.53</ele>
        <time>2017-04-22T08:55:52Z</time>
      </trkpt>
      <trkpt lat="45.40177" lon="5.78325">
        <ele>1220.05</ele>
        <time>2017-04-22T08:55:53Z</time>
      </trkpt>
      <trkpt lat="45.4018" lon="5.78317">
        <ele>1220.53</ele>
        <time>2017-04-22T08:55:58Z</time>
      </trkpt>
      <trkpt lat="45.40168" lon="5.78309">
        <ele>1218.61</ele>
        <time>2017-04-22T08:56:04Z</time>
      </trkpt>
      <trkpt lat="45.40179" lon="5.78287">
        <ele>1218.61</ele>
        <time>2017-04-22T08:56:16Z</time>
      </trkpt>
      <trkpt lat="45.40191" lon="5.78269">
        <ele>1219.09</ele>
        <time>2017-04-22T08:56:26Z</time>
      </trkpt>
      <trkpt lat="45.40209" lon="5.78254">
        <ele>1219.09</ele>
        <time>2017-04-22T08:56:37Z</time>
      </trkpt>
      <trkpt lat="45.40211" lon="5.78252">
        <ele>1219.09</ele>
        <time>2017-04-22T08:56:40Z</time>
      </trkpt>
      <trkpt lat="45.40212" lon="5.7825">
        <ele>1219.57</ele>
        <time>2017-04-22T08:56:41Z</time>
      </trkpt>
      <trkpt lat="45.40214" lon="5.78247">
        <ele>1219.57</ele>
        <time>2017-04-22T08:56:42Z</time>
      </trkpt>
      <trkpt lat="45.40215" lon="5.78245">
        <ele>1219.57</ele>
        <time>2017-04-22T08:56:43Z</time>
      </trkpt>
      <trkpt lat="45.40218" lon="5.78239">
        <ele>1220.05</ele>
        <time>2017-04-22T08:56:46Z</time>
      </trkpt>
      <trkpt lat="45.40219" lon="5.78236">
        <ele>1220.05</ele>
        <time>2017-04-22T08:56:47Z</time>
      </trkpt>
      <trkpt lat="45.40219" lon="5.78233">
        <ele>1220.53</ele>
        <time>2017-04-22T08:56:48Z</time>
      </trkpt>
      <trkpt lat="45.4022" lon="5.7823">
        <ele>1220.53</ele>
        <time>2017-04-22T08:56:49Z</time>
      </trkpt>
      <trkpt lat="45.40221" lon="5.78226">
        <ele>1220.53</ele>
        <time>2017-04-22T08:56:50Z</time>
      </trkpt>
      <trkpt lat="45.40222" lon="5.78223">
        <ele>1220.53</ele>
        <time>2017-04-22T08:56:51Z</time>
      </trkpt>
      <trkpt lat="45.40223" lon="5.7822">
        <ele>1220.05</ele>
        <time>2017-04-22T08:56:52Z</time>
      </trkpt>
      <trkpt lat="45.40224" lon="5.78217">
        <ele>1220.05</ele>
        <time>2017-04-22T08:56:53Z</time>
      </trkpt>
      <trkpt lat="45.40225" lon="5.78215">
        <ele>1220.05</ele>
        <time>2017-04-22T08:56:54Z</time>
      </trkpt>
      <trkpt lat="45.40226" lon="5.78212">
        <ele>1220.05</ele>
        <time>2017-04-22T08:56:55Z</time>
      </trkpt>
      <trkpt lat="45.40227" lon="5.78209">
        <ele>1220.05</ele>
        <time>2017-04-22T08:56:56Z</time>
      </trkpt>
      <trkpt lat="45.4023" lon="5.78201">
        <ele>1219.57</ele>
        <time>2017-04-22T08:56:59Z</time>
      </trkpt>
      <trkpt lat="45.40232" lon="5.78198">
        <ele>1219.57</ele>
        <time>2017-04-22T08:57:00Z</time>
      </trkpt>
      <trkpt lat="45.40233" lon="5.78195">
        <ele>1219.57</ele>
        <time>2017-04-22T08:57:01Z</time>
      </trkpt>
      <trkpt lat="45.40234" lon="5.78192">
        <ele>1219.09</ele>
        <time>2017-04-22T08:57:02Z</time>
      </trkpt>
      <trkpt lat="45.40235" lon="5.78189">
        <ele>1219.09</ele>
        <time>2017-04-22T08:57:03Z</time>
      </trkpt>
      <trkpt lat="45.40236" lon="5.78186">
        <ele>1219.09</ele>
        <time>2017-04-22T08:57:04Z</time>
      </trkpt>
      <trkpt lat="45.40242" lon="5.78169">
        <ele>1218.13</ele>
        <time>2017-04-22T08:57:09Z</time>
      </trkpt>
      <trkpt lat="45.40244" lon="5.78166">
        <ele>1217.65</ele>
        <time>2017-04-22T08:57:10Z</time>
      </trkpt>
      <trkpt lat="45.40243" lon="5.78164">
        <ele>1217.65</ele>
        <time>2017-04-22T08:57:11Z</time>
      </trkpt>
      <trkpt lat="45.40244" lon="5.78155">
        <ele>1217.17</ele>
        <time>2017-04-22T08:57:15Z</time>
      </trkpt>
      <trkpt lat="45.40245" lon="5.78153">
        <ele>1216.69</ele>
        <time>2017-04-22T08:57:16Z</time>
      </trkpt>
      <trkpt lat="45.40248" lon="5.78142">
        <ele>1215.24</ele>
        <time>2017-04-22T08:57:20Z</time>
      </trkpt>
      <trkpt lat="45.4025" lon="5.7814">
        <ele>1215.24</ele>
        <time>2017-04-22T08:57:21Z</time>
      </trkpt>
      <trkpt lat="45.40252" lon="5.78137">
        <ele>1214.76</ele>
        <time>2017-04-22T08:57:22Z</time>
      </trkpt>
      <trkpt lat="45.40253" lon="5.78134">
        <ele>1214.76</ele>
        <time>2017-04-22T08:57:23Z</time>
      </trkpt>
      <trkpt lat="45.40254" lon="5.78132">
        <ele>1214.28</ele>
        <time>2017-04-22T08:57:24Z</time>
      </trkpt>
      <trkpt lat="45.40254" lon="5.78129">
        <ele>1213.8</ele>
        <time>2017-04-22T08:57:25Z</time>
      </trkpt>
      <trkpt lat="45.40255" lon="5.78126">
        <ele>1213.8</ele>
        <time>2017-04-22T08:57:26Z</time>
      </trkpt>
      <trkpt lat="45.40256" lon="5.78122">
        <ele>1213.32</ele>
        <time>2017-04-22T08:57:27Z</time>
      </trkpt>
      <trkpt lat="45.40257" lon="5.7812">
        <ele>1213.32</ele>
        <time>2017-04-22T08:57:28Z</time>
      </trkpt>
      <trkpt lat="45.40257" lon="5.78117">
        <ele>1212.84</ele>
        <time>2017-04-22T08:57:29Z</time>
      </trkpt>
      <trkpt lat="45.40258" lon="5.78114">
        <ele>1212.36</ele>
        <time>2017-04-22T08:57:30Z</time>
      </trkpt>
      <trkpt lat="45.40263" lon="5.78105">
        <ele>1210.92</ele>
        <time>2017-04-22T08:57:32Z</time>
      </trkpt>
      <trkpt lat="45.40265" lon="5.781">
        <ele>1209.48</ele>
        <time>2017-04-22T08:57:33Z</time>
      </trkpt>
      <trkpt lat="45.40267" lon="5.78095">
        <ele>1208.03</ele>
        <time>2017-04-22T08:57:34Z</time>
      </trkpt>
      <trkpt lat="45.40268" lon="5.78076">
        <ele>1205.15</ele>
        <time>2017-04-22T08:57:40Z</time>
      </trkpt>
      <trkpt lat="45.40267" lon="5.78074">
        <ele>1205.15</ele>
        <time>2017-04-22T08:57:41Z</time>
      </trkpt>
      <trkpt lat="45.40267" lon="5.78073">
        <ele>1204.67</ele>
        <time>2017-04-22T08:57:42Z</time>
      </trkpt>
      <trkpt lat="45.40268" lon="5.78071">
        <ele>1204.19</ele>
        <time>2017-04-22T08:57:43Z</time>
      </trkpt>
      <trkpt lat="45.40268" lon="5.78069">
        <ele>1204.19</ele>
        <time>2017-04-22T08:57:44Z</time>
      </trkpt>
      <trkpt lat="45.40267" lon="5.78067">
        <ele>1203.71</ele>
        <time>2017-04-22T08:57:45Z</time>
      </trkpt>
      <trkpt lat="45.40267" lon="5.78065">
        <ele>1203.71</ele>
        <time>2017-04-22T08:57:46Z</time>
      </trkpt>
      <trkpt lat="45.40267" lon="5.78063">
        <ele>1203.23</ele>
        <time>2017-04-22T08:57:47Z</time>
      </trkpt>
      <trkpt lat="45.40266" lon="5.78061">
        <ele>1203.23</ele>
        <time>2017-04-22T08:57:48Z</time>
      </trkpt>
      <trkpt lat="45.40266" lon="5.78059">
        <ele>1202.75</ele>
        <time>2017-04-22T08:57:49Z</time>
      </trkpt>
      <trkpt lat="45.40267" lon="5.78057">
        <ele>1202.75</ele>
        <time>2017-04-22T08:57:50Z</time>
      </trkpt>
      <trkpt lat="45.40268" lon="5.78054">
        <ele>1202.75</ele>
        <time>2017-04-22T08:57:51Z</time>
      </trkpt>
      <trkpt lat="45.40269" lon="5.78051">
        <ele>1202.75</ele>
        <time>2017-04-22T08:57:52Z</time>
      </trkpt>
      <trkpt lat="45.4027" lon="5.78047">
        <ele>1202.27</ele>
        <time>2017-04-22T08:57:53Z</time>
      </trkpt>
      <trkpt lat="45.4027" lon="5.78044">
        <ele>1202.27</ele>
        <time>2017-04-22T08:57:54Z</time>
      </trkpt>
      <trkpt lat="45.40271" lon="5.78042">
        <ele>1201.79</ele>
        <time>2017-04-22T08:57:55Z</time>
      </trkpt>
      <trkpt lat="45.40272" lon="5.78039">
        <ele>1201.79</ele>
        <time>2017-04-22T08:57:56Z</time>
      </trkpt>
      <trkpt lat="45.40273" lon="5.78037">
        <ele>1201.3</ele>
        <time>2017-04-22T08:57:57Z</time>
      </trkpt>
      <trkpt lat="45.40276" lon="5.78035">
        <ele>1201.3</ele>
        <time>2017-04-22T08:57:58Z</time>
      </trkpt>
      <trkpt lat="45.40278" lon="5.78033">
        <ele>1201.3</ele>
        <time>2017-04-22T08:57:59Z</time>
      </trkpt>
      <trkpt lat="45.4028" lon="5.78031">
        <ele>1200.82</ele>
        <time>2017-04-22T08:58:00Z</time>
      </trkpt>
      <trkpt lat="45.40282" lon="5.78029">
        <ele>1200.82</ele>
        <time>2017-04-22T08:58:01Z</time>
      </trkpt>
      <trkpt lat="45.40283" lon="5.78027">
        <ele>1200.34</ele>
        <time>2017-04-22T08:58:03Z</time>
      </trkpt>
      <trkpt lat="45.40284" lon="5.78025">
        <ele>1200.34</ele>
        <time>2017-04-22T08:58:04Z</time>
      </trkpt>
      <trkpt lat="45.40286" lon="5.78022">
        <ele>1200.34</ele>
        <time>2017-04-22T08:58:06Z</time>
      </trkpt>
      <trkpt lat="45.40287" lon="5.78018">
        <ele>1200.34</ele>
        <time>2017-04-22T08:58:07Z</time>
      </trkpt>
      <trkpt lat="45.40287" lon="5.78016">
        <ele>1200.34</ele>
        <time>2017-04-22T08:58:08Z</time>
      </trkpt>
      <trkpt lat="45.40288" lon="5.78014">
        <ele>1200.34</ele>
        <time>2017-04-22T08:58:09Z</time>
      </trkpt>
      <trkpt lat="45.40288" lon="5.78011">
        <ele>1200.34</ele>
        <time>2017-04-22T08:58:10Z</time>
      </trkpt>
      <trkpt lat="45.40288" lon="5.78007">
        <ele>1200.34</ele>
        <time>2017-04-22T08:58:11Z</time>
      </trkpt>
      <trkpt lat="45.40286" lon="5.77999">
        <ele>1199.86</ele>
        <time>2017-04-22T08:58:14Z</time>
      </trkpt>
      <trkpt lat="45.40289" lon="5.77971">
        <ele>1196.98</ele>
        <time>2017-04-22T08:58:22Z</time>
      </trkpt>
      <trkpt lat="45.40284" lon="5.77963">
        <ele>1196.02</ele>
        <time>2017-04-22T08:58:27Z</time>
      </trkpt>
      <trkpt lat="45.40281" lon="5.77953">
        <ele>1195.54</ele>
        <time>2017-04-22T08:58:34Z</time>
      </trkpt>
      <trkpt lat="45.40268" lon="5.77935">
        <ele>1194.09</ele>
        <time>2017-04-22T08:58:46Z</time>
      </trkpt>
      <trkpt lat="45.40246" lon="5.77928">
        <ele>1188.33</ele>
        <time>2017-04-22T08:58:58Z</time>
      </trkpt>
      <trkpt lat="45.40236" lon="5.77922">
        <ele>1189.77</ele>
        <time>2017-04-22T08:59:13Z</time>
      </trkpt>
      <trkpt lat="45.40228" lon="5.77913">
        <ele>1192.17</ele>
        <time>2017-04-22T08:59:25Z</time>
      </trkpt>
      <trkpt lat="45.40227" lon="5.7791">
        <ele>1193.13</ele>
        <time>2017-04-22T08:59:28Z</time>
      </trkpt>
      <trkpt lat="45.40221" lon="5.77902">
        <ele>1197.94</ele>
        <time>2017-04-22T08:59:37Z</time>
      </trkpt>
      <trkpt lat="45.40216" lon="5.77898">
        <ele>1197.94</ele>
        <time>2017-04-22T08:59:40Z</time>
      </trkpt>
      <trkpt lat="45.40212" lon="5.77895">
        <ele>1197.94</ele>
        <time>2017-04-22T08:59:42Z</time>
      </trkpt>
      <trkpt lat="45.4021" lon="5.7789">
        <ele>1198.42</ele>
        <time>2017-04-22T08:59:45Z</time>
      </trkpt>
      <trkpt lat="45.40202" lon="5.77871">
        <ele>1197.46</ele>
        <time>2017-04-22T08:59:58Z</time>
      </trkpt>
      <trkpt lat="45.402" lon="5.77864">
        <ele>1197.94</ele>
        <time>2017-04-22T09:00:04Z</time>
      </trkpt>
      <trkpt lat="45.40192" lon="5.77858">
        <ele>1198.42</ele>
        <time>2017-04-22T09:00:10Z</time>
      </trkpt>
      <trkpt lat="45.40183" lon="5.77855">
        <ele>1197.94</ele>
        <time>2017-04-22T09:00:16Z</time>
      </trkpt>
      <trkpt lat="45.4017" lon="5.77851">
        <ele>1198.9</ele>
        <time>2017-04-22T09:00:27Z</time>
      </trkpt>
      <trkpt lat="45.40167" lon="5.77846">
        <ele>1199.38</ele>
        <time>2017-04-22T09:00:34Z</time>
      </trkpt>
      <trkpt lat="45.40166" lon="5.77841">
        <ele>1199.86</ele>
        <time>2017-04-22T09:00:39Z</time>
      </trkpt>
      <trkpt lat="45.40165" lon="5.77838">
        <ele>1200.34</ele>
        <time>2017-04-22T09:00:41Z</time>
      </trkpt>
      <trkpt lat="45.40161" lon="5.77834">
        <ele>1200.34</ele>
        <time>2017-04-22T09:00:44Z</time>
      </trkpt>
      <trkpt lat="45.40152" lon="5.77824">
        <ele>1201.3</ele>
        <time>2017-04-22T09:00:50Z</time>
      </trkpt>
      <trkpt lat="45.40149" lon="5.77822">
        <ele>1201.3</ele>
        <time>2017-04-22T09:00:51Z</time>
      </trkpt>
      <trkpt lat="45.40147" lon="5.7782">
        <ele>1201.3</ele>
        <time>2017-04-22T09:00:52Z</time>
      </trkpt>
      <trkpt lat="45.40145" lon="5.77819">
        <ele>1201.3</ele>
        <time>2017-04-22T09:00:53Z</time>
      </trkpt>
      <trkpt lat="45.40143" lon="5.77817">
        <ele>1201.3</ele>
        <time>2017-04-22T09:00:54Z</time>
      </trkpt>
      <trkpt lat="45.4014" lon="5.77815">
        <ele>1201.79</ele>
        <time>2017-04-22T09:00:55Z</time>
      </trkpt>
      <trkpt lat="45.40138" lon="5.77814">
        <ele>1201.79</ele>
        <time>2017-04-22T09:00:56Z</time>
      </trkpt>
      <trkpt lat="45.40132" lon="5.77808">
        <ele>1202.27</ele>
        <time>2017-04-22T09:01:00Z</time>
      </trkpt>
      <trkpt lat="45.40131" lon="5.77802">
        <ele>1202.27</ele>
        <time>2017-04-22T09:01:04Z</time>
      </trkpt>
      <trkpt lat="45.40126" lon="5.77782">
        <ele>1201.79</ele>
        <time>2017-04-22T09:01:13Z</time>
      </trkpt>
      <trkpt lat="45.40125" lon="5.77774">
        <ele>1202.27</ele>
        <time>2017-04-22T09:01:17Z</time>
      </trkpt>
      <trkpt lat="45.40115" lon="5.77758">
        <ele>1202.75</ele>
        <time>2017-04-22T09:01:25Z</time>
      </trkpt>
      <trkpt lat="45.40114" lon="5.77756">
        <ele>1202.75</ele>
        <time>2017-04-22T09:01:26Z</time>
      </trkpt>
      <trkpt lat="45.40113" lon="5.77754">
        <ele>1202.75</ele>
        <time>2017-04-22T09:01:27Z</time>
      </trkpt>
      <trkpt lat="45.40112" lon="5.77751">
        <ele>1203.23</ele>
        <time>2017-04-22T09:01:28Z</time>
      </trkpt>
      <trkpt lat="45.40112" lon="5.77749">
        <ele>1203.23</ele>
        <time>2017-04-22T09:01:29Z</time>
      </trkpt>
      <trkpt lat="45.4011" lon="5.77747">
        <ele>1203.23</ele>
        <time>2017-04-22T09:01:30Z</time>
      </trkpt>
      <trkpt lat="45.40109" lon="5.77742">
        <ele>1203.23</ele>
        <time>2017-04-22T09:01:33Z</time>
      </trkpt>
      <trkpt lat="45.40107" lon="5.7774">
        <ele>1203.23</ele>
        <time>2017-04-22T09:01:34Z</time>
      </trkpt>
      <trkpt lat="45.40106" lon="5.77739">
        <ele>1203.23</ele>
        <time>2017-04-22T09:01:35Z</time>
      </trkpt>
      <trkpt lat="45.40104" lon="5.77735">
        <ele>1203.71</ele>
        <time>2017-04-22T09:01:38Z</time>
      </trkpt>
      <trkpt lat="45.40098" lon="5.77729">
        <ele>1203.71</ele>
        <time>2017-04-22T09:01:41Z</time>
      </trkpt>
      <trkpt lat="45.40097" lon="5.77727">
        <ele>1203.71</ele>
        <time>2017-04-22T09:01:42Z</time>
      </trkpt>
      <trkpt lat="45.40096" lon="5.77725">
        <ele>1204.19</ele>
        <time>2017-04-22T09:01:43Z</time>
      </trkpt>
      <trkpt lat="45.40092" lon="5.7772">
        <ele>1204.19</ele>
        <time>2017-04-22T09:01:46Z</time>
      </trkpt>
      <trkpt lat="45.4009" lon="5.77718">
        <ele>1204.19</ele>
        <time>2017-04-22T09:01:47Z</time>
      </trkpt>
      <trkpt lat="45.40088" lon="5.77717">
        <ele>1204.19</ele>
        <time>2017-04-22T09:01:48Z</time>
      </trkpt>
      <trkpt lat="45.40087" lon="5.77717">
        <ele>1204.67</ele>
        <time>2017-04-22T09:01:49Z</time>
      </trkpt>
      <trkpt lat="45.40085" lon="5.77716">
        <ele>1204.19</ele>
        <time>2017-04-22T09:01:50Z</time>
      </trkpt>
      <trkpt lat="45.40058" lon="5.77707">
        <ele>1201.79</ele>
        <time>2017-04-22T09:02:01Z</time>
      </trkpt>
      <trkpt lat="45.40045" lon="5.77701">
        <ele>1201.3</ele>
        <time>2017-04-22T09:02:13Z</time>
      </trkpt>
      <trkpt lat="45.40029" lon="5.77694">
        <ele>1201.79</ele>
        <time>2017-04-22T09:02:25Z</time>
      </trkpt>
      <trkpt lat="45.40009" lon="5.77689">
        <ele>1200.82</ele>
        <time>2017-04-22T09:02:38Z</time>
      </trkpt>
      <trkpt lat="45.39997" lon="5.77689">
        <ele>1204.19</ele>
        <time>2017-04-22T09:02:51Z</time>
      </trkpt>
      <trkpt lat="45.39982" lon="5.77682">
        <ele>1206.59</ele>
        <time>2017-04-22T09:03:05Z</time>
      </trkpt>
      <trkpt lat="45.39971" lon="5.77683">
        <ele>1209.96</ele>
        <time>2017-04-22T09:03:15Z</time>
      </trkpt>
      <trkpt lat="45.39967" lon="5.77683">
        <ele>1211.88</ele>
        <time>2017-04-22T09:03:19Z</time>
      </trkpt>
      <trkpt lat="45.39965" lon="5.77682">
        <ele>1211.88</ele>
        <time>2017-04-22T09:03:20Z</time>
      </trkpt>
      <trkpt lat="45.39951" lon="5.77682">
        <ele>1214.28</ele>
        <time>2017-04-22T09:03:30Z</time>
      </trkpt>
      <trkpt lat="45.39945" lon="5.77682">
        <ele>1218.13</ele>
        <time>2017-04-22T09:03:36Z</time>
      </trkpt>
      <trkpt lat="45.39943" lon="5.77681">
        <ele>1218.61</ele>
        <time>2017-04-22T09:03:37Z</time>
      </trkpt>
      <trkpt lat="45.39928" lon="5.77679">
        <ele>1219.09</ele>
        <time>2017-04-22T09:03:48Z</time>
      </trkpt>
      <trkpt lat="45.39916" lon="5.77679">
        <ele>1219.09</ele>
        <time>2017-04-22T09:03:55Z</time>
      </trkpt>
      <trkpt lat="45.39914" lon="5.77678">
        <ele>1219.09</ele>
        <time>2017-04-22T09:03:56Z</time>
      </trkpt>
      <trkpt lat="45.39912" lon="5.77678">
        <ele>1219.09</ele>
        <time>2017-04-22T09:03:57Z</time>
      </trkpt>
      <trkpt lat="45.3991" lon="5.77677">
        <ele>1219.09</ele>
        <time>2017-04-22T09:03:58Z</time>
      </trkpt>
      <trkpt lat="45.39908" lon="5.77677">
        <ele>1219.09</ele>
        <time>2017-04-22T09:03:59Z</time>
      </trkpt>
      <trkpt lat="45.39906" lon="5.77677">
        <ele>1219.09</ele>
        <time>2017-04-22T09:04:00Z</time>
      </trkpt>
      <trkpt lat="45.39905" lon="5.77677">
        <ele>1219.09</ele>
        <time>2017-04-22T09:04:01Z</time>
      </trkpt>
      <trkpt lat="45.39893" lon="5.77673">
        <ele>1219.09</ele>
        <time>2017-04-22T09:04:08Z</time>
      </trkpt>
      <trkpt lat="45.39888" lon="5.77672">
        <ele>1219.57</ele>
        <time>2017-04-22T09:04:09Z</time>
      </trkpt>
      <trkpt lat="45.39885" lon="5.77672">
        <ele>1219.57</ele>
        <time>2017-04-22T09:04:10Z</time>
      </trkpt>
      <trkpt lat="45.39883" lon="5.77672">
        <ele>1219.57</ele>
        <time>2017-04-22T09:04:11Z</time>
      </trkpt>
      <trkpt lat="45.39873" lon="5.77672">
        <ele>1219.09</ele>
        <time>2017-04-22T09:04:16Z</time>
      </trkpt>
      <trkpt lat="45.3987" lon="5.77672">
        <ele>1219.09</ele>
        <time>2017-04-22T09:04:17Z</time>
      </trkpt>
      <trkpt lat="45.39868" lon="5.77671">
        <ele>1219.09</ele>
        <time>2017-04-22T09:04:18Z</time>
      </trkpt>
      <trkpt lat="45.39866" lon="5.77671">
        <ele>1219.09</ele>
        <time>2017-04-22T09:04:19Z</time>
      </trkpt>
      <trkpt lat="45.39864" lon="5.7767">
        <ele>1219.57</ele>
        <time>2017-04-22T09:04:20Z</time>
      </trkpt>
      <trkpt lat="45.39861" lon="5.77669">
        <ele>1219.57</ele>
        <time>2017-04-22T09:04:21Z</time>
      </trkpt>
      <trkpt lat="45.39835" lon="5.77673">
        <ele>1219.09</ele>
        <time>2017-04-22T09:04:33Z</time>
      </trkpt>
      <trkpt lat="45.3982" lon="5.77683">
        <ele>1219.09</ele>
        <time>2017-04-22T09:04:41Z</time>
      </trkpt>
      <trkpt lat="45.39803" lon="5.77692">
        <ele>1220.05</ele>
        <time>2017-04-22T09:04:51Z</time>
      </trkpt>
      <trkpt lat="45.398" lon="5.77693">
        <ele>1220.05</ele>
        <time>2017-04-22T09:04:53Z</time>
      </trkpt>
      <trkpt lat="45.39798" lon="5.77693">
        <ele>1220.05</ele>
        <time>2017-04-22T09:04:54Z</time>
      </trkpt>
      <trkpt lat="45.3979" lon="5.77693">
        <ele>1220.05</ele>
        <time>2017-04-22T09:04:59Z</time>
      </trkpt>
      <trkpt lat="45.39788" lon="5.77694">
        <ele>1220.05</ele>
        <time>2017-04-22T09:05:00Z</time>
      </trkpt>
      <trkpt lat="45.39786" lon="5.77695">
        <ele>1220.05</ele>
        <time>2017-04-22T09:05:01Z</time>
      </trkpt>
      <trkpt lat="45.39773" lon="5.77698">
        <ele>1220.53</ele>
        <time>2017-04-22T09:05:12Z</time>
      </trkpt>
      <trkpt lat="45.39764" lon="5.77696">
        <ele>1222.45</ele>
        <time>2017-04-22T09:05:23Z</time>
      </trkpt>
      <trkpt lat="45.3975" lon="5.77692">
        <ele>1225.82</ele>
        <time>2017-04-22T09:05:36Z</time>
      </trkpt>
      <trkpt lat="45.39733" lon="5.77685">
        <ele>1226.78</ele>
        <time>2017-04-22T09:05:48Z</time>
      </trkpt>
      <trkpt lat="45.39727" lon="5.77677">
        <ele>1227.26</ele>
        <time>2017-04-22T09:05:57Z</time>
      </trkpt>
      <trkpt lat="45.39724" lon="5.77676">
        <ele>1227.26</ele>
        <time>2017-04-22T09:05:59Z</time>
      </trkpt>
      <trkpt lat="45.39723" lon="5.77675">
        <ele>1227.26</ele>
        <time>2017-04-22T09:06:00Z</time>
      </trkpt>
      <trkpt lat="45.39707" lon="5.77667">
        <ele>1229.66</ele>
        <time>2017-04-22T09:06:13Z</time>
      </trkpt>
      <trkpt lat="45.39698" lon="5.7766">
        <ele>1233.51</ele>
        <time>2017-04-22T09:06:23Z</time>
      </trkpt>
      <trkpt lat="45.39683" lon="5.77655">
        <ele>1234.95</ele>
        <time>2017-04-22T09:06:36Z</time>
      </trkpt>
      <trkpt lat="45.39677" lon="5.77653">
        <ele>1235.43</ele>
        <time>2017-04-22T09:06:40Z</time>
      </trkpt>
      <trkpt lat="45.39663" lon="5.7765">
        <ele>1236.87</ele>
        <time>2017-04-22T09:06:51Z</time>
      </trkpt>
      <trkpt lat="45.39654" lon="5.77644">
        <ele>1237.83</ele>
        <time>2017-04-22T09:06:59Z</time>
      </trkpt>
      <trkpt lat="45.39648" lon="5.7764">
        <ele>1241.2</ele>
        <time>2017-04-22T09:07:06Z</time>
      </trkpt>
      <trkpt lat="45.39647" lon="5.77639">
        <ele>1241.2</ele>
        <time>2017-04-22T09:07:07Z</time>
      </trkpt>
      <trkpt lat="45.39645" lon="5.77638">
        <ele>1241.68</ele>
        <time>2017-04-22T09:07:08Z</time>
      </trkpt>
      <trkpt lat="45.39622" lon="5.77636">
        <ele>1240.24</ele>
        <time>2017-04-22T09:07:19Z</time>
      </trkpt>
      <trkpt lat="45.39604" lon="5.77641">
        <ele>1241.68</ele>
        <time>2017-04-22T09:07:34Z</time>
      </trkpt>
      <trkpt lat="45.39587" lon="5.77647">
        <ele>1242.16</ele>
        <time>2017-04-22T09:07:47Z</time>
      </trkpt>
      <trkpt lat="45.39573" lon="5.77655">
        <ele>1243.6</ele>
        <time>2017-04-22T09:07:57Z</time>
      </trkpt>
      <trkpt lat="45.39566" lon="5.7766">
        <ele>1243.6</ele>
        <time>2017-04-22T09:08:02Z</time>
      </trkpt>
      <trkpt lat="45.3955" lon="5.77676">
        <ele>1247.45</ele>
        <time>2017-04-22T09:08:15Z</time>
      </trkpt>
      <trkpt lat="45.39542" lon="5.77703">
        <ele>1248.89</ele>
        <time>2017-04-22T09:08:30Z</time>
      </trkpt>
      <trkpt lat="45.3954" lon="5.77722">
        <ele>1250.81</ele>
        <time>2017-04-22T09:08:45Z</time>
      </trkpt>
      <trkpt lat="45.39538" lon="5.77738">
        <ele>1249.37</ele>
        <time>2017-04-22T09:08:58Z</time>
      </trkpt>
      <trkpt lat="45.39538" lon="5.77737">
        <ele>1248.89</ele>
        <time>2017-04-22T09:09:00Z</time>
      </trkpt>
      <trkpt lat="45.39538" lon="5.77736">
        <ele>1248.89</ele>
        <time>2017-04-22T09:09:01Z</time>
      </trkpt>
      <trkpt lat="45.39536" lon="5.77732">
        <ele>1248.89</ele>
        <time>2017-04-22T09:09:04Z</time>
      </trkpt>
      <trkpt lat="45.39536" lon="5.77731">
        <ele>1248.89</ele>
        <time>2017-04-22T09:09:06Z</time>
      </trkpt>
      <trkpt lat="45.39536" lon="5.77729">
        <ele>1248.89</ele>
        <time>2017-04-22T09:09:07Z</time>
      </trkpt>
      <trkpt lat="45.39537" lon="5.77728">
        <ele>1248.89</ele>
        <time>2017-04-22T09:09:08Z</time>
      </trkpt>
      <trkpt lat="45.39537" lon="5.77726">
        <ele>1249.37</ele>
        <time>2017-04-22T09:09:09Z</time>
      </trkpt>
      <trkpt lat="45.39537" lon="5.77724">
        <ele>1249.37</ele>
        <time>2017-04-22T09:09:10Z</time>
      </trkpt>
      <trkpt lat="45.39536" lon="5.77723">
        <ele>1249.85</ele>
        <time>2017-04-22T09:09:11Z</time>
      </trkpt>
      <trkpt lat="45.39535" lon="5.77722">
        <ele>1249.85</ele>
        <time>2017-04-22T09:09:12Z</time>
      </trkpt>
      <trkpt lat="45.39533" lon="5.7772">
        <ele>1249.85</ele>
        <time>2017-04-22T09:09:13Z</time>
      </trkpt>
      <trkpt lat="45.39531" lon="5.77719">
        <ele>1249.37</ele>
        <time>2017-04-22T09:09:14Z</time>
      </trkpt>
      <trkpt lat="45.39528" lon="5.77718">
        <ele>1249.85</ele>
        <time>2017-04-22T09:09:15Z</time>
      </trkpt>
      <trkpt lat="45.3951" lon="5.77709">
        <ele>1248.89</ele>
        <time>2017-04-22T09:09:23Z</time>
      </trkpt>
      <trkpt lat="45.39509" lon="5.77708">
        <ele>1248.89</ele>
        <time>2017-04-22T09:09:24Z</time>
      </trkpt>
      <trkpt lat="45.39501" lon="5.77701">
        <ele>1248.89</ele>
        <time>2017-04-22T09:09:29Z</time>
      </trkpt>
      <trkpt lat="45.39504" lon="5.77699">
        <ele>1249.37</ele>
        <time>2017-04-22T09:09:30Z</time>
      </trkpt>
      <trkpt lat="45.39507" lon="5.77697">
        <ele>1249.37</ele>
        <time>2017-04-22T09:09:31Z</time>
      </trkpt>
      <trkpt lat="45.39509" lon="5.77695">
        <ele>1249.85</ele>
        <time>2017-04-22T09:09:32Z</time>
      </trkpt>
      <trkpt lat="45.39512" lon="5.77691">
        <ele>1249.85</ele>
        <time>2017-04-22T09:09:33Z</time>
      </trkpt>
      <trkpt lat="45.39514" lon="5.77667">
        <ele>1250.33</ele>
        <time>2017-04-22T09:09:43Z</time>
      </trkpt>
      <trkpt lat="45.39514" lon="5.77665">
        <ele>1249.85</ele>
        <time>2017-04-22T09:09:44Z</time>
      </trkpt>
      <trkpt lat="45.39513" lon="5.77661">
        <ele>1249.37</ele>
        <time>2017-04-22T09:09:46Z</time>
      </trkpt>
      <trkpt lat="45.39512" lon="5.77659">
        <ele>1249.37</ele>
        <time>2017-04-22T09:09:47Z</time>
      </trkpt>
      <trkpt lat="45.39512" lon="5.77652">
        <ele>1248.41</ele>
        <time>2017-04-22T09:09:50Z</time>
      </trkpt>
      <trkpt lat="45.39512" lon="5.77649">
        <ele>1248.41</ele>
        <time>2017-04-22T09:09:51Z</time>
      </trkpt>
      <trkpt lat="45.3951" lon="5.77646">
        <ele>1247.93</ele>
        <time>2017-04-22T09:09:53Z</time>
      </trkpt>
      <trkpt lat="45.3951" lon="5.77645">
        <ele>1247.93</ele>
        <time>2017-04-22T09:09:54Z</time>
      </trkpt>
      <trkpt lat="45.39509" lon="5.77643">
        <ele>1247.93</ele>
        <time>2017-04-22T09:09:55Z</time>
      </trkpt>
      <trkpt lat="45.3951" lon="5.7764">
        <ele>1247.93</ele>
        <time>2017-04-22T09:09:59Z</time>
      </trkpt>
      <trkpt lat="45.39511" lon="5.77625">
        <ele>1251.29</ele>
        <time>2017-04-22T09:10:10Z</time>
      </trkpt>
      <trkpt lat="45.39511" lon="5.77612">
        <ele>1255.14</ele>
        <time>2017-04-22T09:10:19Z</time>
      </trkpt>
      <trkpt lat="45.3951" lon="5.77594">
        <ele>1256.58</ele>
        <time>2017-04-22T09:10:29Z</time>
      </trkpt>
      <trkpt lat="45.39509" lon="5.77577">
        <ele>1255.14</ele>
        <time>2017-04-22T09:10:41Z</time>
      </trkpt>
      <trkpt lat="45.39512" lon="5.77559">
        <ele>1254.66</ele>
        <time>2017-04-22T09:10:55Z</time>
      </trkpt>
      <trkpt lat="45.3951" lon="5.77552">
        <ele>1252.74</ele>
        <time>2017-04-22T09:11:17Z</time>
      </trkpt>
      <trkpt lat="45.39515" lon="5.77544">
        <ele>1242.64</ele>
        <time>2017-04-22T09:11:36Z</time>
      </trkpt>
      <trkpt lat="45.39509" lon="5.77544">
        <ele>1237.83</ele>
        <time>2017-04-22T09:11:51Z</time>
      </trkpt>
      <trkpt lat="45.39508" lon="5.77543">
        <ele>1234.47</ele>
        <time>2017-04-22T09:12:14Z</time>
      </trkpt>
      <trkpt lat="45.39508" lon="5.77545">
        <ele>1234.47</ele>
        <time>2017-04-22T09:12:36Z</time>
      </trkpt>
      <trkpt lat="45.3951" lon="5.77546">
        <ele>1233.99</ele>
        <time>2017-04-22T09:13:03Z</time>
      </trkpt>
      <trkpt lat="45.39512" lon="5.77548">
        <ele>1234.47</ele>
        <time>2017-04-22T09:13:26Z</time>
      </trkpt>
      <trkpt lat="45.39511" lon="5.77549">
        <ele>1233.99</ele>
        <time>2017-04-22T09:13:41Z</time>
      </trkpt>
      <trkpt lat="45.39513" lon="5.77549">
        <ele>1233.03</ele>
        <time>2017-04-22T09:14:03Z</time>
      </trkpt>
      <trkpt lat="45.39511" lon="5.77551">
        <ele>1233.99</ele>
        <time>2017-04-22T09:14:05Z</time>
      </trkpt>
      <trkpt lat="45.39508" lon="5.77554">
        <ele>1234.47</ele>
        <time>2017-04-22T09:14:10Z</time>
      </trkpt>
      <trkpt lat="45.39507" lon="5.77554">
        <ele>1234.95</ele>
        <time>2017-04-22T09:14:12Z</time>
      </trkpt>
      <trkpt lat="45.39501" lon="5.77558">
        <ele>1234.95</ele>
        <time>2017-04-22T09:14:21Z</time>
      </trkpt>
      <trkpt lat="45.395" lon="5.77557">
        <ele>1234.95</ele>
        <time>2017-04-22T09:14:22Z</time>
      </trkpt>
      <trkpt lat="45.39499" lon="5.77557">
        <ele>1234.95</ele>
        <time>2017-04-22T09:14:23Z</time>
      </trkpt>
      <trkpt lat="45.39492" lon="5.77563">
        <ele>1236.39</ele>
        <time>2017-04-22T09:14:30Z</time>
      </trkpt>
      <trkpt lat="45.39489" lon="5.77564">
        <ele>1237.35</ele>
        <time>2017-04-22T09:14:36Z</time>
      </trkpt>
      <trkpt lat="45.39483" lon="5.77565">
        <ele>1236.39</ele>
        <time>2017-04-22T09:14:46Z</time>
      </trkpt>
      <trkpt lat="45.39474" lon="5.77575">
        <ele>1235.91</ele>
        <time>2017-04-22T09:14:58Z</time>
      </trkpt>
      <trkpt lat="45.39468" lon="5.77585">
        <ele>1235.91</ele>
        <time>2017-04-22T09:15:09Z</time>
      </trkpt>
      <trkpt lat="45.39461" lon="5.77594">
        <ele>1239.28</ele>
        <time>2017-04-22T09:15:21Z</time>
      </trkpt>
      <trkpt lat="45.39454" lon="5.77592">
        <ele>1244.56</ele>
        <time>2017-04-22T09:15:33Z</time>
      </trkpt>
      <trkpt lat="45.3944" lon="5.77592">
        <ele>1247.45</ele>
        <time>2017-04-22T09:15:44Z</time>
      </trkpt>
      <trkpt lat="45.39431" lon="5.77596">
        <ele>1248.89</ele>
        <time>2017-04-22T09:15:52Z</time>
      </trkpt>
      <trkpt lat="45.39421" lon="5.77597">
        <ele>1250.81</ele>
        <time>2017-04-22T09:16:03Z</time>
      </trkpt>
      <trkpt lat="45.3942" lon="5.77609">
        <ele>1253.22</ele>
        <time>2017-04-22T09:16:15Z</time>
      </trkpt>
      <trkpt lat="45.39428" lon="5.77616">
        <ele>1262.35</ele>
        <time>2017-04-22T09:16:28Z</time>
      </trkpt>
      <trkpt lat="45.39439" lon="5.77626">
        <ele>1271.48</ele>
        <time>2017-04-22T09:16:43Z</time>
      </trkpt>
      <trkpt lat="45.39446" lon="5.7763">
        <ele>1278.69</ele>
        <time>2017-04-22T09:16:53Z</time>
      </trkpt>
      <trkpt lat="45.39446" lon="5.77637">
        <ele>1281.09</ele>
        <time>2017-04-22T09:17:00Z</time>
      </trkpt>
      <trkpt lat="45.39442" lon="5.77642">
        <ele>1284.94</ele>
        <time>2017-04-22T09:17:12Z</time>
      </trkpt>
      <trkpt lat="45.39431" lon="5.77655">
        <ele>1289.75</ele>
        <time>2017-04-22T09:17:27Z</time>
      </trkpt>
      <trkpt lat="45.39428" lon="5.7767">
        <ele>1288.3</ele>
        <time>2017-04-22T09:17:40Z</time>
      </trkpt>
      <trkpt lat="45.39424" lon="5.77682">
        <ele>1292.63</ele>
        <time>2017-04-22T09:17:53Z</time>
      </trkpt>
      <trkpt lat="45.39424" lon="5.77685">
        <ele>1293.11</ele>
        <time>2017-04-22T09:17:56Z</time>
      </trkpt>
      <trkpt lat="45.3942" lon="5.77699">
        <ele>1300.32</ele>
        <time>2017-04-22T09:18:09Z</time>
      </trkpt>
      <trkpt lat="45.39415" lon="5.77708">
        <ele>1305.61</ele>
        <time>2017-04-22T09:18:19Z</time>
      </trkpt>
      <trkpt lat="45.39404" lon="5.77718">
        <ele>1314.26</ele>
        <time>2017-04-22T09:18:32Z</time>
      </trkpt>
      <trkpt lat="45.39399" lon="5.77729">
        <ele>1316.66</ele>
        <time>2017-04-22T09:18:43Z</time>
      </trkpt>
      <trkpt lat="45.39398" lon="5.77729">
        <ele>1317.14</ele>
        <time>2017-04-22T09:18:44Z</time>
      </trkpt>
      <trkpt lat="45.39397" lon="5.77733">
        <ele>1315.22</ele>
        <time>2017-04-22T09:18:48Z</time>
      </trkpt>
      <trkpt lat="45.39389" lon="5.77742">
        <ele>1309.93</ele>
        <time>2017-04-22T09:19:01Z</time>
      </trkpt>
      <trkpt lat="45.39382" lon="5.7775">
        <ele>1301.76</ele>
        <time>2017-04-22T09:19:12Z</time>
      </trkpt>
      <trkpt lat="45.39372" lon="5.77752">
        <ele>1297.92</ele>
        <time>2017-04-22T09:19:23Z</time>
      </trkpt>
      <trkpt lat="45.39363" lon="5.77748">
        <ele>1294.07</ele>
        <time>2017-04-22T09:19:35Z</time>
      </trkpt>
      <trkpt lat="45.3936" lon="5.77747">
        <ele>1295.51</ele>
        <time>2017-04-22T09:19:41Z</time>
      </trkpt>
      <trkpt lat="45.39349" lon="5.77738">
        <ele>1296.48</ele>
        <time>2017-04-22T09:19:54Z</time>
      </trkpt>
      <trkpt lat="45.39345" lon="5.77734">
        <ele>1296.48</ele>
        <time>2017-04-22T09:19:57Z</time>
      </trkpt>
      <trkpt lat="45.39332" lon="5.77729">
        <ele>1296.96</ele>
        <time>2017-04-22T09:20:06Z</time>
      </trkpt>
      <trkpt lat="45.39321" lon="5.77729">
        <ele>1299.36</ele>
        <time>2017-04-22T09:20:16Z</time>
      </trkpt>
      <trkpt lat="45.39307" lon="5.77734">
        <ele>1300.8</ele>
        <time>2017-04-22T09:20:27Z</time>
      </trkpt>
      <trkpt lat="45.39294" lon="5.77736">
        <ele>1300.8</ele>
        <time>2017-04-22T09:20:38Z</time>
      </trkpt>
      <trkpt lat="45.39286" lon="5.77736">
        <ele>1299.36</ele>
        <time>2017-04-22T09:21:03Z</time>
      </trkpt>
      <trkpt lat="45.39271" lon="5.77738">
        <ele>1295.03</ele>
        <time>2017-04-22T09:21:32Z</time>
      </trkpt>
      <trkpt lat="45.39274" lon="5.77737">
        <ele>1293.59</ele>
        <time>2017-04-22T09:21:59Z</time>
      </trkpt>
      <trkpt lat="45.39276" lon="5.77738">
        <ele>1292.15</ele>
        <time>2017-04-22T09:22:18Z</time>
      </trkpt>
      <trkpt lat="45.39277" lon="5.77738">
        <ele>1292.15</ele>
        <time>2017-04-22T09:22:22Z</time>
      </trkpt>
      <trkpt lat="45.39272" lon="5.7775">
        <ele>1297.92</ele>
        <time>2017-04-22T09:22:35Z</time>
      </trkpt>
      <trkpt lat="45.39272" lon="5.77751">
        <ele>1298.4</ele>
        <time>2017-04-22T09:22:36Z</time>
      </trkpt>
      <trkpt lat="45.39276" lon="5.77753">
        <ele>1301.28</ele>
        <time>2017-04-22T09:22:40Z</time>
      </trkpt>
      <trkpt lat="45.39281" lon="5.77765">
        <ele>1313.78</ele>
        <time>2017-04-22T09:22:51Z</time>
      </trkpt>
      <trkpt lat="45.39283" lon="5.77769">
        <ele>1316.66</ele>
        <time>2017-04-22T09:22:54Z</time>
      </trkpt>
      <trkpt lat="45.39284" lon="5.77772">
        <ele>1318.59</ele>
        <time>2017-04-22T09:22:56Z</time>
      </trkpt>
      <trkpt lat="45.39285" lon="5.77776">
        <ele>1320.99</ele>
        <time>2017-04-22T09:22:59Z</time>
      </trkpt>
      <trkpt lat="45.39287" lon="5.77778">
        <ele>1322.91</ele>
        <time>2017-04-22T09:23:01Z</time>
      </trkpt>
      <trkpt lat="45.39291" lon="5.77783">
        <ele>1327.72</ele>
        <time>2017-04-22T09:23:09Z</time>
      </trkpt>
      <trkpt lat="45.39302" lon="5.77795">
        <ele>1327.24</ele>
        <time>2017-04-22T09:23:19Z</time>
      </trkpt>
      <trkpt lat="45.39314" lon="5.77799">
        <ele>1325.31</ele>
        <time>2017-04-22T09:23:31Z</time>
      </trkpt>
      <trkpt lat="45.39322" lon="5.77808">
        <ele>1320.03</ele>
        <time>2017-04-22T09:23:38Z</time>
      </trkpt>
      <trkpt lat="45.39335" lon="5.77828">
        <ele>1304.65</ele>
        <time>2017-04-22T09:23:47Z</time>
      </trkpt>
      <trkpt lat="45.39336" lon="5.77829">
        <ele>1303.69</ele>
        <time>2017-04-22T09:23:48Z</time>
      </trkpt>
      <trkpt lat="45.39335" lon="5.77831">
        <ele>1303.69</ele>
        <time>2017-04-22T09:23:50Z</time>
      </trkpt>
      <trkpt lat="45.39328" lon="5.7784">
        <ele>1300.32</ele>
        <time>2017-04-22T09:24:00Z</time>
      </trkpt>
      <trkpt lat="45.39321" lon="5.77853">
        <ele>1297.44</ele>
        <time>2017-04-22T09:24:11Z</time>
      </trkpt>
      <trkpt lat="45.3932" lon="5.77856">
        <ele>1297.92</ele>
        <time>2017-04-22T09:24:13Z</time>
      </trkpt>
      <trkpt lat="45.39321" lon="5.77864">
        <ele>1301.28</ele>
        <time>2017-04-22T09:24:21Z</time>
      </trkpt>
      <trkpt lat="45.39326" lon="5.7787">
        <ele>1306.57</ele>
        <time>2017-04-22T09:24:28Z</time>
      </trkpt>
      <trkpt lat="45.39331" lon="5.77876">
        <ele>1310.9</ele>
        <time>2017-04-22T09:24:34Z</time>
      </trkpt>
      <trkpt lat="45.39321" lon="5.77891">
        <ele>1315.7</ele>
        <time>2017-04-22T09:24:45Z</time>
      </trkpt>
      <trkpt lat="45.39318" lon="5.77894">
        <ele>1317.14</ele>
        <time>2017-04-22T09:24:48Z</time>
      </trkpt>
      <trkpt lat="45.39309" lon="5.77908">
        <ele>1316.18</ele>
        <time>2017-04-22T09:25:00Z</time>
      </trkpt>
      <trkpt lat="45.39304" lon="5.7791">
        <ele>1317.14</ele>
        <time>2017-04-22T09:25:04Z</time>
      </trkpt>
      <trkpt lat="45.393" lon="5.77917">
        <ele>1317.62</ele>
        <time>2017-04-22T09:25:16Z</time>
      </trkpt>
      <trkpt lat="45.39299" lon="5.77916">
        <ele>1316.66</ele>
        <time>2017-04-22T09:25:22Z</time>
      </trkpt>
      <trkpt lat="45.39297" lon="5.77917">
        <ele>1316.18</ele>
        <time>2017-04-22T09:25:25Z</time>
      </trkpt>
      <trkpt lat="45.39297" lon="5.77919">
        <ele>1317.62</ele>
        <time>2017-04-22T09:25:27Z</time>
      </trkpt>
      <trkpt lat="45.3929" lon="5.77924">
        <ele>1322.43</ele>
        <time>2017-04-22T09:25:36Z</time>
      </trkpt>
      <trkpt lat="45.39281" lon="5.77928">
        <ele>1322.43</ele>
        <time>2017-04-22T09:25:46Z</time>
      </trkpt>
      <trkpt lat="45.39272" lon="5.77935">
        <ele>1321.47</ele>
        <time>2017-04-22T09:25:55Z</time>
      </trkpt>
      <trkpt lat="45.39259" lon="5.77949">
        <ele>1323.87</ele>
        <time>2017-04-22T09:26:08Z</time>
      </trkpt>
      <trkpt lat="45.39251" lon="5.77967">
        <ele>1324.35</ele>
        <time>2017-04-22T09:26:19Z</time>
      </trkpt>
      <trkpt lat="45.39245" lon="5.77977">
        <ele>1330.12</ele>
        <time>2017-04-22T09:26:31Z</time>
      </trkpt>
      <trkpt lat="45.39244" lon="5.77982">
        <ele>1332.04</ele>
        <time>2017-04-22T09:26:36Z</time>
      </trkpt>
      <trkpt lat="45.39243" lon="5.78003">
        <ele>1331.08</ele>
        <time>2017-04-22T09:26:48Z</time>
      </trkpt>
      <trkpt lat="45.39246" lon="5.78022">
        <ele>1313.78</ele>
        <time>2017-04-22T09:26:57Z</time>
      </trkpt>
      <trkpt lat="45.39242" lon="5.78027">
        <ele>1311.38</ele>
        <time>2017-04-22T09:27:03Z</time>
      </trkpt>
      <trkpt lat="45.39235" lon="5.78036">
        <ele>1308.49</ele>
        <time>2017-04-22T09:27:10Z</time>
      </trkpt>
      <trkpt lat="45.3923" lon="5.78042">
        <ele>1306.09</ele>
        <time>2017-04-22T09:27:15Z</time>
      </trkpt>
      <trkpt lat="45.39223" lon="5.78046">
        <ele>1306.09</ele>
        <time>2017-04-22T09:27:21Z</time>
      </trkpt>
      <trkpt lat="45.39216" lon="5.78056">
        <ele>1302.72</ele>
        <time>2017-04-22T09:27:31Z</time>
      </trkpt>
      <trkpt lat="45.39211" lon="5.78061">
        <ele>1301.76</ele>
        <time>2017-04-22T09:27:35Z</time>
      </trkpt>
      <trkpt lat="45.39208" lon="5.78065">
        <ele>1301.76</ele>
        <time>2017-04-22T09:27:38Z</time>
      </trkpt>
      <trkpt lat="45.39202" lon="5.78072">
        <ele>1302.72</ele>
        <time>2017-04-22T09:27:46Z</time>
      </trkpt>
      <trkpt lat="45.39198" lon="5.78085">
        <ele>1306.57</ele>
        <time>2017-04-22T09:27:56Z</time>
      </trkpt>
      <trkpt lat="45.39196" lon="5.78101">
        <ele>1305.61</ele>
        <time>2017-04-22T09:28:02Z</time>
      </trkpt>
      <trkpt lat="45.39195" lon="5.78104">
        <ele>1305.61</ele>
        <time>2017-04-22T09:28:03Z</time>
      </trkpt>
      <trkpt lat="45.39195" lon="5.78108">
        <ele>1305.61</ele>
        <time>2017-04-22T09:28:04Z</time>
      </trkpt>
      <trkpt lat="45.39195" lon="5.78111">
        <ele>1305.13</ele>
        <time>2017-04-22T09:28:05Z</time>
      </trkpt>
      <trkpt lat="45.39194" lon="5.78113">
        <ele>1305.13</ele>
        <time>2017-04-22T09:28:06Z</time>
      </trkpt>
      <trkpt lat="45.39193" lon="5.78115">
        <ele>1305.13</ele>
        <time>2017-04-22T09:28:07Z</time>
      </trkpt>
      <trkpt lat="45.39191" lon="5.78118">
        <ele>1304.65</ele>
        <time>2017-04-22T09:28:08Z</time>
      </trkpt>
      <trkpt lat="45.3919" lon="5.78121">
        <ele>1304.65</ele>
        <time>2017-04-22T09:28:09Z</time>
      </trkpt>
      <trkpt lat="45.39189" lon="5.78123">
        <ele>1304.17</ele>
        <time>2017-04-22T09:28:10Z</time>
      </trkpt>
      <trkpt lat="45.39189" lon="5.78125">
        <ele>1304.65</ele>
        <time>2017-04-22T09:28:11Z</time>
      </trkpt>
      <trkpt lat="45.39188" lon="5.78127">
        <ele>1304.65</ele>
        <time>2017-04-22T09:28:12Z</time>
      </trkpt>
      <trkpt lat="45.39188" lon="5.78129">
        <ele>1304.65</ele>
        <time>2017-04-22T09:28:13Z</time>
      </trkpt>
      <trkpt lat="45.39185" lon="5.78133">
        <ele>1304.65</ele>
        <time>2017-04-22T09:28:16Z</time>
      </trkpt>
      <trkpt lat="45.39173" lon="5.78152">
        <ele>1305.61</ele>
        <time>2017-04-22T09:28:28Z</time>
      </trkpt>
      <trkpt lat="45.3917" lon="5.78156">
        <ele>1306.09</ele>
        <time>2017-04-22T09:28:30Z</time>
      </trkpt>
      <trkpt lat="45.39171" lon="5.78187">
        <ele>1303.2</ele>
        <time>2017-04-22T09:28:40Z</time>
      </trkpt>
      <trkpt lat="45.39172" lon="5.7819">
        <ele>1302.72</ele>
        <time>2017-04-22T09:28:41Z</time>
      </trkpt>
      <trkpt lat="45.39181" lon="5.78219">
        <ele>1293.11</ele>
        <time>2017-04-22T09:28:51Z</time>
      </trkpt>
      <trkpt lat="45.39183" lon="5.78221">
        <ele>1292.15</ele>
        <time>2017-04-22T09:28:52Z</time>
      </trkpt>
      <trkpt lat="45.39184" lon="5.78223">
        <ele>1291.67</ele>
        <time>2017-04-22T09:28:53Z</time>
      </trkpt>
      <trkpt lat="45.39185" lon="5.78226">
        <ele>1290.71</ele>
        <time>2017-04-22T09:28:54Z</time>
      </trkpt>
      <trkpt lat="45.39186" lon="5.78229">
        <ele>1290.23</ele>
        <time>2017-04-22T09:28:55Z</time>
      </trkpt>
      <trkpt lat="45.39193" lon="5.78257">
        <ele>1281.57</ele>
        <time>2017-04-22T09:29:07Z</time>
      </trkpt>
      <trkpt lat="45.39192" lon="5.78259">
        <ele>1282.06</ele>
        <time>2017-04-22T09:29:09Z</time>
      </trkpt>
      <trkpt lat="45.39181" lon="5.78275">
        <ele>1282.06</ele>
        <time>2017-04-22T09:29:18Z</time>
      </trkpt>
      <trkpt lat="45.39179" lon="5.78279">
        <ele>1281.57</ele>
        <time>2017-04-22T09:29:20Z</time>
      </trkpt>
      <trkpt lat="45.39178" lon="5.78283">
        <ele>1280.13</ele>
        <time>2017-04-22T09:29:22Z</time>
      </trkpt>
      <trkpt lat="45.39177" lon="5.7828">
        <ele>1268.12</ele>
        <time>2017-04-22T09:29:30Z</time>
      </trkpt>
      <trkpt lat="45.39176" lon="5.78274">
        <ele>1267.16</ele>
        <time>2017-04-22T09:29:33Z</time>
      </trkpt>
      <trkpt lat="45.39168" lon="5.78261">
        <ele>1269.08</ele>
        <time>2017-04-22T09:29:46Z</time>
      </trkpt>
      <trkpt lat="45.39166" lon="5.78261">
        <ele>1268.12</ele>
        <time>2017-04-22T09:29:53Z</time>
      </trkpt>
      <trkpt lat="45.39166" lon="5.78263">
        <ele>1268.12</ele>
        <time>2017-04-22T09:29:55Z</time>
      </trkpt>
      <trkpt lat="45.39167" lon="5.78264">
        <ele>1267.64</ele>
        <time>2017-04-22T09:29:56Z</time>
      </trkpt>
      <trkpt lat="45.39167" lon="5.78267">
        <ele>1267.64</ele>
        <time>2017-04-22T09:29:57Z</time>
      </trkpt>
      <trkpt lat="45.39168" lon="5.78269">
        <ele>1267.16</ele>
        <time>2017-04-22T09:29:58Z</time>
      </trkpt>
      <trkpt lat="45.39168" lon="5.78271">
        <ele>1266.67</ele>
        <time>2017-04-22T09:29:59Z</time>
      </trkpt>
      <trkpt lat="45.3917" lon="5.78283">
        <ele>1266.19</ele>
        <time>2017-04-22T09:30:04Z</time>
      </trkpt>
      <trkpt lat="45.39171" lon="5.78285">
        <ele>1266.19</ele>
        <time>2017-04-22T09:30:05Z</time>
      </trkpt>
      <trkpt lat="45.39171" lon="5.78287">
        <ele>1266.19</ele>
        <time>2017-04-22T09:30:06Z</time>
      </trkpt>
      <trkpt lat="45.39172" lon="5.7829">
        <ele>1265.71</ele>
        <time>2017-04-22T09:30:07Z</time>
      </trkpt>
      <trkpt lat="45.39172" lon="5.78293">
        <ele>1265.71</ele>
        <time>2017-04-22T09:30:08Z</time>
      </trkpt>
      <trkpt lat="45.3918" lon="5.78325">
        <ele>1263.79</ele>
        <time>2017-04-22T09:30:20Z</time>
      </trkpt>
      <trkpt lat="45.392" lon="5.78338">
        <ele>1260.43</ele>
        <time>2017-04-22T09:30:31Z</time>
      </trkpt>
      <trkpt lat="45.39221" lon="5.7834">
        <ele>1263.31</ele>
        <time>2017-04-22T09:30:43Z</time>
      </trkpt>
      <trkpt lat="45.39248" lon="5.78344">
        <ele>1268.12</ele>
        <time>2017-04-22T09:30:58Z</time>
      </trkpt>
      <trkpt lat="45.39254" lon="5.78344">
        <ele>1269.08</ele>
        <time>2017-04-22T09:31:02Z</time>
      </trkpt>
      <trkpt lat="45.39256" lon="5.78344">
        <ele>1269.56</ele>
        <time>2017-04-22T09:31:03Z</time>
      </trkpt>
      <trkpt lat="45.39258" lon="5.78344">
        <ele>1269.56</ele>
        <time>2017-04-22T09:31:04Z</time>
      </trkpt>
      <trkpt lat="45.3926" lon="5.78345">
        <ele>1270.04</ele>
        <time>2017-04-22T09:31:05Z</time>
      </trkpt>
      <trkpt lat="45.39262" lon="5.78345">
        <ele>1270.04</ele>
        <time>2017-04-22T09:31:06Z</time>
      </trkpt>
      <trkpt lat="45.39263" lon="5.78345">
        <ele>1270.52</ele>
        <time>2017-04-22T09:31:07Z</time>
      </trkpt>
      <trkpt lat="45.39265" lon="5.78345">
        <ele>1270.52</ele>
        <time>2017-04-22T09:31:08Z</time>
      </trkpt>
      <trkpt lat="45.39266" lon="5.78346">
        <ele>1271</ele>
        <time>2017-04-22T09:31:09Z</time>
      </trkpt>
      <trkpt lat="45.39267" lon="5.78348">
        <ele>1271</ele>
        <time>2017-04-22T09:31:10Z</time>
      </trkpt>
      <trkpt lat="45.39268" lon="5.78349">
        <ele>1271.48</ele>
        <time>2017-04-22T09:31:11Z</time>
      </trkpt>
      <trkpt lat="45.39268" lon="5.78351">
        <ele>1271.48</ele>
        <time>2017-04-22T09:31:12Z</time>
      </trkpt>
      <trkpt lat="45.39269" lon="5.78353">
        <ele>1270.52</ele>
        <time>2017-04-22T09:31:13Z</time>
      </trkpt>
      <trkpt lat="45.39269" lon="5.78354">
        <ele>1269.56</ele>
        <time>2017-04-22T09:31:14Z</time>
      </trkpt>
      <trkpt lat="45.3927" lon="5.78356">
        <ele>1268.6</ele>
        <time>2017-04-22T09:31:15Z</time>
      </trkpt>
      <trkpt lat="45.3927" lon="5.78358">
        <ele>1268.12</ele>
        <time>2017-04-22T09:31:16Z</time>
      </trkpt>
      <trkpt lat="45.3927" lon="5.7836">
        <ele>1268.12</ele>
        <time>2017-04-22T09:31:17Z</time>
      </trkpt>
      <trkpt lat="45.3927" lon="5.78361">
        <ele>1267.64</ele>
        <time>2017-04-22T09:31:18Z</time>
      </trkpt>
      <trkpt lat="45.3927" lon="5.78365">
        <ele>1267.64</ele>
        <time>2017-04-22T09:31:20Z</time>
      </trkpt>
      <trkpt lat="45.39272" lon="5.78376">
        <ele>1268.12</ele>
        <time>2017-04-22T09:31:27Z</time>
      </trkpt>
      <trkpt lat="45.39276" lon="5.78391">
        <ele>1273.4</ele>
        <time>2017-04-22T09:31:39Z</time>
      </trkpt>
      <trkpt lat="45.39281" lon="5.78408">
        <ele>1280.61</ele>
        <time>2017-04-22T09:31:50Z</time>
      </trkpt>
      <trkpt lat="45.3928" lon="5.78423">
        <ele>1285.9</ele>
        <time>2017-04-22T09:32:02Z</time>
      </trkpt>
      <trkpt lat="45.39278" lon="5.78438">
        <ele>1288.78</ele>
        <time>2017-04-22T09:32:15Z</time>
      </trkpt>
      <trkpt lat="45.39276" lon="5.78446">
        <ele>1288.78</ele>
        <time>2017-04-22T09:32:21Z</time>
      </trkpt>
      <trkpt lat="45.39275" lon="5.78448">
        <ele>1288.78</ele>
        <time>2017-04-22T09:32:22Z</time>
      </trkpt>
      <trkpt lat="45.39274" lon="5.78449">
        <ele>1288.78</ele>
        <time>2017-04-22T09:32:23Z</time>
      </trkpt>
      <trkpt lat="45.3927" lon="5.78462">
        <ele>1287.82</ele>
        <time>2017-04-22T09:32:31Z</time>
      </trkpt>
      <trkpt lat="45.39268" lon="5.78469">
        <ele>1287.34</ele>
        <time>2017-04-22T09:32:36Z</time>
      </trkpt>
      <trkpt lat="45.39265" lon="5.78475">
        <ele>1287.82</ele>
        <time>2017-04-22T09:32:38Z</time>
      </trkpt>
      <trkpt lat="45.39264" lon="5.78478">
        <ele>1288.3</ele>
        <time>2017-04-22T09:32:39Z</time>
      </trkpt>
      <trkpt lat="45.39264" lon="5.7848">
        <ele>1288.3</ele>
        <time>2017-04-22T09:32:40Z</time>
      </trkpt>
      <trkpt lat="45.39264" lon="5.78488">
        <ele>1289.27</ele>
        <time>2017-04-22T09:32:44Z</time>
      </trkpt>
      <trkpt lat="45.39261" lon="5.785">
        <ele>1291.19</ele>
        <time>2017-04-22T09:32:53Z</time>
      </trkpt>
      <trkpt lat="45.3926" lon="5.78502">
        <ele>1292.15</ele>
        <time>2017-04-22T09:32:55Z</time>
      </trkpt>
      <trkpt lat="45.39255" lon="5.78519">
        <ele>1297.92</ele>
        <time>2017-04-22T09:33:05Z</time>
      </trkpt>
      <trkpt lat="45.39255" lon="5.78522">
        <ele>1298.4</ele>
        <time>2017-04-22T09:33:07Z</time>
      </trkpt>
      <trkpt lat="45.39258" lon="5.78534">
        <ele>1299.36</ele>
        <time>2017-04-22T09:33:14Z</time>
      </trkpt>
      <trkpt lat="45.39259" lon="5.78542">
        <ele>1299.36</ele>
        <time>2017-04-22T09:33:19Z</time>
      </trkpt>
      <trkpt lat="45.39262" lon="5.78549">
        <ele>1298.88</ele>
        <time>2017-04-22T09:33:26Z</time>
      </trkpt>
      <trkpt lat="45.39263" lon="5.78554">
        <ele>1299.36</ele>
        <time>2017-04-22T09:33:29Z</time>
      </trkpt>
      <trkpt lat="45.39267" lon="5.7859">
        <ele>1297.44</ele>
        <time>2017-04-22T09:33:45Z</time>
      </trkpt>
      <trkpt lat="45.39269" lon="5.78595">
        <ele>1296.48</ele>
        <time>2017-04-22T09:33:47Z</time>
      </trkpt>
      <trkpt lat="45.39276" lon="5.78604">
        <ele>1296.48</ele>
        <time>2017-04-22T09:33:53Z</time>
      </trkpt>
      <trkpt lat="45.3928" lon="5.78608">
        <ele>1296.96</ele>
        <time>2017-04-22T09:33:56Z</time>
      </trkpt>
      <trkpt lat="45.39298" lon="5.78617">
        <ele>1295.03</ele>
        <time>2017-04-22T09:34:07Z</time>
      </trkpt>
      <trkpt lat="45.39306" lon="5.78624">
        <ele>1291.19</ele>
        <time>2017-04-22T09:34:11Z</time>
      </trkpt>
      <trkpt lat="45.39313" lon="5.7863">
        <ele>1292.15</ele>
        <time>2017-04-22T09:34:18Z</time>
      </trkpt>
      <trkpt lat="45.39318" lon="5.78633">
        <ele>1293.59</ele>
        <time>2017-04-22T09:34:22Z</time>
      </trkpt>
      <trkpt lat="45.39319" lon="5.78638">
        <ele>1295.99</ele>
        <time>2017-04-22T09:34:27Z</time>
      </trkpt>
      <trkpt lat="45.39324" lon="5.78645">
        <ele>1297.44</ele>
        <time>2017-04-22T09:34:32Z</time>
      </trkpt>
      <trkpt lat="45.39333" lon="5.7866">
        <ele>1296.96</ele>
        <time>2017-04-22T09:34:40Z</time>
      </trkpt>
      <trkpt lat="45.39342" lon="5.78682">
        <ele>1294.07</ele>
        <time>2017-04-22T09:34:51Z</time>
      </trkpt>
      <trkpt lat="45.39343" lon="5.78684">
        <ele>1294.55</ele>
        <time>2017-04-22T09:34:52Z</time>
      </trkpt>
      <trkpt lat="45.39343" lon="5.78686">
        <ele>1294.55</ele>
        <time>2017-04-22T09:34:53Z</time>
      </trkpt>
      <trkpt lat="45.39344" lon="5.78689">
        <ele>1295.03</ele>
        <time>2017-04-22T09:34:54Z</time>
      </trkpt>
      <trkpt lat="45.39344" lon="5.78691">
        <ele>1295.03</ele>
        <time>2017-04-22T09:34:55Z</time>
      </trkpt>
      <trkpt lat="45.39344" lon="5.78693">
        <ele>1295.51</ele>
        <time>2017-04-22T09:34:56Z</time>
      </trkpt>
      <trkpt lat="45.39344" lon="5.78695">
        <ele>1295.99</ele>
        <time>2017-04-22T09:34:57Z</time>
      </trkpt>
      <trkpt lat="45.39344" lon="5.78697">
        <ele>1296.48</ele>
        <time>2017-04-22T09:34:58Z</time>
      </trkpt>
      <trkpt lat="45.39344" lon="5.787">
        <ele>1296.96</ele>
        <time>2017-04-22T09:34:59Z</time>
      </trkpt>
      <trkpt lat="45.39343" lon="5.78704">
        <ele>1298.4</ele>
        <time>2017-04-22T09:35:01Z</time>
      </trkpt>
      <trkpt lat="45.39338" lon="5.7872">
        <ele>1299.84</ele>
        <time>2017-04-22T09:35:08Z</time>
      </trkpt>
      <trkpt lat="45.39335" lon="5.78739">
        <ele>1297.44</ele>
        <time>2017-04-22T09:35:19Z</time>
      </trkpt>
      <trkpt lat="45.39335" lon="5.78741">
        <ele>1296.96</ele>
        <time>2017-04-22T09:35:20Z</time>
      </trkpt>
      <trkpt lat="45.39342" lon="5.78767">
        <ele>1293.59</ele>
        <time>2017-04-22T09:35:34Z</time>
      </trkpt>
      <trkpt lat="45.39353" lon="5.78786">
        <ele>1290.71</ele>
        <time>2017-04-22T09:35:46Z</time>
      </trkpt>
      <trkpt lat="45.3936" lon="5.78792">
        <ele>1292.63</ele>
        <time>2017-04-22T09:35:56Z</time>
      </trkpt>
      <trkpt lat="45.39367" lon="5.78797">
        <ele>1297.44</ele>
        <time>2017-04-22T09:36:07Z</time>
      </trkpt>
      <trkpt lat="45.39369" lon="5.78805">
        <ele>1303.2</ele>
        <time>2017-04-22T09:36:19Z</time>
      </trkpt>
      <trkpt lat="45.39376" lon="5.78811">
        <ele>1301.76</ele>
        <time>2017-04-22T09:36:31Z</time>
      </trkpt>
      <trkpt lat="45.39383" lon="5.78812">
        <ele>1305.61</ele>
        <time>2017-04-22T09:36:38Z</time>
      </trkpt>
      <trkpt lat="45.39392" lon="5.78815">
        <ele>1306.09</ele>
        <time>2017-04-22T09:36:45Z</time>
      </trkpt>
      <trkpt lat="45.39397" lon="5.78816">
        <ele>1306.57</ele>
        <time>2017-04-22T09:36:49Z</time>
      </trkpt>
      <trkpt lat="45.39412" lon="5.78823">
        <ele>1317.14</ele>
        <time>2017-04-22T09:37:04Z</time>
      </trkpt>
      <trkpt lat="45.39426" lon="5.78827">
        <ele>1321.47</ele>
        <time>2017-04-22T09:37:16Z</time>
      </trkpt>
      <trkpt lat="45.39437" lon="5.78828">
        <ele>1320.51</ele>
        <time>2017-04-22T09:37:24Z</time>
      </trkpt>
      <trkpt lat="45.39458" lon="5.78835">
        <ele>1322.43</ele>
        <time>2017-04-22T09:37:40Z</time>
      </trkpt>
      <trkpt lat="45.39461" lon="5.78835">
        <ele>1323.87</ele>
        <time>2017-04-22T09:37:43Z</time>
      </trkpt>
      <trkpt lat="45.39471" lon="5.78836">
        <ele>1325.8</ele>
        <time>2017-04-22T09:37:57Z</time>
      </trkpt>
      <trkpt lat="45.39484" lon="5.78836">
        <ele>1329.64</ele>
        <time>2017-04-22T09:38:12Z</time>
      </trkpt>
      <trkpt lat="45.3949" lon="5.78836">
        <ele>1330.6</ele>
        <time>2017-04-22T09:38:17Z</time>
      </trkpt>
      <trkpt lat="45.39506" lon="5.78849">
        <ele>1332.52</ele>
        <time>2017-04-22T09:38:29Z</time>
      </trkpt>
      <trkpt lat="45.3951" lon="5.78851">
        <ele>1332.52</ele>
        <time>2017-04-22T09:38:33Z</time>
      </trkpt>
      <trkpt lat="45.39524" lon="5.78859">
        <ele>1335.41</ele>
        <time>2017-04-22T09:38:46Z</time>
      </trkpt>
      <trkpt lat="45.39533" lon="5.78866">
        <ele>1337.81</ele>
        <time>2017-04-22T09:38:55Z</time>
      </trkpt>
      <trkpt lat="45.39546" lon="5.78876">
        <ele>1336.37</ele>
        <time>2017-04-22T09:39:02Z</time>
      </trkpt>
      <trkpt lat="45.39549" lon="5.78879">
        <ele>1335.41</ele>
        <time>2017-04-22T09:39:05Z</time>
      </trkpt>
      <trkpt lat="45.3956" lon="5.78887">
        <ele>1333.97</ele>
        <time>2017-04-22T09:39:12Z</time>
      </trkpt>
      <trkpt lat="45.39575" lon="5.78904">
        <ele>1332.52</ele>
        <time>2017-04-22T09:39:24Z</time>
      </trkpt>
      <trkpt lat="45.39587" lon="5.78916">
        <ele>1333.01</ele>
        <time>2017-04-22T09:39:35Z</time>
      </trkpt>
      <trkpt lat="45.39604" lon="5.78921">
        <ele>1340.7</ele>
        <time>2017-04-22T09:39:49Z</time>
      </trkpt>
      <trkpt lat="45.39613" lon="5.7893">
        <ele>1346.46</ele>
        <time>2017-04-22T09:40:00Z</time>
      </trkpt>
      <trkpt lat="45.39625" lon="5.7893">
        <ele>1353.67</ele>
        <time>2017-04-22T09:40:12Z</time>
      </trkpt>
      <trkpt lat="45.39626" lon="5.78929">
        <ele>1354.63</ele>
        <time>2017-04-22T09:40:13Z</time>
      </trkpt>
      <trkpt lat="45.39631" lon="5.78941">
        <ele>1348.39</ele>
        <time>2017-04-22T09:40:25Z</time>
      </trkpt>
      <trkpt lat="45.39645" lon="5.78952">
        <ele>1345.02</ele>
        <time>2017-04-22T09:40:38Z</time>
      </trkpt>
      <trkpt lat="45.3966" lon="5.78961">
        <ele>1342.62</ele>
        <time>2017-04-22T09:40:52Z</time>
      </trkpt>
      <trkpt lat="45.39674" lon="5.78967">
        <ele>1342.62</ele>
        <time>2017-04-22T09:41:04Z</time>
      </trkpt>
      <trkpt lat="45.39686" lon="5.78974">
        <ele>1342.62</ele>
        <time>2017-04-22T09:41:16Z</time>
      </trkpt>
      <trkpt lat="45.39689" lon="5.78977">
        <ele>1344.06</ele>
        <time>2017-04-22T09:41:19Z</time>
      </trkpt>
      <trkpt lat="45.39703" lon="5.78978">
        <ele>1349.83</ele>
        <time>2017-04-22T09:41:32Z</time>
      </trkpt>
      <trkpt lat="45.39719" lon="5.78984">
        <ele>1355.12</ele>
        <time>2017-04-22T09:41:45Z</time>
      </trkpt>
      <trkpt lat="45.39726" lon="5.78989">
        <ele>1358</ele>
        <time>2017-04-22T09:41:55Z</time>
      </trkpt>
      <trkpt lat="45.39726" lon="5.78986">
        <ele>1360.4</ele>
        <time>2017-04-22T09:42:00Z</time>
      </trkpt>
      <trkpt lat="45.39724" lon="5.78991">
        <ele>1363.29</ele>
        <time>2017-04-22T09:42:06Z</time>
      </trkpt>
      <trkpt lat="45.39732" lon="5.79">
        <ele>1362.81</ele>
        <time>2017-04-22T09:42:18Z</time>
      </trkpt>
      <trkpt lat="45.39743" lon="5.79011">
        <ele>1362.33</ele>
        <time>2017-04-22T09:42:32Z</time>
      </trkpt>
      <trkpt lat="45.39752" lon="5.7902">
        <ele>1360.4</ele>
        <time>2017-04-22T09:42:41Z</time>
      </trkpt>
      <trkpt lat="45.39763" lon="5.7903">
        <ele>1358.96</ele>
        <time>2017-04-22T09:42:52Z</time>
      </trkpt>
      <trkpt lat="45.39775" lon="5.79041">
        <ele>1359.44</ele>
        <time>2017-04-22T09:43:03Z</time>
      </trkpt>
      <trkpt lat="45.39788" lon="5.79051">
        <ele>1362.81</ele>
        <time>2017-04-22T09:43:16Z</time>
      </trkpt>
      <trkpt lat="45.39794" lon="5.79057">
        <ele>1368.09</ele>
        <time>2017-04-22T09:43:24Z</time>
      </trkpt>
      <trkpt lat="45.39798" lon="5.7906">
        <ele>1368.09</ele>
        <time>2017-04-22T09:43:27Z</time>
      </trkpt>
      <trkpt lat="45.39812" lon="5.79072">
        <ele>1360.4</ele>
        <time>2017-04-22T09:43:38Z</time>
      </trkpt>
      <trkpt lat="45.39813" lon="5.79074">
        <ele>1358.48</ele>
        <time>2017-04-22T09:43:39Z</time>
      </trkpt>
      <trkpt lat="45.3981" lon="5.79082">
        <ele>1354.15</ele>
        <time>2017-04-22T09:43:44Z</time>
      </trkpt>
      <trkpt lat="45.39806" lon="5.7909">
        <ele>1353.19</ele>
        <time>2017-04-22T09:43:49Z</time>
      </trkpt>
      <trkpt lat="45.398" lon="5.79101">
        <ele>1353.67</ele>
        <time>2017-04-22T09:43:57Z</time>
      </trkpt>
      <trkpt lat="45.3979" lon="5.79115">
        <ele>1355.12</ele>
        <time>2017-04-22T09:44:10Z</time>
      </trkpt>
      <trkpt lat="45.39783" lon="5.79129">
        <ele>1360.4</ele>
        <time>2017-04-22T09:44:22Z</time>
      </trkpt>
      <trkpt lat="45.39772" lon="5.79158">
        <ele>1362.81</ele>
        <time>2017-04-22T09:44:33Z</time>
      </trkpt>
      <trkpt lat="45.3977" lon="5.79162">
        <ele>1362.81</ele>
        <time>2017-04-22T09:44:35Z</time>
      </trkpt>
      <trkpt lat="45.3976" lon="5.79182">
        <ele>1360.88</ele>
        <time>2017-04-22T09:44:46Z</time>
      </trkpt>
      <trkpt lat="45.39756" lon="5.79189">
        <ele>1359.92</ele>
        <time>2017-04-22T09:44:51Z</time>
      </trkpt>
      <trkpt lat="45.39755" lon="5.79195">
        <ele>1359.44</ele>
        <time>2017-04-22T09:44:55Z</time>
      </trkpt>
      <trkpt lat="45.39752" lon="5.79204">
        <ele>1360.4</ele>
        <time>2017-04-22T09:45:08Z</time>
      </trkpt>
      <trkpt lat="45.39748" lon="5.79229">
        <ele>1360.4</ele>
        <time>2017-04-22T09:45:19Z</time>
      </trkpt>
      <trkpt lat="45.39739" lon="5.79233">
        <ele>1362.81</ele>
        <time>2017-04-22T09:45:32Z</time>
      </trkpt>
      <trkpt lat="45.3973" lon="5.79238">
        <ele>1367.61</ele>
        <time>2017-04-22T09:45:43Z</time>
      </trkpt>
      <trkpt lat="45.39718" lon="5.79238">
        <ele>1370.02</ele>
        <time>2017-04-22T09:45:57Z</time>
      </trkpt>
      <trkpt lat="45.39715" lon="5.79236">
        <ele>1370.98</ele>
        <time>2017-04-22T09:46:01Z</time>
      </trkpt>
      <trkpt lat="45.39701" lon="5.79238">
        <ele>1367.61</ele>
        <time>2017-04-22T09:46:12Z</time>
      </trkpt>
      <trkpt lat="45.39696" lon="5.79252">
        <ele>1365.21</ele>
        <time>2017-04-22T09:46:24Z</time>
      </trkpt>
      <trkpt lat="45.39694" lon="5.79262">
        <ele>1366.17</ele>
        <time>2017-04-22T09:46:35Z</time>
      </trkpt>
      <trkpt lat="45.39693" lon="5.79269">
        <ele>1367.13</ele>
        <time>2017-04-22T09:46:40Z</time>
      </trkpt>
      <trkpt lat="45.39689" lon="5.79277">
        <ele>1368.57</ele>
        <time>2017-04-22T09:46:51Z</time>
      </trkpt>
      <trkpt lat="45.39685" lon="5.79283">
        <ele>1369.05</ele>
        <time>2017-04-22T09:46:56Z</time>
      </trkpt>
      <trkpt lat="45.39675" lon="5.79294">
        <ele>1370.98</ele>
        <time>2017-04-22T09:47:10Z</time>
      </trkpt>
      <trkpt lat="45.39671" lon="5.79297">
        <ele>1371.94</ele>
        <time>2017-04-22T09:47:15Z</time>
      </trkpt>
      <trkpt lat="45.39664" lon="5.793">
        <ele>1374.82</ele>
        <time>2017-04-22T09:47:27Z</time>
      </trkpt>
      <trkpt lat="45.39652" lon="5.793">
        <ele>1379.15</ele>
        <time>2017-04-22T09:47:40Z</time>
      </trkpt>
      <trkpt lat="45.39644" lon="5.79297">
        <ele>1383.47</ele>
        <time>2017-04-22T09:47:52Z</time>
      </trkpt>
      <trkpt lat="45.39642" lon="5.79283">
        <ele>1393.57</ele>
        <time>2017-04-22T09:48:04Z</time>
      </trkpt>
      <trkpt lat="45.39646" lon="5.7927">
        <ele>1409.43</ele>
        <time>2017-04-22T09:48:15Z</time>
      </trkpt>
      <trkpt lat="45.3964" lon="5.79257">
        <ele>1424.33</ele>
        <time>2017-04-22T09:48:26Z</time>
      </trkpt>
      <trkpt lat="45.3964" lon="5.79245">
        <ele>1427.21</ele>
        <time>2017-04-22T09:48:35Z</time>
      </trkpt>
      <trkpt lat="45.39618" lon="5.7922">
        <ele>1416.64</ele>
        <time>2017-04-22T09:48:48Z</time>
      </trkpt>
      <trkpt lat="45.39616" lon="5.79217">
        <ele>1416.64</ele>
        <time>2017-04-22T09:48:51Z</time>
      </trkpt>
      <trkpt lat="45.39603" lon="5.79202">
        <ele>1413.76</ele>
        <time>2017-04-22T09:49:03Z</time>
      </trkpt>
      <trkpt lat="45.39601" lon="5.79196">
        <ele>1411.83</ele>
        <time>2017-04-22T09:49:07Z</time>
      </trkpt>
      <trkpt lat="45.39596" lon="5.79194">
        <ele>1411.35</ele>
        <time>2017-04-22T09:49:12Z</time>
      </trkpt>
      <trkpt lat="45.39572" lon="5.79179">
        <ele>1403.18</ele>
        <time>2017-04-22T09:49:27Z</time>
      </trkpt>
      <trkpt lat="45.39571" lon="5.79178">
        <ele>1402.7</ele>
        <time>2017-04-22T09:49:28Z</time>
      </trkpt>
      <trkpt lat="45.39567" lon="5.79175">
        <ele>1403.66</ele>
        <time>2017-04-22T09:49:32Z</time>
      </trkpt>
      <trkpt lat="45.39562" lon="5.79168">
        <ele>1406.07</ele>
        <time>2017-04-22T09:49:41Z</time>
      </trkpt>
      <trkpt lat="45.39548" lon="5.79152">
        <ele>1411.83</ele>
        <time>2017-04-22T09:49:55Z</time>
      </trkpt>
      <trkpt lat="45.39548" lon="5.79151">
        <ele>1412.79</ele>
        <time>2017-04-22T09:49:56Z</time>
      </trkpt>
      <trkpt lat="45.39547" lon="5.79147">
        <ele>1415.68</ele>
        <time>2017-04-22T09:49:59Z</time>
      </trkpt>
      <trkpt lat="45.39542" lon="5.79134">
        <ele>1426.73</ele>
        <time>2017-04-22T09:50:09Z</time>
      </trkpt>
      <trkpt lat="45.39536" lon="5.7913">
        <ele>1428.18</ele>
        <time>2017-04-22T09:50:13Z</time>
      </trkpt>
      <trkpt lat="45.39524" lon="5.79113">
        <ele>1427.7</ele>
        <time>2017-04-22T09:50:25Z</time>
      </trkpt>
      <trkpt lat="45.39501" lon="5.7911">
        <ele>1427.21</ele>
        <time>2017-04-22T09:50:38Z</time>
      </trkpt>
      <trkpt lat="45.39489" lon="5.7911">
        <ele>1428.18</ele>
        <time>2017-04-22T09:50:46Z</time>
      </trkpt>
      <trkpt lat="45.39475" lon="5.79103">
        <ele>1423.85</ele>
        <time>2017-04-22T09:50:55Z</time>
      </trkpt>
      <trkpt lat="45.39459" lon="5.79093">
        <ele>1417.6</ele>
        <time>2017-04-22T09:51:07Z</time>
      </trkpt>
      <trkpt lat="45.39454" lon="5.79092">
        <ele>1416.16</ele>
        <time>2017-04-22T09:51:10Z</time>
      </trkpt>
      <trkpt lat="45.39444" lon="5.79088">
        <ele>1415.68</ele>
        <time>2017-04-22T09:51:19Z</time>
      </trkpt>
      <trkpt lat="45.39422" lon="5.79088">
        <ele>1412.79</ele>
        <time>2017-04-22T09:51:32Z</time>
      </trkpt>
      <trkpt lat="45.3941" lon="5.79089">
        <ele>1411.83</ele>
        <time>2017-04-22T09:51:40Z</time>
      </trkpt>
      <trkpt lat="45.39394" lon="5.79096">
        <ele>1407.51</ele>
        <time>2017-04-22T09:51:47Z</time>
      </trkpt>
      <trkpt lat="45.39392" lon="5.79101">
        <ele>1406.55</ele>
        <time>2017-04-22T09:51:49Z</time>
      </trkpt>
      <trkpt lat="45.39387" lon="5.79139">
        <ele>1403.18</ele>
        <time>2017-04-22T09:52:06Z</time>
      </trkpt>
      <trkpt lat="45.39386" lon="5.79143">
        <ele>1402.22</ele>
        <time>2017-04-22T09:52:08Z</time>
      </trkpt>
      <trkpt lat="45.39383" lon="5.79165">
        <ele>1404.14</ele>
        <time>2017-04-22T09:52:20Z</time>
      </trkpt>
      <trkpt lat="45.39379" lon="5.79172">
        <ele>1404.62</ele>
        <time>2017-04-22T09:52:24Z</time>
      </trkpt>
      <trkpt lat="45.39374" lon="5.79188">
        <ele>1406.55</ele>
        <time>2017-04-22T09:52:33Z</time>
      </trkpt>
      <trkpt lat="45.39367" lon="5.79198">
        <ele>1407.51</ele>
        <time>2017-04-22T09:52:41Z</time>
      </trkpt>
      <trkpt lat="45.3936" lon="5.79205">
        <ele>1406.07</ele>
        <time>2017-04-22T09:52:47Z</time>
      </trkpt>
      <trkpt lat="45.39356" lon="5.7921">
        <ele>1406.07</ele>
        <time>2017-04-22T09:52:51Z</time>
      </trkpt>
      <trkpt lat="45.3935" lon="5.79216">
        <ele>1405.58</ele>
        <time>2017-04-22T09:52:57Z</time>
      </trkpt>
      <trkpt lat="45.39343" lon="5.79219">
        <ele>1406.07</ele>
        <time>2017-04-22T09:53:03Z</time>
      </trkpt>
      <trkpt lat="45.39339" lon="5.79222">
        <ele>1407.03</ele>
        <time>2017-04-22T09:53:06Z</time>
      </trkpt>
      <trkpt lat="45.39327" lon="5.79224">
        <ele>1408.95</ele>
        <time>2017-04-22T09:53:17Z</time>
      </trkpt>
      <trkpt lat="45.39307" lon="5.7923">
        <ele>1409.91</ele>
        <time>2017-04-22T09:53:30Z</time>
      </trkpt>
      <trkpt lat="45.39299" lon="5.79233">
        <ele>1409.43</ele>
        <time>2017-04-22T09:53:35Z</time>
      </trkpt>
      <trkpt lat="45.39281" lon="5.79237">
        <ele>1410.87</ele>
        <time>2017-04-22T09:53:46Z</time>
      </trkpt>
      <trkpt lat="45.39278" lon="5.79237">
        <ele>1410.39</ele>
        <time>2017-04-22T09:53:48Z</time>
      </trkpt>
      <trkpt lat="45.39273" lon="5.7924">
        <ele>1409.91</ele>
        <time>2017-04-22T09:53:51Z</time>
      </trkpt>
      <trkpt lat="45.39264" lon="5.79243">
        <ele>1409.43</ele>
        <time>2017-04-22T09:53:59Z</time>
      </trkpt>
      <trkpt lat="45.3925" lon="5.79251">
        <ele>1408.95</ele>
        <time>2017-04-22T09:54:08Z</time>
      </trkpt>
      <trkpt lat="45.39223" lon="5.7926">
        <ele>1407.03</ele>
        <time>2017-04-22T09:54:28Z</time>
      </trkpt>
      <trkpt lat="45.392" lon="5.79271">
        <ele>1408.95</ele>
        <time>2017-04-22T09:54:46Z</time>
      </trkpt>
      <trkpt lat="45.39185" lon="5.79276">
        <ele>1411.35</ele>
        <time>2017-04-22T09:54:59Z</time>
      </trkpt>
      <trkpt lat="45.39181" lon="5.79276">
        <ele>1412.79</ele>
        <time>2017-04-22T09:55:04Z</time>
      </trkpt>
      <trkpt lat="45.39166" lon="5.79283">
        <ele>1417.12</ele>
        <time>2017-04-22T09:55:18Z</time>
      </trkpt>
      <trkpt lat="45.39164" lon="5.79283">
        <ele>1417.12</ele>
        <time>2017-04-22T09:55:19Z</time>
      </trkpt>
      <trkpt lat="45.39142" lon="5.793">
        <ele>1417.6</ele>
        <time>2017-04-22T09:55:36Z</time>
      </trkpt>
      <trkpt lat="45.39128" lon="5.79305">
        <ele>1417.12</ele>
        <time>2017-04-22T09:55:48Z</time>
      </trkpt>
      <trkpt lat="45.39114" lon="5.79298">
        <ele>1420.97</ele>
        <time>2017-04-22T09:56:00Z</time>
      </trkpt>
      <trkpt lat="45.39112" lon="5.79297">
        <ele>1421.45</ele>
        <time>2017-04-22T09:56:02Z</time>
      </trkpt>
      <trkpt lat="45.39101" lon="5.79291">
        <ele>1424.33</ele>
        <time>2017-04-22T09:56:13Z</time>
      </trkpt>
      <trkpt lat="45.39099" lon="5.79287">
        <ele>1425.29</ele>
        <time>2017-04-22T09:56:17Z</time>
      </trkpt>
      <trkpt lat="45.39082" lon="5.79272">
        <ele>1430.1</ele>
        <time>2017-04-22T09:56:33Z</time>
      </trkpt>
      <trkpt lat="45.39068" lon="5.79266">
        <ele>1432.98</ele>
        <time>2017-04-22T09:56:47Z</time>
      </trkpt>
      <trkpt lat="45.39055" lon="5.79277">
        <ele>1431.06</ele>
        <time>2017-04-22T09:57:00Z</time>
      </trkpt>
      <trkpt lat="45.39055" lon="5.79302">
        <ele>1430.58</ele>
        <time>2017-04-22T09:57:15Z</time>
      </trkpt>
      <trkpt lat="45.39057" lon="5.79312">
        <ele>1431.06</ele>
        <time>2017-04-22T09:57:22Z</time>
      </trkpt>
      <trkpt lat="45.39064" lon="5.7934">
        <ele>1433.94</ele>
        <time>2017-04-22T09:57:38Z</time>
      </trkpt>
      <trkpt lat="45.39068" lon="5.79356">
        <ele>1435.39</ele>
        <time>2017-04-22T09:57:48Z</time>
      </trkpt>
      <trkpt lat="45.39071" lon="5.7936">
        <ele>1437.31</ele>
        <time>2017-04-22T09:57:53Z</time>
      </trkpt>
      <trkpt lat="45.3908" lon="5.79374">
        <ele>1440.67</ele>
        <time>2017-04-22T09:58:06Z</time>
      </trkpt>
      <trkpt lat="45.39081" lon="5.79377">
        <ele>1442.11</ele>
        <time>2017-04-22T09:58:09Z</time>
      </trkpt>
      <trkpt lat="45.39086" lon="5.79397">
        <ele>1445</ele>
        <time>2017-04-22T09:58:24Z</time>
      </trkpt>
      <trkpt lat="45.39087" lon="5.79401">
        <ele>1445</ele>
        <time>2017-04-22T09:58:26Z</time>
      </trkpt>
      <trkpt lat="45.39085" lon="5.79424">
        <ele>1447.4</ele>
        <time>2017-04-22T09:58:43Z</time>
      </trkpt>
      <trkpt lat="45.39085" lon="5.79433">
        <ele>1445.96</ele>
        <time>2017-04-22T09:58:50Z</time>
      </trkpt>
      <trkpt lat="45.39083" lon="5.79435">
        <ele>1445.96</ele>
        <time>2017-04-22T09:58:52Z</time>
      </trkpt>
      <trkpt lat="45.39079" lon="5.7944">
        <ele>1447.4</ele>
        <time>2017-04-22T09:58:56Z</time>
      </trkpt>
      <trkpt lat="45.39063" lon="5.7945">
        <ele>1449.81</ele>
        <time>2017-04-22T09:59:08Z</time>
      </trkpt>
      <trkpt lat="45.3905" lon="5.79454">
        <ele>1451.73</ele>
        <time>2017-04-22T09:59:15Z</time>
      </trkpt>
      <trkpt lat="45.39025" lon="5.79459">
        <ele>1446.92</ele>
        <time>2017-04-22T09:59:26Z</time>
      </trkpt>
      <trkpt lat="45.39023" lon="5.79459">
        <ele>1446.44</ele>
        <time>2017-04-22T09:59:27Z</time>
      </trkpt>
      <trkpt lat="45.39021" lon="5.79459">
        <ele>1446.44</ele>
        <time>2017-04-22T09:59:28Z</time>
      </trkpt>
      <trkpt lat="45.39019" lon="5.79459">
        <ele>1445.96</ele>
        <time>2017-04-22T09:59:29Z</time>
      </trkpt>
      <trkpt lat="45.39017" lon="5.79459">
        <ele>1446.44</ele>
        <time>2017-04-22T09:59:30Z</time>
      </trkpt>
      <trkpt lat="45.39015" lon="5.79458">
        <ele>1446.44</ele>
        <time>2017-04-22T09:59:31Z</time>
      </trkpt>
      <trkpt lat="45.39013" lon="5.79458">
        <ele>1446.44</ele>
        <time>2017-04-22T09:59:32Z</time>
      </trkpt>
      <trkpt lat="45.3901" lon="5.79458">
        <ele>1446.92</ele>
        <time>2017-04-22T09:59:33Z</time>
      </trkpt>
      <trkpt lat="45.39008" lon="5.79458">
        <ele>1446.92</ele>
        <time>2017-04-22T09:59:34Z</time>
      </trkpt>
      <trkpt lat="45.39006" lon="5.79458">
        <ele>1447.4</ele>
        <time>2017-04-22T09:59:35Z</time>
      </trkpt>
      <trkpt lat="45.39004" lon="5.79457">
        <ele>1447.4</ele>
        <time>2017-04-22T09:59:36Z</time>
      </trkpt>
      <trkpt lat="45.39002" lon="5.79456">
        <ele>1447.88</ele>
        <time>2017-04-22T09:59:37Z</time>
      </trkpt>
      <trkpt lat="45.39001" lon="5.79456">
        <ele>1448.36</ele>
        <time>2017-04-22T09:59:38Z</time>
      </trkpt>
      <trkpt lat="45.39" lon="5.79455">
        <ele>1448.36</ele>
        <time>2017-04-22T09:59:39Z</time>
      </trkpt>
      <trkpt lat="45.38998" lon="5.79454">
        <ele>1448.84</ele>
        <time>2017-04-22T09:59:40Z</time>
      </trkpt>
      <trkpt lat="45.38997" lon="5.79453">
        <ele>1449.32</ele>
        <time>2017-04-22T09:59:41Z</time>
      </trkpt>
      <trkpt lat="45.38995" lon="5.79452">
        <ele>1449.81</ele>
        <time>2017-04-22T09:59:42Z</time>
      </trkpt>
      <trkpt lat="45.38994" lon="5.79451">
        <ele>1450.29</ele>
        <time>2017-04-22T09:59:43Z</time>
      </trkpt>
      <trkpt lat="45.38981" lon="5.7945">
        <ele>1454.13</ele>
        <time>2017-04-22T09:59:49Z</time>
      </trkpt>
      <trkpt lat="45.38973" lon="5.79449">
        <ele>1457.98</ele>
        <time>2017-04-22T09:59:54Z</time>
      </trkpt>
      <trkpt lat="45.38971" lon="5.79449">
        <ele>1458.94</ele>
        <time>2017-04-22T09:59:55Z</time>
      </trkpt>
      <trkpt lat="45.38969" lon="5.79449">
        <ele>1459.42</ele>
        <time>2017-04-22T09:59:56Z</time>
      </trkpt>
      <trkpt lat="45.38968" lon="5.79449">
        <ele>1460.38</ele>
        <time>2017-04-22T09:59:57Z</time>
      </trkpt>
      <trkpt lat="45.38966" lon="5.7945">
        <ele>1461.34</ele>
        <time>2017-04-22T09:59:58Z</time>
      </trkpt>
      <trkpt lat="45.38964" lon="5.7945">
        <ele>1461.34</ele>
        <time>2017-04-22T09:59:59Z</time>
      </trkpt>
      <trkpt lat="45.38956" lon="5.79449">
        <ele>1461.34</ele>
        <time>2017-04-22T10:00:03Z</time>
      </trkpt>
      <trkpt lat="45.38954" lon="5.79449">
        <ele>1461.34</ele>
        <time>2017-04-22T10:00:04Z</time>
      </trkpt>
      <trkpt lat="45.38952" lon="5.79449">
        <ele>1461.82</ele>
        <time>2017-04-22T10:00:05Z</time>
      </trkpt>
      <trkpt lat="45.3895" lon="5.79449">
        <ele>1461.82</ele>
        <time>2017-04-22T10:00:06Z</time>
      </trkpt>
      <trkpt lat="45.38948" lon="5.7945">
        <ele>1461.82</ele>
        <time>2017-04-22T10:00:07Z</time>
      </trkpt>
      <trkpt lat="45.38925" lon="5.79447">
        <ele>1461.82</ele>
        <time>2017-04-22T10:00:18Z</time>
      </trkpt>
      <trkpt lat="45.38923" lon="5.79447">
        <ele>1461.82</ele>
        <time>2017-04-22T10:00:19Z</time>
      </trkpt>
      <trkpt lat="45.38921" lon="5.79447">
        <ele>1461.82</ele>
        <time>2017-04-22T10:00:20Z</time>
      </trkpt>
      <trkpt lat="45.38919" lon="5.79447">
        <ele>1462.3</ele>
        <time>2017-04-22T10:00:21Z</time>
      </trkpt>
      <trkpt lat="45.38916" lon="5.79447">
        <ele>1462.3</ele>
        <time>2017-04-22T10:00:22Z</time>
      </trkpt>
      <trkpt lat="45.38914" lon="5.79447">
        <ele>1462.3</ele>
        <time>2017-04-22T10:00:23Z</time>
      </trkpt>
      <trkpt lat="45.38912" lon="5.79446">
        <ele>1462.3</ele>
        <time>2017-04-22T10:00:24Z</time>
      </trkpt>
      <trkpt lat="45.3891" lon="5.79446">
        <ele>1462.3</ele>
        <time>2017-04-22T10:00:25Z</time>
      </trkpt>
      <trkpt lat="45.38907" lon="5.79445">
        <ele>1462.3</ele>
        <time>2017-04-22T10:00:26Z</time>
      </trkpt>
      <trkpt lat="45.38905" lon="5.79444">
        <ele>1462.3</ele>
        <time>2017-04-22T10:00:27Z</time>
      </trkpt>
      <trkpt lat="45.38903" lon="5.79443">
        <ele>1462.3</ele>
        <time>2017-04-22T10:00:28Z</time>
      </trkpt>
      <trkpt lat="45.38901" lon="5.79442">
        <ele>1462.3</ele>
        <time>2017-04-22T10:00:29Z</time>
      </trkpt>
      <trkpt lat="45.38899" lon="5.79442">
        <ele>1462.3</ele>
        <time>2017-04-22T10:00:30Z</time>
      </trkpt>
      <trkpt lat="45.38897" lon="5.79441">
        <ele>1462.3</ele>
        <time>2017-04-22T10:00:31Z</time>
      </trkpt>
      <trkpt lat="45.38895" lon="5.7944">
        <ele>1462.3</ele>
        <time>2017-04-22T10:00:32Z</time>
      </trkpt>
      <trkpt lat="45.38893" lon="5.7944">
        <ele>1462.3</ele>
        <time>2017-04-22T10:00:33Z</time>
      </trkpt>
      <trkpt lat="45.38891" lon="5.79439">
        <ele>1462.3</ele>
        <time>2017-04-22T10:00:34Z</time>
      </trkpt>
      <trkpt lat="45.38889" lon="5.79439">
        <ele>1462.3</ele>
        <time>2017-04-22T10:00:35Z</time>
      </trkpt>
      <trkpt lat="45.38887" lon="5.79438">
        <ele>1462.3</ele>
        <time>2017-04-22T10:00:36Z</time>
      </trkpt>
      <trkpt lat="45.38884" lon="5.79437">
        <ele>1462.3</ele>
        <time>2017-04-22T10:00:37Z</time>
      </trkpt>
      <trkpt lat="45.38882" lon="5.79436">
        <ele>1462.3</ele>
        <time>2017-04-22T10:00:38Z</time>
      </trkpt>
      <trkpt lat="45.3888" lon="5.79436">
        <ele>1462.3</ele>
        <time>2017-04-22T10:00:39Z</time>
      </trkpt>
      <trkpt lat="45.38872" lon="5.79434">
        <ele>1462.3</ele>
        <time>2017-04-22T10:00:43Z</time>
      </trkpt>
      <trkpt lat="45.3887" lon="5.79434">
        <ele>1462.3</ele>
        <time>2017-04-22T10:00:44Z</time>
      </trkpt>
      <trkpt lat="45.38846" lon="5.79444">
        <ele>1462.3</ele>
        <time>2017-04-22T10:00:57Z</time>
      </trkpt>
      <trkpt lat="45.38827" lon="5.79454">
        <ele>1459.42</ele>
        <time>2017-04-22T10:01:07Z</time>
      </trkpt>
      <trkpt lat="45.38823" lon="5.79456">
        <ele>1458.46</ele>
        <time>2017-04-22T10:01:09Z</time>
      </trkpt>
      <trkpt lat="45.38821" lon="5.79458">
        <ele>1457.98</ele>
        <time>2017-04-22T10:01:10Z</time>
      </trkpt>
      <trkpt lat="45.38819" lon="5.79459">
        <ele>1457.5</ele>
        <time>2017-04-22T10:01:11Z</time>
      </trkpt>
      <trkpt lat="45.38816" lon="5.79459">
        <ele>1457.02</ele>
        <time>2017-04-22T10:01:12Z</time>
      </trkpt>
      <trkpt lat="45.38814" lon="5.79459">
        <ele>1456.05</ele>
        <time>2017-04-22T10:01:13Z</time>
      </trkpt>
      <trkpt lat="45.38812" lon="5.7946">
        <ele>1455.09</ele>
        <time>2017-04-22T10:01:14Z</time>
      </trkpt>
      <trkpt lat="45.3881" lon="5.79461">
        <ele>1454.13</ele>
        <time>2017-04-22T10:01:15Z</time>
      </trkpt>
      <trkpt lat="45.38808" lon="5.79461">
        <ele>1453.65</ele>
        <time>2017-04-22T10:01:16Z</time>
      </trkpt>
      <trkpt lat="45.38806" lon="5.79462">
        <ele>1453.17</ele>
        <time>2017-04-22T10:01:17Z</time>
      </trkpt>
      <trkpt lat="45.38804" lon="5.79463">
        <ele>1452.69</ele>
        <time>2017-04-22T10:01:18Z</time>
      </trkpt>
      <trkpt lat="45.3879" lon="5.7947">
        <ele>1449.81</ele>
        <time>2017-04-22T10:01:25Z</time>
      </trkpt>
      <trkpt lat="45.3878" lon="5.79479">
        <ele>1449.32</ele>
        <time>2017-04-22T10:01:31Z</time>
      </trkpt>
      <trkpt lat="45.38779" lon="5.79481">
        <ele>1448.84</ele>
        <time>2017-04-22T10:01:32Z</time>
      </trkpt>
      <trkpt lat="45.38777" lon="5.79482">
        <ele>1447.88</ele>
        <time>2017-04-22T10:01:33Z</time>
      </trkpt>
      <trkpt lat="45.38775" lon="5.79483">
        <ele>1447.4</ele>
        <time>2017-04-22T10:01:34Z</time>
      </trkpt>
      <trkpt lat="45.38773" lon="5.79484">
        <ele>1446.92</ele>
        <time>2017-04-22T10:01:35Z</time>
      </trkpt>
      <trkpt lat="45.38772" lon="5.79486">
        <ele>1446.44</ele>
        <time>2017-04-22T10:01:36Z</time>
      </trkpt>
      <trkpt lat="45.3877" lon="5.79488">
        <ele>1446.44</ele>
        <time>2017-04-22T10:01:37Z</time>
      </trkpt>
      <trkpt lat="45.38764" lon="5.79495">
        <ele>1443.56</ele>
        <time>2017-04-22T10:01:41Z</time>
      </trkpt>
      <trkpt lat="45.38762" lon="5.79496">
        <ele>1443.08</ele>
        <time>2017-04-22T10:01:42Z</time>
      </trkpt>
      <trkpt lat="45.38754" lon="5.79501">
        <ele>1440.19</ele>
        <time>2017-04-22T10:01:46Z</time>
      </trkpt>
      <trkpt lat="45.38753" lon="5.79503">
        <ele>1439.23</ele>
        <time>2017-04-22T10:01:47Z</time>
      </trkpt>
      <trkpt lat="45.38752" lon="5.79504">
        <ele>1438.75</ele>
        <time>2017-04-22T10:01:48Z</time>
      </trkpt>
      <trkpt lat="45.38751" lon="5.79505">
        <ele>1437.79</ele>
        <time>2017-04-22T10:01:49Z</time>
      </trkpt>
      <trkpt lat="45.38749" lon="5.79507">
        <ele>1437.31</ele>
        <time>2017-04-22T10:01:50Z</time>
      </trkpt>
      <trkpt lat="45.38748" lon="5.79508">
        <ele>1436.35</ele>
        <time>2017-04-22T10:01:51Z</time>
      </trkpt>
      <trkpt lat="45.38747" lon="5.79509">
        <ele>1435.39</ele>
        <time>2017-04-22T10:01:52Z</time>
      </trkpt>
      <trkpt lat="45.38744" lon="5.79513">
        <ele>1433.46</ele>
        <time>2017-04-22T10:01:55Z</time>
      </trkpt>
      <trkpt lat="45.38743" lon="5.79514">
        <ele>1433.46</ele>
        <time>2017-04-22T10:01:56Z</time>
      </trkpt>
      <trkpt lat="45.38743" lon="5.79515">
        <ele>1432.98</ele>
        <time>2017-04-22T10:01:57Z</time>
      </trkpt>
      <trkpt lat="45.38731" lon="5.79531">
        <ele>1430.58</ele>
        <time>2017-04-22T10:02:06Z</time>
      </trkpt>
      <trkpt lat="45.38718" lon="5.79551">
        <ele>1427.7</ele>
        <time>2017-04-22T10:02:16Z</time>
      </trkpt>
      <trkpt lat="45.38713" lon="5.79556">
        <ele>1426.73</ele>
        <time>2017-04-22T10:02:19Z</time>
      </trkpt>
      <trkpt lat="45.38711" lon="5.79558">
        <ele>1426.73</ele>
        <time>2017-04-22T10:02:20Z</time>
      </trkpt>
      <trkpt lat="45.3871" lon="5.79559">
        <ele>1426.73</ele>
        <time>2017-04-22T10:02:21Z</time>
      </trkpt>
      <trkpt lat="45.38708" lon="5.79561">
        <ele>1426.73</ele>
        <time>2017-04-22T10:02:22Z</time>
      </trkpt>
      <trkpt lat="45.38705" lon="5.79562">
        <ele>1426.25</ele>
        <time>2017-04-22T10:02:23Z</time>
      </trkpt>
      <trkpt lat="45.38702" lon="5.79565">
        <ele>1425.77</ele>
        <time>2017-04-22T10:02:24Z</time>
      </trkpt>
      <trkpt lat="45.38692" lon="5.79575">
        <ele>1423.37</ele>
        <time>2017-04-22T10:02:30Z</time>
      </trkpt>
      <trkpt lat="45.38691" lon="5.79576">
        <ele>1423.37</ele>
        <time>2017-04-22T10:02:31Z</time>
      </trkpt>
      <trkpt lat="45.3869" lon="5.79579">
        <ele>1423.37</ele>
        <time>2017-04-22T10:02:33Z</time>
      </trkpt>
      <trkpt lat="45.3869" lon="5.7958">
        <ele>1422.89</ele>
        <time>2017-04-22T10:02:34Z</time>
      </trkpt>
      <trkpt lat="45.38691" lon="5.79584">
        <ele>1421.93</ele>
        <time>2017-04-22T10:02:37Z</time>
      </trkpt>
      <trkpt lat="45.38693" lon="5.79586">
        <ele>1421.45</ele>
        <time>2017-04-22T10:02:38Z</time>
      </trkpt>
      <trkpt lat="45.38695" lon="5.79587">
        <ele>1421.45</ele>
        <time>2017-04-22T10:02:39Z</time>
      </trkpt>
      <trkpt lat="45.38699" lon="5.79609">
        <ele>1421.93</ele>
        <time>2017-04-22T10:02:51Z</time>
      </trkpt>
      <trkpt lat="45.38699" lon="5.79613">
        <ele>1421.93</ele>
        <time>2017-04-22T10:02:53Z</time>
      </trkpt>
      <trkpt lat="45.38699" lon="5.79618">
        <ele>1422.41</ele>
        <time>2017-04-22T10:02:56Z</time>
      </trkpt>
      <trkpt lat="45.38699" lon="5.7962">
        <ele>1422.41</ele>
        <time>2017-04-22T10:02:57Z</time>
      </trkpt>
      <trkpt lat="45.38702" lon="5.79635">
        <ele>1425.29</ele>
        <time>2017-04-22T10:03:04Z</time>
      </trkpt>
      <trkpt lat="45.38694" lon="5.79642">
        <ele>1424.81</ele>
        <time>2017-04-22T10:03:11Z</time>
      </trkpt>
      <trkpt lat="45.38694" lon="5.79644">
        <ele>1424.81</ele>
        <time>2017-04-22T10:03:12Z</time>
      </trkpt>
      <trkpt lat="45.38693" lon="5.79646">
        <ele>1424.33</ele>
        <time>2017-04-22T10:03:13Z</time>
      </trkpt>
      <trkpt lat="45.38686" lon="5.79654">
        <ele>1422.89</ele>
        <time>2017-04-22T10:03:21Z</time>
      </trkpt>
      <trkpt lat="45.38685" lon="5.79657">
        <ele>1423.37</ele>
        <time>2017-04-22T10:03:22Z</time>
      </trkpt>
      <trkpt lat="45.38684" lon="5.79659">
        <ele>1422.89</ele>
        <time>2017-04-22T10:03:23Z</time>
      </trkpt>
      <trkpt lat="45.38674" lon="5.79674">
        <ele>1420.49</ele>
        <time>2017-04-22T10:03:30Z</time>
      </trkpt>
      <trkpt lat="45.38673" lon="5.79676">
        <ele>1420</ele>
        <time>2017-04-22T10:03:31Z</time>
      </trkpt>
      <trkpt lat="45.38672" lon="5.79677">
        <ele>1419.52</ele>
        <time>2017-04-22T10:03:32Z</time>
      </trkpt>
      <trkpt lat="45.38664" lon="5.79692">
        <ele>1422.89</ele>
        <time>2017-04-22T10:03:45Z</time>
      </trkpt>
      <trkpt lat="45.38662" lon="5.79698">
        <ele>1422.89</ele>
        <time>2017-04-22T10:03:48Z</time>
      </trkpt>
      <trkpt lat="45.38653" lon="5.79718">
        <ele>1427.21</ele>
        <time>2017-04-22T10:04:01Z</time>
      </trkpt>
      <trkpt lat="45.38649" lon="5.79721">
        <ele>1427.21</ele>
        <time>2017-04-22T10:04:04Z</time>
      </trkpt>
      <trkpt lat="45.38648" lon="5.79722">
        <ele>1427.21</ele>
        <time>2017-04-22T10:04:05Z</time>
      </trkpt>
      <trkpt lat="45.3864" lon="5.79738">
        <ele>1428.18</ele>
        <time>2017-04-22T10:04:16Z</time>
      </trkpt>
      <trkpt lat="45.3864" lon="5.7974">
        <ele>1428.66</ele>
        <time>2017-04-22T10:04:17Z</time>
      </trkpt>
      <trkpt lat="45.3864" lon="5.79742">
        <ele>1428.66</ele>
        <time>2017-04-22T10:04:18Z</time>
      </trkpt>
      <trkpt lat="45.3864" lon="5.79744">
        <ele>1428.66</ele>
        <time>2017-04-22T10:04:19Z</time>
      </trkpt>
      <trkpt lat="45.38641" lon="5.79764">
        <ele>1427.21</ele>
        <time>2017-04-22T10:04:31Z</time>
      </trkpt>
      <trkpt lat="45.38636" lon="5.79787">
        <ele>1425.77</ele>
        <time>2017-04-22T10:04:48Z</time>
      </trkpt>
      <trkpt lat="45.38632" lon="5.79818">
        <ele>1426.73</ele>
        <time>2017-04-22T10:05:05Z</time>
      </trkpt>
      <trkpt lat="45.38622" lon="5.79852">
        <ele>1426.73</ele>
        <time>2017-04-22T10:05:25Z</time>
      </trkpt>
      <trkpt lat="45.3862" lon="5.79884">
        <ele>1430.1</ele>
        <time>2017-04-22T10:05:45Z</time>
      </trkpt>
      <trkpt lat="45.38614" lon="5.7991">
        <ele>1434.42</ele>
        <time>2017-04-22T10:06:02Z</time>
      </trkpt>
      <trkpt lat="45.38613" lon="5.79928">
        <ele>1435.87</ele>
        <time>2017-04-22T10:06:13Z</time>
      </trkpt>
      <trkpt lat="45.38613" lon="5.7993">
        <ele>1436.35</ele>
        <time>2017-04-22T10:06:14Z</time>
      </trkpt>
      <trkpt lat="45.38612" lon="5.79931">
        <ele>1436.35</ele>
        <time>2017-04-22T10:06:15Z</time>
      </trkpt>
      <trkpt lat="45.38612" lon="5.79932">
        <ele>1436.83</ele>
        <time>2017-04-22T10:06:16Z</time>
      </trkpt>
      <trkpt lat="45.38611" lon="5.79933">
        <ele>1437.31</ele>
        <time>2017-04-22T10:06:17Z</time>
      </trkpt>
      <trkpt lat="45.3861" lon="5.79934">
        <ele>1437.79</ele>
        <time>2017-04-22T10:06:18Z</time>
      </trkpt>
      <trkpt lat="45.38609" lon="5.79935">
        <ele>1437.79</ele>
        <time>2017-04-22T10:06:19Z</time>
      </trkpt>
      <trkpt lat="45.38608" lon="5.79935">
        <ele>1438.27</ele>
        <time>2017-04-22T10:06:20Z</time>
      </trkpt>
      <trkpt lat="45.38607" lon="5.79936">
        <ele>1438.75</ele>
        <time>2017-04-22T10:06:21Z</time>
      </trkpt>
      <trkpt lat="45.38606" lon="5.79937">
        <ele>1438.75</ele>
        <time>2017-04-22T10:06:22Z</time>
      </trkpt>
      <trkpt lat="45.38605" lon="5.79937">
        <ele>1439.23</ele>
        <time>2017-04-22T10:06:23Z</time>
      </trkpt>
      <trkpt lat="45.38593" lon="5.79945">
        <ele>1442.11</ele>
        <time>2017-04-22T10:06:36Z</time>
      </trkpt>
      <trkpt lat="45.38591" lon="5.79946">
        <ele>1442.11</ele>
        <time>2017-04-22T10:06:37Z</time>
      </trkpt>
      <trkpt lat="45.38578" lon="5.7996">
        <ele>1445</ele>
        <time>2017-04-22T10:06:52Z</time>
      </trkpt>
      <trkpt lat="45.38571" lon="5.79981">
        <ele>1448.84</ele>
        <time>2017-04-22T10:07:08Z</time>
      </trkpt>
      <trkpt lat="45.38571" lon="5.79983">
        <ele>1449.32</ele>
        <time>2017-04-22T10:07:09Z</time>
      </trkpt>
      <trkpt lat="45.38568" lon="5.79988">
        <ele>1450.29</ele>
        <time>2017-04-22T10:07:14Z</time>
      </trkpt>
      <trkpt lat="45.38566" lon="5.7999">
        <ele>1450.77</ele>
        <time>2017-04-22T10:07:16Z</time>
      </trkpt>
      <trkpt lat="45.38564" lon="5.79993">
        <ele>1451.25</ele>
        <time>2017-04-22T10:07:19Z</time>
      </trkpt>
      <trkpt lat="45.38555" lon="5.8">
        <ele>1453.65</ele>
        <time>2017-04-22T10:07:29Z</time>
      </trkpt>
      <trkpt lat="45.38554" lon="5.80001">
        <ele>1454.13</ele>
        <time>2017-04-22T10:07:30Z</time>
      </trkpt>
      <trkpt lat="45.38553" lon="5.80002">
        <ele>1454.13</ele>
        <time>2017-04-22T10:07:31Z</time>
      </trkpt>
      <trkpt lat="45.38552" lon="5.80004">
        <ele>1454.13</ele>
        <time>2017-04-22T10:07:32Z</time>
      </trkpt>
      <trkpt lat="45.38551" lon="5.80005">
        <ele>1454.61</ele>
        <time>2017-04-22T10:07:33Z</time>
      </trkpt>
      <trkpt lat="45.3855" lon="5.80006">
        <ele>1454.61</ele>
        <time>2017-04-22T10:07:34Z</time>
      </trkpt>
      <trkpt lat="45.38549" lon="5.80007">
        <ele>1455.09</ele>
        <time>2017-04-22T10:07:36Z</time>
      </trkpt>
      <trkpt lat="45.38548" lon="5.80007">
        <ele>1455.09</ele>
        <time>2017-04-22T10:07:37Z</time>
      </trkpt>
      <trkpt lat="45.38545" lon="5.80009">
        <ele>1456.05</ele>
        <time>2017-04-22T10:07:40Z</time>
      </trkpt>
      <trkpt lat="45.38542" lon="5.80011">
        <ele>1457.02</ele>
        <time>2017-04-22T10:07:43Z</time>
      </trkpt>
      <trkpt lat="45.38541" lon="5.80011">
        <ele>1457.5</ele>
        <time>2017-04-22T10:07:44Z</time>
      </trkpt>
      <trkpt lat="45.38534" lon="5.8002">
        <ele>1459.42</ele>
        <time>2017-04-22T10:07:54Z</time>
      </trkpt>
      <trkpt lat="45.38531" lon="5.80023">
        <ele>1459.9</ele>
        <time>2017-04-22T10:07:57Z</time>
      </trkpt>
      <trkpt lat="45.3853" lon="5.80024">
        <ele>1460.38</ele>
        <time>2017-04-22T10:07:58Z</time>
      </trkpt>
      <trkpt lat="45.38529" lon="5.80024">
        <ele>1460.38</ele>
        <time>2017-04-22T10:07:59Z</time>
      </trkpt>
      <trkpt lat="45.38528" lon="5.80025">
        <ele>1460.86</ele>
        <time>2017-04-22T10:08:00Z</time>
      </trkpt>
      <trkpt lat="45.38528" lon="5.80026">
        <ele>1461.34</ele>
        <time>2017-04-22T10:08:01Z</time>
      </trkpt>
      <trkpt lat="45.38527" lon="5.80027">
        <ele>1461.82</ele>
        <time>2017-04-22T10:08:02Z</time>
      </trkpt>
      <trkpt lat="45.38523" lon="5.80036">
        <ele>1463.26</ele>
        <time>2017-04-22T10:08:12Z</time>
      </trkpt>
      <trkpt lat="45.38524" lon="5.80036">
        <ele>1463.74</ele>
        <time>2017-04-22T10:08:13Z</time>
      </trkpt>
      <trkpt lat="45.38525" lon="5.80037">
        <ele>1463.74</ele>
        <time>2017-04-22T10:08:14Z</time>
      </trkpt>
      <trkpt lat="45.38534" lon="5.8004">
        <ele>1466.63</ele>
        <time>2017-04-22T10:08:22Z</time>
      </trkpt>
      <trkpt lat="45.38535" lon="5.80039">
        <ele>1466.63</ele>
        <time>2017-04-22T10:08:23Z</time>
      </trkpt>
      <trkpt lat="45.38536" lon="5.8004">
        <ele>1467.11</ele>
        <time>2017-04-22T10:08:24Z</time>
      </trkpt>
      <trkpt lat="45.38537" lon="5.8004">
        <ele>1467.11</ele>
        <time>2017-04-22T10:08:25Z</time>
      </trkpt>
      <trkpt lat="45.38539" lon="5.80041">
        <ele>1467.11</ele>
        <time>2017-04-22T10:08:26Z</time>
      </trkpt>
      <trkpt lat="45.3854" lon="5.80042">
        <ele>1467.59</ele>
        <time>2017-04-22T10:08:27Z</time>
      </trkpt>
      <trkpt lat="45.38541" lon="5.80043">
        <ele>1467.59</ele>
        <time>2017-04-22T10:08:28Z</time>
      </trkpt>
      <trkpt lat="45.38541" lon="5.80043">
        <ele>1468.07</ele>
        <time>2017-04-22T10:08:29Z</time>
      </trkpt>
      <trkpt lat="45.38542" lon="5.80044">
        <ele>1468.07</ele>
        <time>2017-04-22T10:08:30Z</time>
      </trkpt>
      <trkpt lat="45.38546" lon="5.80047">
        <ele>1468.55</ele>
        <time>2017-04-22T10:08:34Z</time>
      </trkpt>
      <trkpt lat="45.38559" lon="5.8006">
        <ele>1472.4</ele>
        <time>2017-04-22T10:08:49Z</time>
      </trkpt>
      <trkpt lat="45.38564" lon="5.80064">
        <ele>1473.36</ele>
        <time>2017-04-22T10:08:54Z</time>
      </trkpt>
      <trkpt lat="45.38565" lon="5.80064">
        <ele>1473.36</ele>
        <time>2017-04-22T10:08:55Z</time>
      </trkpt>
      <trkpt lat="45.38578" lon="5.80072">
        <ele>1477.2</ele>
        <time>2017-04-22T10:09:08Z</time>
      </trkpt>
      <trkpt lat="45.38579" lon="5.80076">
        <ele>1477.68</ele>
        <time>2017-04-22T10:09:12Z</time>
      </trkpt>
      <trkpt lat="45.38575" lon="5.80077">
        <ele>1479.13</ele>
        <time>2017-04-22T10:09:17Z</time>
      </trkpt>
      <trkpt lat="45.38574" lon="5.80077">
        <ele>1479.13</ele>
        <time>2017-04-22T10:09:18Z</time>
      </trkpt>
      <trkpt lat="45.38573" lon="5.80078">
        <ele>1479.61</ele>
        <time>2017-04-22T10:09:19Z</time>
      </trkpt>
      <trkpt lat="45.38572" lon="5.80078">
        <ele>1479.61</ele>
        <time>2017-04-22T10:09:20Z</time>
      </trkpt>
      <trkpt lat="45.3856" lon="5.80088">
        <ele>1482.01</ele>
        <time>2017-04-22T10:09:34Z</time>
      </trkpt>
      <trkpt lat="45.38559" lon="5.80089">
        <ele>1482.49</ele>
        <time>2017-04-22T10:09:35Z</time>
      </trkpt>
      <trkpt lat="45.38558" lon="5.8009">
        <ele>1482.49</ele>
        <time>2017-04-22T10:09:36Z</time>
      </trkpt>
      <trkpt lat="45.38557" lon="5.80091">
        <ele>1482.97</ele>
        <time>2017-04-22T10:09:37Z</time>
      </trkpt>
      <trkpt lat="45.38557" lon="5.80092">
        <ele>1482.97</ele>
        <time>2017-04-22T10:09:38Z</time>
      </trkpt>
      <trkpt lat="45.38556" lon="5.80093">
        <ele>1482.97</ele>
        <time>2017-04-22T10:09:39Z</time>
      </trkpt>
      <trkpt lat="45.38544" lon="5.80103">
        <ele>1486.34</ele>
        <time>2017-04-22T10:09:53Z</time>
      </trkpt>
      <trkpt lat="45.38539" lon="5.80107">
        <ele>1487.3</ele>
        <time>2017-04-22T10:09:59Z</time>
      </trkpt>
      <trkpt lat="45.38539" lon="5.8011">
        <ele>1487.78</ele>
        <time>2017-04-22T10:10:02Z</time>
      </trkpt>
      <trkpt lat="45.38541" lon="5.8011">
        <ele>1488.74</ele>
        <time>2017-04-22T10:10:04Z</time>
      </trkpt>
      <trkpt lat="45.38542" lon="5.80111">
        <ele>1488.74</ele>
        <time>2017-04-22T10:10:05Z</time>
      </trkpt>
      <trkpt lat="45.38552" lon="5.80113">
        <ele>1491.62</ele>
        <time>2017-04-22T10:10:15Z</time>
      </trkpt>
      <trkpt lat="45.38553" lon="5.80114">
        <ele>1492.1</ele>
        <time>2017-04-22T10:10:16Z</time>
      </trkpt>
      <trkpt lat="45.38554" lon="5.80114">
        <ele>1492.1</ele>
        <time>2017-04-22T10:10:17Z</time>
      </trkpt>
      <trkpt lat="45.38555" lon="5.80115">
        <ele>1492.1</ele>
        <time>2017-04-22T10:10:18Z</time>
      </trkpt>
      <trkpt lat="45.38568" lon="5.80121">
        <ele>1496.43</ele>
        <time>2017-04-22T10:10:34Z</time>
      </trkpt>
      <trkpt lat="45.38567" lon="5.80121">
        <ele>1496.91</ele>
        <time>2017-04-22T10:10:35Z</time>
      </trkpt>
      <trkpt lat="45.38566" lon="5.80121">
        <ele>1496.91</ele>
        <time>2017-04-22T10:10:36Z</time>
      </trkpt>
      <trkpt lat="45.38552" lon="5.80139">
        <ele>1499.79</ele>
        <time>2017-04-22T10:10:54Z</time>
      </trkpt>
      <trkpt lat="45.38547" lon="5.80146">
        <ele>1501.24</ele>
        <time>2017-04-22T10:11:01Z</time>
      </trkpt>
      <trkpt lat="45.38541" lon="5.80152">
        <ele>1503.16</ele>
        <time>2017-04-22T10:11:08Z</time>
      </trkpt>
      <trkpt lat="45.3854" lon="5.80153">
        <ele>1503.16</ele>
        <time>2017-04-22T10:11:09Z</time>
      </trkpt>
      <trkpt lat="45.38539" lon="5.80155">
        <ele>1503.64</ele>
        <time>2017-04-22T10:11:10Z</time>
      </trkpt>
      <trkpt lat="45.38539" lon="5.80156">
        <ele>1503.64</ele>
        <time>2017-04-22T10:11:11Z</time>
      </trkpt>
      <trkpt lat="45.38537" lon="5.8016">
        <ele>1504.6</ele>
        <time>2017-04-22T10:11:14Z</time>
      </trkpt>
      <trkpt lat="45.38536" lon="5.80163">
        <ele>1505.08</ele>
        <time>2017-04-22T10:11:17Z</time>
      </trkpt>
      <trkpt lat="45.38536" lon="5.80164">
        <ele>1505.08</ele>
        <time>2017-04-22T10:11:18Z</time>
      </trkpt>
      <trkpt lat="45.38535" lon="5.80166">
        <ele>1505.08</ele>
        <time>2017-04-22T10:11:19Z</time>
      </trkpt>
      <trkpt lat="45.38532" lon="5.80172">
        <ele>1506.04</ele>
        <time>2017-04-22T10:11:24Z</time>
      </trkpt>
      <trkpt lat="45.38531" lon="5.80173">
        <ele>1506.04</ele>
        <time>2017-04-22T10:11:25Z</time>
      </trkpt>
      <trkpt lat="45.38526" lon="5.8019">
        <ele>1508.93</ele>
        <time>2017-04-22T10:11:37Z</time>
      </trkpt>
      <trkpt lat="45.38526" lon="5.80191">
        <ele>1508.93</ele>
        <time>2017-04-22T10:11:38Z</time>
      </trkpt>
      <trkpt lat="45.38526" lon="5.80204">
        <ele>1511.81</ele>
        <time>2017-04-22T10:11:48Z</time>
      </trkpt>
      <trkpt lat="45.38527" lon="5.80204">
        <ele>1512.29</ele>
        <time>2017-04-22T10:11:50Z</time>
      </trkpt>
      <trkpt lat="45.38528" lon="5.80203">
        <ele>1512.77</ele>
        <time>2017-04-22T10:11:51Z</time>
      </trkpt>
      <trkpt lat="45.38529" lon="5.80202">
        <ele>1512.77</ele>
        <time>2017-04-22T10:11:52Z</time>
      </trkpt>
      <trkpt lat="45.3853" lon="5.80201">
        <ele>1513.25</ele>
        <time>2017-04-22T10:11:53Z</time>
      </trkpt>
      <trkpt lat="45.38531" lon="5.802">
        <ele>1514.21</ele>
        <time>2017-04-22T10:11:54Z</time>
      </trkpt>
      <trkpt lat="45.38532" lon="5.80199">
        <ele>1514.69</ele>
        <time>2017-04-22T10:11:55Z</time>
      </trkpt>
      <trkpt lat="45.38533" lon="5.80198">
        <ele>1515.18</ele>
        <time>2017-04-22T10:11:56Z</time>
      </trkpt>
      <trkpt lat="45.38534" lon="5.80197">
        <ele>1515.66</ele>
        <time>2017-04-22T10:11:57Z</time>
      </trkpt>
      <trkpt lat="45.38535" lon="5.80197">
        <ele>1515.66</ele>
        <time>2017-04-22T10:11:58Z</time>
      </trkpt>
      <trkpt lat="45.38536" lon="5.80197">
        <ele>1516.14</ele>
        <time>2017-04-22T10:11:59Z</time>
      </trkpt>
      <trkpt lat="45.38537" lon="5.80196">
        <ele>1516.14</ele>
        <time>2017-04-22T10:12:00Z</time>
      </trkpt>
      <trkpt lat="45.38538" lon="5.80195">
        <ele>1516.14</ele>
        <time>2017-04-22T10:12:01Z</time>
      </trkpt>
      <trkpt lat="45.38539" lon="5.80194">
        <ele>1516.62</ele>
        <time>2017-04-22T10:12:02Z</time>
      </trkpt>
      <trkpt lat="45.3854" lon="5.80194">
        <ele>1516.62</ele>
        <time>2017-04-22T10:12:03Z</time>
      </trkpt>
      <trkpt lat="45.38541" lon="5.80193">
        <ele>1517.1</ele>
        <time>2017-04-22T10:12:04Z</time>
      </trkpt>
      <trkpt lat="45.38542" lon="5.80192">
        <ele>1517.1</ele>
        <time>2017-04-22T10:12:05Z</time>
      </trkpt>
      <trkpt lat="45.38543" lon="5.80192">
        <ele>1517.58</ele>
        <time>2017-04-22T10:12:06Z</time>
      </trkpt>
      <trkpt lat="45.38548" lon="5.80191">
        <ele>1519.02</ele>
        <time>2017-04-22T10:12:11Z</time>
      </trkpt>
      <trkpt lat="45.38549" lon="5.80191">
        <ele>1519.5</ele>
        <time>2017-04-22T10:12:12Z</time>
      </trkpt>
      <trkpt lat="45.38557" lon="5.80188">
        <ele>1522.39</ele>
        <time>2017-04-22T10:12:20Z</time>
      </trkpt>
      <trkpt lat="45.38558" lon="5.80188">
        <ele>1522.87</ele>
        <time>2017-04-22T10:12:21Z</time>
      </trkpt>
      <trkpt lat="45.3856" lon="5.80187">
        <ele>1522.87</ele>
        <time>2017-04-22T10:12:22Z</time>
      </trkpt>
      <trkpt lat="45.38561" lon="5.80188">
        <ele>1522.87</ele>
        <time>2017-04-22T10:12:23Z</time>
      </trkpt>
      <trkpt lat="45.38562" lon="5.80187">
        <ele>1523.35</ele>
        <time>2017-04-22T10:12:24Z</time>
      </trkpt>
      <trkpt lat="45.38563" lon="5.80187">
        <ele>1523.35</ele>
        <time>2017-04-22T10:12:25Z</time>
      </trkpt>
      <trkpt lat="45.38576" lon="5.8019">
        <ele>1527.19</ele>
        <time>2017-04-22T10:12:42Z</time>
      </trkpt>
      <trkpt lat="45.38576" lon="5.80191">
        <ele>1527.19</ele>
        <time>2017-04-22T10:12:43Z</time>
      </trkpt>
      <trkpt lat="45.38575" lon="5.80192">
        <ele>1527.67</ele>
        <time>2017-04-22T10:12:44Z</time>
      </trkpt>
      <trkpt lat="45.38574" lon="5.80193">
        <ele>1527.67</ele>
        <time>2017-04-22T10:12:45Z</time>
      </trkpt>
      <trkpt lat="45.38573" lon="5.80194">
        <ele>1527.67</ele>
        <time>2017-04-22T10:12:46Z</time>
      </trkpt>
      <trkpt lat="45.38572" lon="5.80194">
        <ele>1528.15</ele>
        <time>2017-04-22T10:12:47Z</time>
      </trkpt>
      <trkpt lat="45.38571" lon="5.80195">
        <ele>1528.15</ele>
        <time>2017-04-22T10:12:48Z</time>
      </trkpt>
      <trkpt lat="45.3857" lon="5.80196">
        <ele>1528.15</ele>
        <time>2017-04-22T10:12:49Z</time>
      </trkpt>
      <trkpt lat="45.38569" lon="5.80197">
        <ele>1528.15</ele>
        <time>2017-04-22T10:12:50Z</time>
      </trkpt>
      <trkpt lat="45.38568" lon="5.80199">
        <ele>1528.15</ele>
        <time>2017-04-22T10:12:52Z</time>
      </trkpt>
      <trkpt lat="45.38567" lon="5.80201">
        <ele>1528.15</ele>
        <time>2017-04-22T10:12:53Z</time>
      </trkpt>
      <trkpt lat="45.38566" lon="5.80202">
        <ele>1528.15</ele>
        <time>2017-04-22T10:12:54Z</time>
      </trkpt>
      <trkpt lat="45.38566" lon="5.80203">
        <ele>1528.63</ele>
        <time>2017-04-22T10:12:55Z</time>
      </trkpt>
      <trkpt lat="45.38565" lon="5.80205">
        <ele>1528.63</ele>
        <time>2017-04-22T10:12:56Z</time>
      </trkpt>
      <trkpt lat="45.38565" lon="5.80206">
        <ele>1529.11</ele>
        <time>2017-04-22T10:12:57Z</time>
      </trkpt>
      <trkpt lat="45.38567" lon="5.80218">
        <ele>1532</ele>
        <time>2017-04-22T10:13:11Z</time>
      </trkpt>
      <trkpt lat="45.38576" lon="5.80225">
        <ele>1537.77</ele>
        <time>2017-04-22T10:13:26Z</time>
      </trkpt>
      <trkpt lat="45.38586" lon="5.80233">
        <ele>1542.09</ele>
        <time>2017-04-22T10:13:43Z</time>
      </trkpt>
      <trkpt lat="45.38594" lon="5.8024">
        <ele>1546.42</ele>
        <time>2017-04-22T10:13:57Z</time>
      </trkpt>
      <trkpt lat="45.38603" lon="5.8025">
        <ele>1550.74</ele>
        <time>2017-04-22T10:14:12Z</time>
      </trkpt>
      <trkpt lat="45.38608" lon="5.80257">
        <ele>1554.11</ele>
        <time>2017-04-22T10:14:25Z</time>
      </trkpt>
      <trkpt lat="45.38612" lon="5.80269">
        <ele>1557.95</ele>
        <time>2017-04-22T10:14:40Z</time>
      </trkpt>
      <trkpt lat="45.38617" lon="5.80275">
        <ele>1561.32</ele>
        <time>2017-04-22T10:14:52Z</time>
      </trkpt>
      <trkpt lat="45.38621" lon="5.80285">
        <ele>1564.2</ele>
        <time>2017-04-22T10:15:05Z</time>
      </trkpt>
      <trkpt lat="45.38627" lon="5.80292">
        <ele>1568.53</ele>
        <time>2017-04-22T10:15:19Z</time>
      </trkpt>
      <trkpt lat="45.38629" lon="5.80306">
        <ele>1572.85</ele>
        <time>2017-04-22T10:15:36Z</time>
      </trkpt>
      <trkpt lat="45.38627" lon="5.8032">
        <ele>1576.22</ele>
        <time>2017-04-22T10:15:52Z</time>
      </trkpt>
      <trkpt lat="45.38629" lon="5.80331">
        <ele>1580.54</ele>
        <time>2017-04-22T10:16:07Z</time>
      </trkpt>
      <trkpt lat="45.38629" lon="5.80342">
        <ele>1583.91</ele>
        <time>2017-04-22T10:16:20Z</time>
      </trkpt>
      <trkpt lat="45.38633" lon="5.80349">
        <ele>1588.24</ele>
        <time>2017-04-22T10:16:33Z</time>
      </trkpt>
      <trkpt lat="45.38635" lon="5.80357">
        <ele>1590.64</ele>
        <time>2017-04-22T10:16:45Z</time>
      </trkpt>
      <trkpt lat="45.38633" lon="5.80365">
        <ele>1593.04</ele>
        <time>2017-04-22T10:16:56Z</time>
      </trkpt>
      <trkpt lat="45.38631" lon="5.8037">
        <ele>1594.48</ele>
        <time>2017-04-22T10:17:02Z</time>
      </trkpt>
      <trkpt lat="45.38623" lon="5.80385">
        <ele>1596.89</ele>
        <time>2017-04-22T10:17:19Z</time>
      </trkpt>
      <trkpt lat="45.38619" lon="5.804">
        <ele>1600.73</ele>
        <time>2017-04-22T10:17:34Z</time>
      </trkpt>
      <trkpt lat="45.38615" lon="5.80413">
        <ele>1604.1</ele>
        <time>2017-04-22T10:17:49Z</time>
      </trkpt>
      <trkpt lat="45.38619" lon="5.80416">
        <ele>1609.38</ele>
        <time>2017-04-22T10:18:01Z</time>
      </trkpt>
      <trkpt lat="45.38627" lon="5.80412">
        <ele>1614.67</ele>
        <time>2017-04-22T10:18:15Z</time>
      </trkpt>
      <trkpt lat="45.38641" lon="5.8041">
        <ele>1619.96</ele>
        <time>2017-04-22T10:18:32Z</time>
      </trkpt>
      <trkpt lat="45.38652" lon="5.80414">
        <ele>1622.36</ele>
        <time>2017-04-22T10:18:46Z</time>
      </trkpt>
      <trkpt lat="45.3866" lon="5.80414">
        <ele>1625.73</ele>
        <time>2017-04-22T10:18:56Z</time>
      </trkpt>
      <trkpt lat="45.38661" lon="5.80415">
        <ele>1625.73</ele>
        <time>2017-04-22T10:18:57Z</time>
      </trkpt>
      <trkpt lat="45.38672" lon="5.80424">
        <ele>1629.57</ele>
        <time>2017-04-22T10:19:14Z</time>
      </trkpt>
      <trkpt lat="45.38668" lon="5.80431">
        <ele>1631.01</ele>
        <time>2017-04-22T10:19:27Z</time>
      </trkpt>
      <trkpt lat="45.38676" lon="5.80441">
        <ele>1636.3</ele>
        <time>2017-04-22T10:19:45Z</time>
      </trkpt>
      <trkpt lat="45.38675" lon="5.80446">
        <ele>1638.22</ele>
        <time>2017-04-22T10:19:56Z</time>
      </trkpt>
      <trkpt lat="45.38674" lon="5.80454">
        <ele>1640.63</ele>
        <time>2017-04-22T10:20:09Z</time>
      </trkpt>
      <trkpt lat="45.3868" lon="5.80461">
        <ele>1643.03</ele>
        <time>2017-04-22T10:20:22Z</time>
      </trkpt>
      <trkpt lat="45.38681" lon="5.80467">
        <ele>1645.91</ele>
        <time>2017-04-22T10:20:34Z</time>
      </trkpt>
      <trkpt lat="45.3869" lon="5.80475">
        <ele>1648.32</ele>
        <time>2017-04-22T10:20:50Z</time>
      </trkpt>
      <trkpt lat="45.38686" lon="5.80481">
        <ele>1651.68</ele>
        <time>2017-04-22T10:21:05Z</time>
      </trkpt>
      <trkpt lat="45.3869" lon="5.80487">
        <ele>1656.01</ele>
        <time>2017-04-22T10:21:19Z</time>
      </trkpt>
      <trkpt lat="45.38693" lon="5.80493">
        <ele>1658.89</ele>
        <time>2017-04-22T10:21:31Z</time>
      </trkpt>
      <trkpt lat="45.38692" lon="5.80501">
        <ele>1663.22</ele>
        <time>2017-04-22T10:21:46Z</time>
      </trkpt>
      <trkpt lat="45.38692" lon="5.80506">
        <ele>1666.1</ele>
        <time>2017-04-22T10:21:59Z</time>
      </trkpt>
      <trkpt lat="45.38687" lon="5.8051">
        <ele>1668.51</ele>
        <time>2017-04-22T10:22:11Z</time>
      </trkpt>
      <trkpt lat="45.38683" lon="5.80517">
        <ele>1670.91</ele>
        <time>2017-04-22T10:22:25Z</time>
      </trkpt>
      <trkpt lat="45.38677" lon="5.80522">
        <ele>1674.27</ele>
        <time>2017-04-22T10:22:38Z</time>
      </trkpt>
      <trkpt lat="45.38675" lon="5.80527">
        <ele>1677.64</ele>
        <time>2017-04-22T10:22:51Z</time>
      </trkpt>
      <trkpt lat="45.38674" lon="5.8053">
        <ele>1681</ele>
        <time>2017-04-22T10:23:03Z</time>
      </trkpt>
      <trkpt lat="45.38671" lon="5.80532">
        <ele>1682.44</ele>
        <time>2017-04-22T10:23:11Z</time>
      </trkpt>
      <trkpt lat="45.38669" lon="5.80532">
        <ele>1683.41</ele>
        <time>2017-04-22T10:23:20Z</time>
      </trkpt>
      <trkpt lat="45.38668" lon="5.80537">
        <ele>1684.85</ele>
        <time>2017-04-22T10:23:30Z</time>
      </trkpt>
      <trkpt lat="45.3867" lon="5.8054">
        <ele>1688.21</ele>
        <time>2017-04-22T10:23:45Z</time>
      </trkpt>
      <trkpt lat="45.3867" lon="5.80545">
        <ele>1690.14</ele>
        <time>2017-04-22T10:24:01Z</time>
      </trkpt>
      <trkpt lat="45.38668" lon="5.80546">
        <ele>1690.62</ele>
        <time>2017-04-22T10:24:13Z</time>
      </trkpt>
      <trkpt lat="45.38666" lon="5.80545">
        <ele>1691.58</ele>
        <time>2017-04-22T10:24:26Z</time>
      </trkpt>
      <trkpt lat="45.38665" lon="5.80547">
        <ele>1695.9</ele>
        <time>2017-04-22T10:24:36Z</time>
      </trkpt>
      <trkpt lat="45.38664" lon="5.80549">
        <ele>1701.67</ele>
        <time>2017-04-22T10:24:47Z</time>
      </trkpt>
      <trkpt lat="45.38664" lon="5.80555">
        <ele>1706.96</ele>
        <time>2017-04-22T10:24:59Z</time>
      </trkpt>
      <trkpt lat="45.38662" lon="5.80556">
        <ele>1708.4</ele>
        <time>2017-04-22T10:25:13Z</time>
      </trkpt>
      <trkpt lat="45.38659" lon="5.80557">
        <ele>1708.88</ele>
        <time>2017-04-22T10:25:33Z</time>
      </trkpt>
      <trkpt lat="45.3866" lon="5.80558">
        <ele>1712.73</ele>
        <time>2017-04-22T10:25:48Z</time>
      </trkpt>
      <trkpt lat="45.3866" lon="5.80562">
        <ele>1715.13</ele>
        <time>2017-04-22T10:26:01Z</time>
      </trkpt>
      <trkpt lat="45.3866" lon="5.80562">
        <ele>1717.05</ele>
        <time>2017-04-22T10:26:12Z</time>
      </trkpt>
      <trkpt lat="45.38664" lon="5.80567">
        <ele>1720.42</ele>
        <time>2017-04-22T10:26:24Z</time>
      </trkpt>
      <trkpt lat="45.38664" lon="5.80571">
        <ele>1721.86</ele>
        <time>2017-04-22T10:26:28Z</time>
      </trkpt>
      <trkpt lat="45.38662" lon="5.80575">
        <ele>1723.3</ele>
        <time>2017-04-22T10:26:38Z</time>
      </trkpt>
      <trkpt lat="45.38664" lon="5.80578">
        <ele>1725.22</ele>
        <time>2017-04-22T10:26:48Z</time>
      </trkpt>
      <trkpt lat="45.38667" lon="5.80578">
        <ele>1731.47</ele>
        <time>2017-04-22T10:27:01Z</time>
      </trkpt>
      <trkpt lat="45.38669" lon="5.80579">
        <ele>1733.39</ele>
        <time>2017-04-22T10:27:10Z</time>
      </trkpt>
      <trkpt lat="45.3867" lon="5.8058">
        <ele>1733.39</ele>
        <time>2017-04-22T10:27:11Z</time>
      </trkpt>
      <trkpt lat="45.38679" lon="5.80589">
        <ele>1736.28</ele>
        <time>2017-04-22T10:27:26Z</time>
      </trkpt>
      <trkpt lat="45.3868" lon="5.80589">
        <ele>1736.76</ele>
        <time>2017-04-22T10:27:27Z</time>
      </trkpt>
      <trkpt lat="45.38685" lon="5.8059">
        <ele>1737.72</ele>
        <time>2017-04-22T10:27:33Z</time>
      </trkpt>
      <trkpt lat="45.38686" lon="5.8059">
        <ele>1737.72</ele>
        <time>2017-04-22T10:27:34Z</time>
      </trkpt>
      <trkpt lat="45.38688" lon="5.80589">
        <ele>1738.2</ele>
        <time>2017-04-22T10:27:35Z</time>
      </trkpt>
      <trkpt lat="45.38695" lon="5.8059">
        <ele>1741.08</ele>
        <time>2017-04-22T10:27:47Z</time>
      </trkpt>
      <trkpt lat="45.38702" lon="5.80585">
        <ele>1745.41</ele>
        <time>2017-04-22T10:27:59Z</time>
      </trkpt>
      <trkpt lat="45.38709" lon="5.80581">
        <ele>1747.33</ele>
        <time>2017-04-22T10:28:09Z</time>
      </trkpt>
      <trkpt lat="45.38718" lon="5.80574">
        <ele>1749.26</ele>
        <time>2017-04-22T10:28:21Z</time>
      </trkpt>
      <trkpt lat="45.38728" lon="5.8057">
        <ele>1753.1</ele>
        <time>2017-04-22T10:28:35Z</time>
      </trkpt>
      <trkpt lat="45.38735" lon="5.80562">
        <ele>1755.5</ele>
        <time>2017-04-22T10:28:47Z</time>
      </trkpt>
      <trkpt lat="45.38744" lon="5.80558">
        <ele>1758.39</ele>
        <time>2017-04-22T10:29:00Z</time>
      </trkpt>
      <trkpt lat="45.38756" lon="5.80553">
        <ele>1761.27</ele>
        <time>2017-04-22T10:29:15Z</time>
      </trkpt>
      <trkpt lat="45.38768" lon="5.80548">
        <ele>1763.2</ele>
        <time>2017-04-22T10:29:28Z</time>
      </trkpt>
      <trkpt lat="45.3877" lon="5.80548">
        <ele>1763.2</ele>
        <time>2017-04-22T10:29:30Z</time>
      </trkpt>
      <trkpt lat="45.38777" lon="5.80543">
        <ele>1764.64</ele>
        <time>2017-04-22T10:29:37Z</time>
      </trkpt>
      <trkpt lat="45.38783" lon="5.80536">
        <ele>1766.08</ele>
        <time>2017-04-22T10:29:45Z</time>
      </trkpt>
      <trkpt lat="45.38791" lon="5.80526">
        <ele>1769.44</ele>
        <time>2017-04-22T10:29:59Z</time>
      </trkpt>
      <trkpt lat="45.38793" lon="5.80524">
        <ele>1768.48</ele>
        <time>2017-04-22T10:30:17Z</time>
      </trkpt>
      <trkpt lat="45.38794" lon="5.80524">
        <ele>1768</ele>
        <time>2017-04-22T10:30:34Z</time>
      </trkpt>
      <trkpt lat="45.38795" lon="5.80523">
        <ele>1767.52</ele>
        <time>2017-04-22T10:30:53Z</time>
      </trkpt>
      <trkpt lat="45.38795" lon="5.80523">
        <ele>1768.48</ele>
        <time>2017-04-22T10:31:14Z</time>
      </trkpt>
      <trkpt lat="45.38794" lon="5.80522">
        <ele>1769.44</ele>
        <time>2017-04-22T10:31:49Z</time>
      </trkpt>
      <trkpt lat="45.38795" lon="5.80523">
        <ele>1771.37</ele>
        <time>2017-04-22T10:32:27Z</time>
      </trkpt>
      <trkpt lat="45.38795" lon="5.80522">
        <ele>1770.41</ele>
        <time>2017-04-22T10:32:48Z</time>
      </trkpt>
      <trkpt lat="45.38796" lon="5.80523">
        <ele>1772.33</ele>
        <time>2017-04-22T10:33:16Z</time>
      </trkpt>
      <trkpt lat="45.38796" lon="5.80524">
        <ele>1771.85</ele>
        <time>2017-04-22T10:33:56Z</time>
      </trkpt>
      <trkpt lat="45.38795" lon="5.80524">
        <ele>1768.48</ele>
        <time>2017-04-22T10:34:19Z</time>
      </trkpt>
      <trkpt lat="45.38795" lon="5.80523">
        <ele>1767.52</ele>
        <time>2017-04-22T10:35:08Z</time>
      </trkpt>
      <trkpt lat="45.38794" lon="5.80522">
        <ele>1768</ele>
        <time>2017-04-22T10:35:35Z</time>
      </trkpt>
      <trkpt lat="45.38794" lon="5.80523">
        <ele>1767.04</ele>
        <time>2017-04-22T10:36:11Z</time>
      </trkpt>
      <trkpt lat="45.38794" lon="5.80524">
        <ele>1766.08</ele>
        <time>2017-04-22T10:36:41Z</time>
      </trkpt>
      <trkpt lat="45.38794" lon="5.80524">
        <ele>1766.08</ele>
        <time>2017-04-22T10:37:06Z</time>
      </trkpt>
      <trkpt lat="45.38794" lon="5.80524">
        <ele>1767.52</ele>
        <time>2017-04-22T10:37:22Z</time>
      </trkpt>
      <trkpt lat="45.38794" lon="5.80523">
        <ele>1769.44</ele>
        <time>2017-04-22T10:37:34Z</time>
      </trkpt>
      <trkpt lat="45.38793" lon="5.80531">
        <ele>1767.04</ele>
        <time>2017-04-22T10:37:39Z</time>
      </trkpt>
      <trkpt lat="45.3879" lon="5.80536">
        <ele>1764.16</ele>
        <time>2017-04-22T10:37:43Z</time>
      </trkpt>
      <trkpt lat="45.38787" lon="5.80544">
        <ele>1761.75</ele>
        <time>2017-04-22T10:37:48Z</time>
      </trkpt>
      <trkpt lat="45.38783" lon="5.80555">
        <ele>1758.87</ele>
        <time>2017-04-22T10:37:54Z</time>
      </trkpt>
      <trkpt lat="45.3878" lon="5.8056">
        <ele>1757.91</ele>
        <time>2017-04-22T10:37:57Z</time>
      </trkpt>
      <trkpt lat="45.38774" lon="5.80573">
        <ele>1755.02</ele>
        <time>2017-04-22T10:38:03Z</time>
      </trkpt>
      <trkpt lat="45.38773" lon="5.80575">
        <ele>1754.54</ele>
        <time>2017-04-22T10:38:04Z</time>
      </trkpt>
      <trkpt lat="45.38756" lon="5.80604">
        <ele>1753.58</ele>
        <time>2017-04-22T10:38:18Z</time>
      </trkpt>
      <trkpt lat="45.38749" lon="5.8063">
        <ele>1750.7</ele>
        <time>2017-04-22T10:38:28Z</time>
      </trkpt>
      <trkpt lat="45.38748" lon="5.80632">
        <ele>1750.7</ele>
        <time>2017-04-22T10:38:29Z</time>
      </trkpt>
      <trkpt lat="45.38747" lon="5.80634">
        <ele>1750.22</ele>
        <time>2017-04-22T10:38:30Z</time>
      </trkpt>
      <trkpt lat="45.38743" lon="5.80641">
        <ele>1749.26</ele>
        <time>2017-04-22T10:38:35Z</time>
      </trkpt>
      <trkpt lat="45.38742" lon="5.80644">
        <ele>1748.78</ele>
        <time>2017-04-22T10:38:37Z</time>
      </trkpt>
      <trkpt lat="45.38739" lon="5.80652">
        <ele>1747.81</ele>
        <time>2017-04-22T10:38:43Z</time>
      </trkpt>
      <trkpt lat="45.38738" lon="5.80653">
        <ele>1747.33</ele>
        <time>2017-04-22T10:38:44Z</time>
      </trkpt>
      <trkpt lat="45.38737" lon="5.80654">
        <ele>1746.85</ele>
        <time>2017-04-22T10:38:45Z</time>
      </trkpt>
      <trkpt lat="45.38736" lon="5.80655">
        <ele>1746.85</ele>
        <time>2017-04-22T10:38:46Z</time>
      </trkpt>
      <trkpt lat="45.38736" lon="5.80656">
        <ele>1746.37</ele>
        <time>2017-04-22T10:38:47Z</time>
      </trkpt>
      <trkpt lat="45.38735" lon="5.80658">
        <ele>1746.37</ele>
        <time>2017-04-22T10:38:48Z</time>
      </trkpt>
      <trkpt lat="45.38734" lon="5.80659">
        <ele>1745.89</ele>
        <time>2017-04-22T10:38:49Z</time>
      </trkpt>
      <trkpt lat="45.38733" lon="5.8066">
        <ele>1745.41</ele>
        <time>2017-04-22T10:38:50Z</time>
      </trkpt>
      <trkpt lat="45.38732" lon="5.80661">
        <ele>1744.93</ele>
        <time>2017-04-22T10:38:51Z</time>
      </trkpt>
      <trkpt lat="45.38731" lon="5.80662">
        <ele>1744.93</ele>
        <time>2017-04-22T10:38:52Z</time>
      </trkpt>
      <trkpt lat="45.3873" lon="5.80663">
        <ele>1743.97</ele>
        <time>2017-04-22T10:38:53Z</time>
      </trkpt>
      <trkpt lat="45.38729" lon="5.80665">
        <ele>1743.97</ele>
        <time>2017-04-22T10:38:54Z</time>
      </trkpt>
      <trkpt lat="45.38728" lon="5.80666">
        <ele>1743.49</ele>
        <time>2017-04-22T10:38:55Z</time>
      </trkpt>
      <trkpt lat="45.38727" lon="5.80667">
        <ele>1743.01</ele>
        <time>2017-04-22T10:38:56Z</time>
      </trkpt>
      <trkpt lat="45.38726" lon="5.80667">
        <ele>1742.53</ele>
        <time>2017-04-22T10:38:57Z</time>
      </trkpt>
      <trkpt lat="45.38724" lon="5.8067">
        <ele>1741.57</ele>
        <time>2017-04-22T10:38:59Z</time>
      </trkpt>
      <trkpt lat="45.38717" lon="5.80682">
        <ele>1737.24</ele>
        <time>2017-04-22T10:39:10Z</time>
      </trkpt>
      <trkpt lat="45.38716" lon="5.80683">
        <ele>1736.76</ele>
        <time>2017-04-22T10:39:11Z</time>
      </trkpt>
      <trkpt lat="45.38715" lon="5.80685">
        <ele>1736.28</ele>
        <time>2017-04-22T10:39:12Z</time>
      </trkpt>
      <trkpt lat="45.38715" lon="5.80687">
        <ele>1736.28</ele>
        <time>2017-04-22T10:39:13Z</time>
      </trkpt>
      <trkpt lat="45.38714" lon="5.80688">
        <ele>1735.8</ele>
        <time>2017-04-22T10:39:14Z</time>
      </trkpt>
      <trkpt lat="45.3871" lon="5.80707">
        <ele>1730.03</ele>
        <time>2017-04-22T10:39:25Z</time>
      </trkpt>
      <trkpt lat="45.3871" lon="5.80708">
        <ele>1729.07</ele>
        <time>2017-04-22T10:39:26Z</time>
      </trkpt>
      <trkpt lat="45.38709" lon="5.8071">
        <ele>1728.59</ele>
        <time>2017-04-22T10:39:27Z</time>
      </trkpt>
      <trkpt lat="45.38709" lon="5.80713">
        <ele>1727.63</ele>
        <time>2017-04-22T10:39:29Z</time>
      </trkpt>
      <trkpt lat="45.38709" lon="5.80716">
        <ele>1726.18</ele>
        <time>2017-04-22T10:39:31Z</time>
      </trkpt>
      <trkpt lat="45.38708" lon="5.80722">
        <ele>1723.78</ele>
        <time>2017-04-22T10:39:36Z</time>
      </trkpt>
      <trkpt lat="45.38708" lon="5.80723">
        <ele>1723.3</ele>
        <time>2017-04-22T10:39:37Z</time>
      </trkpt>
      <trkpt lat="45.38708" lon="5.80724">
        <ele>1722.82</ele>
        <time>2017-04-22T10:39:38Z</time>
      </trkpt>
      <trkpt lat="45.38707" lon="5.80726">
        <ele>1721.86</ele>
        <time>2017-04-22T10:39:39Z</time>
      </trkpt>
      <trkpt lat="45.38707" lon="5.80728">
        <ele>1721.38</ele>
        <time>2017-04-22T10:39:40Z</time>
      </trkpt>
      <trkpt lat="45.38706" lon="5.8074">
        <ele>1718.49</ele>
        <time>2017-04-22T10:39:46Z</time>
      </trkpt>
      <trkpt lat="45.38707" lon="5.80742">
        <ele>1718.01</ele>
        <time>2017-04-22T10:39:47Z</time>
      </trkpt>
      <trkpt lat="45.38708" lon="5.80744">
        <ele>1717.53</ele>
        <time>2017-04-22T10:39:48Z</time>
      </trkpt>
      <trkpt lat="45.38711" lon="5.80783">
        <ele>1711.28</ele>
        <time>2017-04-22T10:40:04Z</time>
      </trkpt>
      <trkpt lat="45.38715" lon="5.8082">
        <ele>1705.52</ele>
        <time>2017-04-22T10:40:18Z</time>
      </trkpt>
      <trkpt lat="45.38717" lon="5.80857">
        <ele>1701.19</ele>
        <time>2017-04-22T10:40:31Z</time>
      </trkpt>
      <trkpt lat="45.38718" lon="5.80866">
        <ele>1700.23</ele>
        <time>2017-04-22T10:40:34Z</time>
      </trkpt>
      <trkpt lat="45.38718" lon="5.8087">
        <ele>1699.75</ele>
        <time>2017-04-22T10:40:35Z</time>
      </trkpt>
      <trkpt lat="45.38718" lon="5.80872">
        <ele>1699.75</ele>
        <time>2017-04-22T10:40:36Z</time>
      </trkpt>
      <trkpt lat="45.38717" lon="5.80874">
        <ele>1699.75</ele>
        <time>2017-04-22T10:40:37Z</time>
      </trkpt>
      <trkpt lat="45.38717" lon="5.80876">
        <ele>1700.23</ele>
        <time>2017-04-22T10:40:38Z</time>
      </trkpt>
      <trkpt lat="45.38716" lon="5.80878">
        <ele>1700.71</ele>
        <time>2017-04-22T10:40:39Z</time>
      </trkpt>
      <trkpt lat="45.38716" lon="5.8088">
        <ele>1701.19</ele>
        <time>2017-04-22T10:40:40Z</time>
      </trkpt>
      <trkpt lat="45.38715" lon="5.80882">
        <ele>1701.67</ele>
        <time>2017-04-22T10:40:41Z</time>
      </trkpt>
      <trkpt lat="45.38714" lon="5.80883">
        <ele>1701.67</ele>
        <time>2017-04-22T10:40:42Z</time>
      </trkpt>
      <trkpt lat="45.38702" lon="5.80917">
        <ele>1703.59</ele>
        <time>2017-04-22T10:41:02Z</time>
      </trkpt>
      <trkpt lat="45.38694" lon="5.80941">
        <ele>1707.92</ele>
        <time>2017-04-22T10:41:19Z</time>
      </trkpt>
      <trkpt lat="45.38694" lon="5.80942">
        <ele>1708.4</ele>
        <time>2017-04-22T10:41:20Z</time>
      </trkpt>
      <trkpt lat="45.38686" lon="5.80959">
        <ele>1712.25</ele>
        <time>2017-04-22T10:41:36Z</time>
      </trkpt>
      <trkpt lat="45.38682" lon="5.80965">
        <ele>1714.65</ele>
        <time>2017-04-22T10:41:44Z</time>
      </trkpt>
      <trkpt lat="45.38673" lon="5.8098">
        <ele>1718.49</ele>
        <time>2017-04-22T10:41:59Z</time>
      </trkpt>
      <trkpt lat="45.38665" lon="5.80998">
        <ele>1721.86</ele>
        <time>2017-04-22T10:42:17Z</time>
      </trkpt>
      <trkpt lat="45.38659" lon="5.81013">
        <ele>1725.22</ele>
        <time>2017-04-22T10:42:31Z</time>
      </trkpt>
      <trkpt lat="45.38652" lon="5.81025">
        <ele>1728.59</ele>
        <time>2017-04-22T10:42:46Z</time>
      </trkpt>
      <trkpt lat="45.38646" lon="5.81033">
        <ele>1731.95</ele>
        <time>2017-04-22T10:42:58Z</time>
      </trkpt>
      <trkpt lat="45.38641" lon="5.81043">
        <ele>1735.32</ele>
        <time>2017-04-22T10:43:11Z</time>
      </trkpt>
      <trkpt lat="45.38635" lon="5.81055">
        <ele>1738.68</ele>
        <time>2017-04-22T10:43:26Z</time>
      </trkpt>
      <trkpt lat="45.38629" lon="5.81063">
        <ele>1738.2</ele>
        <time>2017-04-22T10:43:38Z</time>
      </trkpt>
      <trkpt lat="45.38624" lon="5.81068">
        <ele>1735.8</ele>
        <time>2017-04-22T10:43:52Z</time>
      </trkpt>
      <trkpt lat="45.38621" lon="5.81074">
        <ele>1734.36</ele>
        <time>2017-04-22T10:44:05Z</time>
      </trkpt>
      <trkpt lat="45.3862" lon="5.81075">
        <ele>1734.36</ele>
        <time>2017-04-22T10:44:06Z</time>
      </trkpt>
      <trkpt lat="45.38619" lon="5.81076">
        <ele>1733.88</ele>
        <time>2017-04-22T10:44:07Z</time>
      </trkpt>
      <trkpt lat="45.38619" lon="5.81077">
        <ele>1732.91</ele>
        <time>2017-04-22T10:44:08Z</time>
      </trkpt>
      <trkpt lat="45.38618" lon="5.81078">
        <ele>1732.43</ele>
        <time>2017-04-22T10:44:09Z</time>
      </trkpt>
      <trkpt lat="45.38617" lon="5.81079">
        <ele>1731.95</ele>
        <time>2017-04-22T10:44:10Z</time>
      </trkpt>
      <trkpt lat="45.38616" lon="5.8108">
        <ele>1731.95</ele>
        <time>2017-04-22T10:44:11Z</time>
      </trkpt>
      <trkpt lat="45.38616" lon="5.81081">
        <ele>1731.47</ele>
        <time>2017-04-22T10:44:12Z</time>
      </trkpt>
      <trkpt lat="45.38615" lon="5.81082">
        <ele>1730.99</ele>
        <time>2017-04-22T10:44:13Z</time>
      </trkpt>
      <trkpt lat="45.38609" lon="5.8109">
        <ele>1729.07</ele>
        <time>2017-04-22T10:44:22Z</time>
      </trkpt>
      <trkpt lat="45.38607" lon="5.81092">
        <ele>1728.11</ele>
        <time>2017-04-22T10:44:25Z</time>
      </trkpt>
      <trkpt lat="45.38596" lon="5.8111">
        <ele>1724.74</ele>
        <time>2017-04-22T10:44:40Z</time>
      </trkpt>
      <trkpt lat="45.3859" lon="5.8112">
        <ele>1722.34</ele>
        <time>2017-04-22T10:44:53Z</time>
      </trkpt>
      <trkpt lat="45.38583" lon="5.81128">
        <ele>1720.9</ele>
        <time>2017-04-22T10:45:06Z</time>
      </trkpt>
      <trkpt lat="45.38576" lon="5.8114">
        <ele>1717.53</ele>
        <time>2017-04-22T10:45:19Z</time>
      </trkpt>
      <trkpt lat="45.38571" lon="5.81152">
        <ele>1714.65</ele>
        <time>2017-04-22T10:45:31Z</time>
      </trkpt>
      <trkpt lat="45.3857" lon="5.81153">
        <ele>1714.65</ele>
        <time>2017-04-22T10:45:32Z</time>
      </trkpt>
      <trkpt lat="45.3857" lon="5.81155">
        <ele>1714.17</ele>
        <time>2017-04-22T10:45:33Z</time>
      </trkpt>
      <trkpt lat="45.38569" lon="5.81156">
        <ele>1713.69</ele>
        <time>2017-04-22T10:45:34Z</time>
      </trkpt>
      <trkpt lat="45.38568" lon="5.81157">
        <ele>1713.69</ele>
        <time>2017-04-22T10:45:35Z</time>
      </trkpt>
      <trkpt lat="45.38567" lon="5.81159">
        <ele>1713.21</ele>
        <time>2017-04-22T10:45:36Z</time>
      </trkpt>
      <trkpt lat="45.38567" lon="5.8116">
        <ele>1712.73</ele>
        <time>2017-04-22T10:45:37Z</time>
      </trkpt>
      <trkpt lat="45.38567" lon="5.81162">
        <ele>1712.25</ele>
        <time>2017-04-22T10:45:38Z</time>
      </trkpt>
      <trkpt lat="45.38566" lon="5.81163">
        <ele>1711.76</ele>
        <time>2017-04-22T10:45:39Z</time>
      </trkpt>
      <trkpt lat="45.38565" lon="5.81164">
        <ele>1711.76</ele>
        <time>2017-04-22T10:45:40Z</time>
      </trkpt>
      <trkpt lat="45.38565" lon="5.81165">
        <ele>1711.28</ele>
        <time>2017-04-22T10:45:41Z</time>
      </trkpt>
      <trkpt lat="45.3856" lon="5.81177">
        <ele>1709.36</ele>
        <time>2017-04-22T10:45:52Z</time>
      </trkpt>
      <trkpt lat="45.38559" lon="5.81177">
        <ele>1708.88</ele>
        <time>2017-04-22T10:45:53Z</time>
      </trkpt>
      <trkpt lat="45.38555" lon="5.81183">
        <ele>1706.48</ele>
        <time>2017-04-22T10:45:59Z</time>
      </trkpt>
      <trkpt lat="45.38541" lon="5.81198">
        <ele>1701.67</ele>
        <time>2017-04-22T10:46:13Z</time>
      </trkpt>
      <trkpt lat="45.38527" lon="5.81202">
        <ele>1700.23</ele>
        <time>2017-04-22T10:46:23Z</time>
      </trkpt>
      <trkpt lat="45.38526" lon="5.81203">
        <ele>1700.23</ele>
        <time>2017-04-22T10:46:24Z</time>
      </trkpt>
      <trkpt lat="45.38525" lon="5.81204">
        <ele>1699.75</ele>
        <time>2017-04-22T10:46:25Z</time>
      </trkpt>
      <trkpt lat="45.38521" lon="5.81208">
        <ele>1699.75</ele>
        <time>2017-04-22T10:46:29Z</time>
      </trkpt>
      <trkpt lat="45.38513" lon="5.81217">
        <ele>1696.86</ele>
        <time>2017-04-22T10:46:37Z</time>
      </trkpt>
      <trkpt lat="45.38512" lon="5.81218">
        <ele>1697.34</ele>
        <time>2017-04-22T10:46:38Z</time>
      </trkpt>
      <trkpt lat="45.38511" lon="5.81219">
        <ele>1697.34</ele>
        <time>2017-04-22T10:46:39Z</time>
      </trkpt>
      <trkpt lat="45.385" lon="5.8122">
        <ele>1696.86</ele>
        <time>2017-04-22T10:46:49Z</time>
      </trkpt>
      <trkpt lat="45.38495" lon="5.81219">
        <ele>1695.9</ele>
        <time>2017-04-22T10:46:53Z</time>
      </trkpt>
      <trkpt lat="45.38494" lon="5.8122">
        <ele>1695.9</ele>
        <time>2017-04-22T10:46:54Z</time>
      </trkpt>
      <trkpt lat="45.38492" lon="5.81221">
        <ele>1695.42</ele>
        <time>2017-04-22T10:46:55Z</time>
      </trkpt>
      <trkpt lat="45.38491" lon="5.81222">
        <ele>1695.42</ele>
        <time>2017-04-22T10:46:56Z</time>
      </trkpt>
      <trkpt lat="45.3849" lon="5.81224">
        <ele>1695.42</ele>
        <time>2017-04-22T10:46:57Z</time>
      </trkpt>
      <trkpt lat="45.38489" lon="5.81226">
        <ele>1694.94</ele>
        <time>2017-04-22T10:46:58Z</time>
      </trkpt>
      <trkpt lat="45.38488" lon="5.81227">
        <ele>1694.94</ele>
        <time>2017-04-22T10:46:59Z</time>
      </trkpt>
      <trkpt lat="45.38487" lon="5.81227">
        <ele>1694.46</ele>
        <time>2017-04-22T10:47:00Z</time>
      </trkpt>
      <trkpt lat="45.38486" lon="5.81226">
        <ele>1693.98</ele>
        <time>2017-04-22T10:47:01Z</time>
      </trkpt>
      <trkpt lat="45.38485" lon="5.81226">
        <ele>1693.5</ele>
        <time>2017-04-22T10:47:02Z</time>
      </trkpt>
      <trkpt lat="45.38484" lon="5.81225">
        <ele>1693.5</ele>
        <time>2017-04-22T10:47:03Z</time>
      </trkpt>
      <trkpt lat="45.38482" lon="5.81224">
        <ele>1693.02</ele>
        <time>2017-04-22T10:47:04Z</time>
      </trkpt>
      <trkpt lat="45.38481" lon="5.81223">
        <ele>1693.02</ele>
        <time>2017-04-22T10:47:05Z</time>
      </trkpt>
      <trkpt lat="45.38481" lon="5.81223">
        <ele>1692.54</ele>
        <time>2017-04-22T10:47:06Z</time>
      </trkpt>
      <trkpt lat="45.38479" lon="5.81223">
        <ele>1692.06</ele>
        <time>2017-04-22T10:47:07Z</time>
      </trkpt>
      <trkpt lat="45.38478" lon="5.81224">
        <ele>1692.06</ele>
        <time>2017-04-22T10:47:08Z</time>
      </trkpt>
      <trkpt lat="45.38477" lon="5.81225">
        <ele>1691.58</ele>
        <time>2017-04-22T10:47:09Z</time>
      </trkpt>
      <trkpt lat="45.38476" lon="5.81226">
        <ele>1691.1</ele>
        <time>2017-04-22T10:47:10Z</time>
      </trkpt>
      <trkpt lat="45.38469" lon="5.81235">
        <ele>1687.25</ele>
        <time>2017-04-22T10:47:21Z</time>
      </trkpt>
      <trkpt lat="45.38469" lon="5.81237">
        <ele>1686.77</ele>
        <time>2017-04-22T10:47:22Z</time>
      </trkpt>
      <trkpt lat="45.38469" lon="5.81239">
        <ele>1686.77</ele>
        <time>2017-04-22T10:47:23Z</time>
      </trkpt>
      <trkpt lat="45.38469" lon="5.8124">
        <ele>1686.77</ele>
        <time>2017-04-22T10:47:24Z</time>
      </trkpt>
      <trkpt lat="45.38466" lon="5.81245">
        <ele>1684.37</ele>
        <time>2017-04-22T10:47:32Z</time>
      </trkpt>
      <trkpt lat="45.38462" lon="5.81242">
        <ele>1682.93</ele>
        <time>2017-04-22T10:47:38Z</time>
      </trkpt>
      <trkpt lat="45.38462" lon="5.81243">
        <ele>1682.44</ele>
        <time>2017-04-22T10:47:39Z</time>
      </trkpt>
      <trkpt lat="45.3846" lon="5.81243">
        <ele>1682.44</ele>
        <time>2017-04-22T10:47:40Z</time>
      </trkpt>
      <trkpt lat="45.38459" lon="5.81243">
        <ele>1681.96</ele>
        <time>2017-04-22T10:47:41Z</time>
      </trkpt>
      <trkpt lat="45.38453" lon="5.81247">
        <ele>1679.08</ele>
        <time>2017-04-22T10:47:47Z</time>
      </trkpt>
      <trkpt lat="45.38443" lon="5.81258">
        <ele>1673.31</ele>
        <time>2017-04-22T10:47:59Z</time>
      </trkpt>
      <trkpt lat="45.38437" lon="5.81272">
        <ele>1668.51</ele>
        <time>2017-04-22T10:48:11Z</time>
      </trkpt>
      <trkpt lat="45.38438" lon="5.81274">
        <ele>1668.02</ele>
        <time>2017-04-22T10:48:12Z</time>
      </trkpt>
      <trkpt lat="45.38438" lon="5.81276">
        <ele>1667.54</ele>
        <time>2017-04-22T10:48:13Z</time>
      </trkpt>
      <trkpt lat="45.38438" lon="5.81277">
        <ele>1667.06</ele>
        <time>2017-04-22T10:48:14Z</time>
      </trkpt>
      <trkpt lat="45.38438" lon="5.81279">
        <ele>1666.58</ele>
        <time>2017-04-22T10:48:15Z</time>
      </trkpt>
      <trkpt lat="45.38438" lon="5.8128">
        <ele>1666.1</ele>
        <time>2017-04-22T10:48:16Z</time>
      </trkpt>
      <trkpt lat="45.38438" lon="5.81282">
        <ele>1666.1</ele>
        <time>2017-04-22T10:48:17Z</time>
      </trkpt>
      <trkpt lat="45.38438" lon="5.81284">
        <ele>1665.62</ele>
        <time>2017-04-22T10:48:18Z</time>
      </trkpt>
      <trkpt lat="45.38438" lon="5.81288">
        <ele>1664.18</ele>
        <time>2017-04-22T10:48:21Z</time>
      </trkpt>
      <trkpt lat="45.38438" lon="5.8129">
        <ele>1663.7</ele>
        <time>2017-04-22T10:48:22Z</time>
      </trkpt>
      <trkpt lat="45.38438" lon="5.81292">
        <ele>1663.22</ele>
        <time>2017-04-22T10:48:23Z</time>
      </trkpt>
      <trkpt lat="45.38438" lon="5.81294">
        <ele>1662.74</ele>
        <time>2017-04-22T10:48:24Z</time>
      </trkpt>
      <trkpt lat="45.38438" lon="5.81296">
        <ele>1662.26</ele>
        <time>2017-04-22T10:48:25Z</time>
      </trkpt>
      <trkpt lat="45.38438" lon="5.81298">
        <ele>1661.78</ele>
        <time>2017-04-22T10:48:26Z</time>
      </trkpt>
      <trkpt lat="45.38439" lon="5.813">
        <ele>1661.78</ele>
        <time>2017-04-22T10:48:27Z</time>
      </trkpt>
      <trkpt lat="45.38438" lon="5.81305">
        <ele>1660.81</ele>
        <time>2017-04-22T10:48:31Z</time>
      </trkpt>
      <trkpt lat="45.38438" lon="5.81306">
        <ele>1659.85</ele>
        <time>2017-04-22T10:48:32Z</time>
      </trkpt>
      <trkpt lat="45.38438" lon="5.81308">
        <ele>1659.37</ele>
        <time>2017-04-22T10:48:33Z</time>
      </trkpt>
      <trkpt lat="45.38438" lon="5.8131">
        <ele>1658.89</ele>
        <time>2017-04-22T10:48:34Z</time>
      </trkpt>
      <trkpt lat="45.38437" lon="5.81311">
        <ele>1658.41</ele>
        <time>2017-04-22T10:48:35Z</time>
      </trkpt>
      <trkpt lat="45.38436" lon="5.81317">
        <ele>1656.49</ele>
        <time>2017-04-22T10:48:39Z</time>
      </trkpt>
      <trkpt lat="45.38437" lon="5.81326">
        <ele>1653.6</ele>
        <time>2017-04-22T10:48:46Z</time>
      </trkpt>
      <trkpt lat="45.38437" lon="5.81337">
        <ele>1651.2</ele>
        <time>2017-04-22T10:48:55Z</time>
      </trkpt>
      <trkpt lat="45.38438" lon="5.81345">
        <ele>1648.8</ele>
        <time>2017-04-22T10:49:01Z</time>
      </trkpt>
      <trkpt lat="45.38438" lon="5.81346">
        <ele>1648.8</ele>
        <time>2017-04-22T10:49:02Z</time>
      </trkpt>
      <trkpt lat="45.38438" lon="5.81348">
        <ele>1648.8</ele>
        <time>2017-04-22T10:49:03Z</time>
      </trkpt>
      <trkpt lat="45.38439" lon="5.81349">
        <ele>1648.32</ele>
        <time>2017-04-22T10:49:04Z</time>
      </trkpt>
      <trkpt lat="45.38439" lon="5.81351">
        <ele>1648.32</ele>
        <time>2017-04-22T10:49:05Z</time>
      </trkpt>
      <trkpt lat="45.38439" lon="5.81353">
        <ele>1648.32</ele>
        <time>2017-04-22T10:49:06Z</time>
      </trkpt>
      <trkpt lat="45.38439" lon="5.81355">
        <ele>1647.84</ele>
        <time>2017-04-22T10:49:07Z</time>
      </trkpt>
      <trkpt lat="45.38439" lon="5.81358">
        <ele>1647.36</ele>
        <time>2017-04-22T10:49:08Z</time>
      </trkpt>
      <trkpt lat="45.3844" lon="5.8136">
        <ele>1646.4</ele>
        <time>2017-04-22T10:49:09Z</time>
      </trkpt>
      <trkpt lat="45.3844" lon="5.81363">
        <ele>1645.91</ele>
        <time>2017-04-22T10:49:10Z</time>
      </trkpt>
      <trkpt lat="45.38441" lon="5.81365">
        <ele>1645.43</ele>
        <time>2017-04-22T10:49:11Z</time>
      </trkpt>
      <trkpt lat="45.38441" lon="5.81367">
        <ele>1644.95</ele>
        <time>2017-04-22T10:49:12Z</time>
      </trkpt>
      <trkpt lat="45.38442" lon="5.81369">
        <ele>1644.95</ele>
        <time>2017-04-22T10:49:13Z</time>
      </trkpt>
      <trkpt lat="45.38448" lon="5.81394">
        <ele>1644.95</ele>
        <time>2017-04-22T10:49:27Z</time>
      </trkpt>
      <trkpt lat="45.3845" lon="5.81417">
        <ele>1644.47</ele>
        <time>2017-04-22T10:49:41Z</time>
      </trkpt>
      <trkpt lat="45.38448" lon="5.8142">
        <ele>1643.51</ele>
        <time>2017-04-22T10:49:48Z</time>
      </trkpt>
      <trkpt lat="45.38442" lon="5.8142">
        <ele>1642.55</ele>
        <time>2017-04-22T10:50:03Z</time>
      </trkpt>
      <trkpt lat="45.38441" lon="5.8142">
        <ele>1643.03</ele>
        <time>2017-04-22T10:50:22Z</time>
      </trkpt>
      <trkpt lat="45.38442" lon="5.81421">
        <ele>1643.99</ele>
        <time>2017-04-22T10:50:40Z</time>
      </trkpt>
      <trkpt lat="45.38442" lon="5.81423">
        <ele>1643.99</ele>
        <time>2017-04-22T10:50:44Z</time>
      </trkpt>
      <trkpt lat="45.38443" lon="5.81423">
        <ele>1643.99</ele>
        <time>2017-04-22T10:50:45Z</time>
      </trkpt>
      <trkpt lat="45.38444" lon="5.81424">
        <ele>1643.99</ele>
        <time>2017-04-22T10:50:46Z</time>
      </trkpt>
      <trkpt lat="45.38445" lon="5.81424">
        <ele>1643.99</ele>
        <time>2017-04-22T10:50:47Z</time>
      </trkpt>
      <trkpt lat="45.38446" lon="5.81425">
        <ele>1644.47</ele>
        <time>2017-04-22T10:50:48Z</time>
      </trkpt>
      <trkpt lat="45.38461" lon="5.81423">
        <ele>1642.55</ele>
        <time>2017-04-22T10:50:59Z</time>
      </trkpt>
      <trkpt lat="45.38468" lon="5.81427">
        <ele>1643.99</ele>
        <time>2017-04-22T10:51:06Z</time>
      </trkpt>
      <trkpt lat="45.38483" lon="5.81426">
        <ele>1646.88</ele>
        <time>2017-04-22T10:51:24Z</time>
      </trkpt>
      <trkpt lat="45.38484" lon="5.81424">
        <ele>1647.36</ele>
        <time>2017-04-22T10:51:41Z</time>
      </trkpt>
      <trkpt lat="45.38479" lon="5.81426">
        <ele>1646.4</ele>
        <time>2017-04-22T10:52:00Z</time>
      </trkpt>
      <trkpt lat="45.38481" lon="5.81424">
        <ele>1648.8</ele>
        <time>2017-04-22T10:52:31Z</time>
      </trkpt>
      <trkpt lat="45.38483" lon="5.81425">
        <ele>1650.72</ele>
        <time>2017-04-22T10:52:54Z</time>
      </trkpt>
      <trkpt lat="45.38483" lon="5.81424">
        <ele>1650.72</ele>
        <time>2017-04-22T10:53:20Z</time>
      </trkpt>
      <trkpt lat="45.38483" lon="5.81427">
        <ele>1649.28</ele>
        <time>2017-04-22T10:53:52Z</time>
      </trkpt>
      <trkpt lat="45.38484" lon="5.81425">
        <ele>1647.36</ele>
        <time>2017-04-22T10:54:20Z</time>
      </trkpt>
      <trkpt lat="45.38486" lon="5.81425">
        <ele>1645.91</ele>
        <time>2017-04-22T10:54:42Z</time>
      </trkpt>
      <trkpt lat="45.38486" lon="5.81425">
        <ele>1643.99</ele>
        <time>2017-04-22T10:55:03Z</time>
      </trkpt>
      <trkpt lat="45.38486" lon="5.81423">
        <ele>1644.47</ele>
        <time>2017-04-22T10:55:23Z</time>
      </trkpt>
      <trkpt lat="45.38485" lon="5.81423">
        <ele>1642.55</ele>
        <time>2017-04-22T10:55:42Z</time>
      </trkpt>
      <trkpt lat="45.38487" lon="5.81424">
        <ele>1644.47</ele>
        <time>2017-04-22T10:56:06Z</time>
      </trkpt>
      <trkpt lat="45.38489" lon="5.81421">
        <ele>1644.47</ele>
        <time>2017-04-22T10:56:27Z</time>
      </trkpt>
      <trkpt lat="45.38489" lon="5.81423">
        <ele>1646.4</ele>
        <time>2017-04-22T10:56:48Z</time>
      </trkpt>
      <trkpt lat="45.38485" lon="5.81425">
        <ele>1648.8</ele>
        <time>2017-04-22T10:57:09Z</time>
      </trkpt>
      <trkpt lat="45.38483" lon="5.81426">
        <ele>1652.16</ele>
        <time>2017-04-22T10:57:36Z</time>
      </trkpt>
      <trkpt lat="45.38483" lon="5.81427">
        <ele>1652.16</ele>
        <time>2017-04-22T10:58:04Z</time>
      </trkpt>
      <trkpt lat="45.38485" lon="5.81424">
        <ele>1649.76</ele>
        <time>2017-04-22T10:58:36Z</time>
      </trkpt>
      <trkpt lat="45.38482" lon="5.81424">
        <ele>1648.8</ele>
        <time>2017-04-22T10:59:01Z</time>
      </trkpt>
      <trkpt lat="45.38485" lon="5.81425">
        <ele>1646.88</ele>
        <time>2017-04-22T10:59:50Z</time>
      </trkpt>
      <trkpt lat="45.38482" lon="5.81426">
        <ele>1646.4</ele>
        <time>2017-04-22T11:00:30Z</time>
      </trkpt>
      <trkpt lat="45.38482" lon="5.81426">
        <ele>1648.32</ele>
        <time>2017-04-22T11:01:03Z</time>
      </trkpt>
      <trkpt lat="45.38483" lon="5.81428">
        <ele>1647.36</ele>
        <time>2017-04-22T11:01:34Z</time>
      </trkpt>
      <trkpt lat="45.38484" lon="5.81426">
        <ele>1645.91</ele>
        <time>2017-04-22T11:02:17Z</time>
      </trkpt>
      <trkpt lat="45.3848" lon="5.81427">
        <ele>1644.95</ele>
        <time>2017-04-22T11:02:58Z</time>
      </trkpt>
      <trkpt lat="45.38481" lon="5.81424">
        <ele>1645.91</ele>
        <time>2017-04-22T11:03:36Z</time>
      </trkpt>
      <trkpt lat="45.38486" lon="5.81423">
        <ele>1642.55</ele>
        <time>2017-04-22T11:04:15Z</time>
      </trkpt>
      <trkpt lat="45.38484" lon="5.81424">
        <ele>1645.43</ele>
        <time>2017-04-22T11:04:45Z</time>
      </trkpt>
      <trkpt lat="45.38483" lon="5.81425">
        <ele>1645.43</ele>
        <time>2017-04-22T11:05:18Z</time>
      </trkpt>
      <trkpt lat="45.38481" lon="5.81424">
        <ele>1646.4</ele>
        <time>2017-04-22T11:05:48Z</time>
      </trkpt>
      <trkpt lat="45.38484" lon="5.81426">
        <ele>1644.47</ele>
        <time>2017-04-22T11:06:21Z</time>
      </trkpt>
      <trkpt lat="45.38483" lon="5.81426">
        <ele>1644.47</ele>
        <time>2017-04-22T11:06:53Z</time>
      </trkpt>
      <trkpt lat="45.38483" lon="5.81424">
        <ele>1646.88</ele>
        <time>2017-04-22T11:07:29Z</time>
      </trkpt>
      <trkpt lat="45.38481" lon="5.81426">
        <ele>1645.91</ele>
        <time>2017-04-22T11:08:05Z</time>
      </trkpt>
      <trkpt lat="45.38483" lon="5.81425">
        <ele>1645.43</ele>
        <time>2017-04-22T11:08:32Z</time>
      </trkpt>
      <trkpt lat="45.38482" lon="5.81426">
        <ele>1644.47</ele>
        <time>2017-04-22T11:09:01Z</time>
      </trkpt>
      <trkpt lat="45.38481" lon="5.81425">
        <ele>1644.47</ele>
        <time>2017-04-22T11:09:36Z</time>
      </trkpt>
      <trkpt lat="45.3848" lon="5.81427">
        <ele>1646.4</ele>
        <time>2017-04-22T11:10:14Z</time>
      </trkpt>
      <trkpt lat="45.38482" lon="5.81425">
        <ele>1650.24</ele>
        <time>2017-04-22T11:10:50Z</time>
      </trkpt>
      <trkpt lat="45.38482" lon="5.81424">
        <ele>1648.8</ele>
        <time>2017-04-22T11:11:16Z</time>
      </trkpt>
      <trkpt lat="45.38482" lon="5.81426">
        <ele>1650.24</ele>
        <time>2017-04-22T11:11:42Z</time>
      </trkpt>
      <trkpt lat="45.3848" lon="5.81424">
        <ele>1646.4</ele>
        <time>2017-04-22T11:12:19Z</time>
      </trkpt>
      <trkpt lat="45.38479" lon="5.81425">
        <ele>1650.24</ele>
        <time>2017-04-22T11:12:42Z</time>
      </trkpt>
      <trkpt lat="45.38481" lon="5.81424">
        <ele>1649.28</ele>
        <time>2017-04-22T11:13:09Z</time>
      </trkpt>
      <trkpt lat="45.38483" lon="5.81427">
        <ele>1645.91</ele>
        <time>2017-04-22T11:13:45Z</time>
      </trkpt>
      <trkpt lat="45.38483" lon="5.81426">
        <ele>1647.36</ele>
        <time>2017-04-22T11:14:25Z</time>
      </trkpt>
      <trkpt lat="45.38484" lon="5.81426">
        <ele>1648.32</ele>
        <time>2017-04-22T11:15:00Z</time>
      </trkpt>
      <trkpt lat="45.38483" lon="5.81424">
        <ele>1643.99</ele>
        <time>2017-04-22T11:15:38Z</time>
      </trkpt>
      <trkpt lat="45.38484" lon="5.81423">
        <ele>1639.67</ele>
        <time>2017-04-22T11:16:14Z</time>
      </trkpt>
      <trkpt lat="45.38484" lon="5.81422">
        <ele>1638.22</ele>
        <time>2017-04-22T11:16:55Z</time>
      </trkpt>
      <trkpt lat="45.38483" lon="5.81422">
        <ele>1638.7</ele>
        <time>2017-04-22T11:17:35Z</time>
      </trkpt>
      <trkpt lat="45.38485" lon="5.81421">
        <ele>1638.22</ele>
        <time>2017-04-22T11:18:08Z</time>
      </trkpt>
      <trkpt lat="45.38485" lon="5.81422">
        <ele>1640.15</ele>
        <time>2017-04-22T11:18:44Z</time>
      </trkpt>
      <trkpt lat="45.38485" lon="5.81421">
        <ele>1639.19</ele>
        <time>2017-04-22T11:19:20Z</time>
      </trkpt>
      <trkpt lat="45.38484" lon="5.81421">
        <ele>1636.78</ele>
        <time>2017-04-22T11:19:54Z</time>
      </trkpt>
      <trkpt lat="45.38485" lon="5.81421">
        <ele>1636.78</ele>
        <time>2017-04-22T11:20:28Z</time>
      </trkpt>
      <trkpt lat="45.38485" lon="5.81419">
        <ele>1635.82</ele>
        <time>2017-04-22T11:20:59Z</time>
      </trkpt>
      <trkpt lat="45.38485" lon="5.81419">
        <ele>1630.53</ele>
        <time>2017-04-22T11:21:19Z</time>
      </trkpt>
      <trkpt lat="45.38483" lon="5.81427">
        <ele>1643.03</ele>
        <time>2017-04-22T11:21:54Z</time>
      </trkpt>
      <trkpt lat="45.38485" lon="5.81426">
        <ele>1639.67</ele>
        <time>2017-04-22T11:22:24Z</time>
      </trkpt>
      <trkpt lat="45.38482" lon="5.81427">
        <ele>1638.22</ele>
        <time>2017-04-22T11:23:02Z</time>
      </trkpt>
      <trkpt lat="45.38482" lon="5.81425">
        <ele>1640.63</ele>
        <time>2017-04-22T11:23:37Z</time>
      </trkpt>
      <trkpt lat="45.38482" lon="5.81426">
        <ele>1645.43</ele>
        <time>2017-04-22T11:24:04Z</time>
      </trkpt>
      <trkpt lat="45.38477" lon="5.81426">
        <ele>1645.91</ele>
        <time>2017-04-22T11:24:29Z</time>
      </trkpt>
      <trkpt lat="45.38481" lon="5.81426">
        <ele>1644.47</ele>
        <time>2017-04-22T11:24:55Z</time>
      </trkpt>
      <trkpt lat="45.38484" lon="5.81428">
        <ele>1646.4</ele>
        <time>2017-04-22T11:25:12Z</time>
      </trkpt>
      <trkpt lat="45.38485" lon="5.81425">
        <ele>1645.43</ele>
        <time>2017-04-22T11:25:35Z</time>
      </trkpt>
      <trkpt lat="45.38482" lon="5.81425">
        <ele>1643.03</ele>
        <time>2017-04-22T11:25:45Z</time>
      </trkpt>
      <trkpt lat="45.3848" lon="5.81427">
        <ele>1642.07</ele>
        <time>2017-04-22T11:25:47Z</time>
      </trkpt>
      <trkpt lat="45.38476" lon="5.81436">
        <ele>1640.15</ele>
        <time>2017-04-22T11:25:54Z</time>
      </trkpt>
      <trkpt lat="45.38471" lon="5.81442">
        <ele>1639.67</ele>
        <time>2017-04-22T11:26:04Z</time>
      </trkpt>
      <trkpt lat="45.38471" lon="5.81446">
        <ele>1639.19</ele>
        <time>2017-04-22T11:26:07Z</time>
      </trkpt>
      <trkpt lat="45.38473" lon="5.8145">
        <ele>1638.7</ele>
        <time>2017-04-22T11:26:10Z</time>
      </trkpt>
      <trkpt lat="45.38474" lon="5.81453">
        <ele>1638.22</ele>
        <time>2017-04-22T11:26:12Z</time>
      </trkpt>
      <trkpt lat="45.38479" lon="5.81467">
        <ele>1636.3</ele>
        <time>2017-04-22T11:26:21Z</time>
      </trkpt>
      <trkpt lat="45.38481" lon="5.81476">
        <ele>1634.86</ele>
        <time>2017-04-22T11:26:27Z</time>
      </trkpt>
      <trkpt lat="45.38486" lon="5.81488">
        <ele>1632.94</ele>
        <time>2017-04-22T11:26:35Z</time>
      </trkpt>
      <trkpt lat="45.38491" lon="5.81492">
        <ele>1630.53</ele>
        <time>2017-04-22T11:26:41Z</time>
      </trkpt>
      <trkpt lat="45.38496" lon="5.81497">
        <ele>1628.61</ele>
        <time>2017-04-22T11:26:51Z</time>
      </trkpt>
      <trkpt lat="45.38497" lon="5.815">
        <ele>1627.65</ele>
        <time>2017-04-22T11:27:14Z</time>
      </trkpt>
      <trkpt lat="45.38506" lon="5.81507">
        <ele>1621.88</ele>
        <time>2017-04-22T11:27:25Z</time>
      </trkpt>
      <trkpt lat="45.38516" lon="5.81513">
        <ele>1618.52</ele>
        <time>2017-04-22T11:27:35Z</time>
      </trkpt>
      <trkpt lat="45.38526" lon="5.8152">
        <ele>1614.19</ele>
        <time>2017-04-22T11:27:47Z</time>
      </trkpt>
      <trkpt lat="45.38528" lon="5.81522">
        <ele>1613.23</ele>
        <time>2017-04-22T11:27:49Z</time>
      </trkpt>
      <trkpt lat="45.3854" lon="5.81532">
        <ele>1609.38</ele>
        <time>2017-04-22T11:28:01Z</time>
      </trkpt>
      <trkpt lat="45.38543" lon="5.81533">
        <ele>1607.94</ele>
        <time>2017-04-22T11:28:04Z</time>
      </trkpt>
      <trkpt lat="45.38557" lon="5.81536">
        <ele>1606.5</ele>
        <time>2017-04-22T11:28:15Z</time>
      </trkpt>
      <trkpt lat="45.3856" lon="5.8154">
        <ele>1606.5</ele>
        <time>2017-04-22T11:28:19Z</time>
      </trkpt>
      <trkpt lat="45.38566" lon="5.81541">
        <ele>1605.06</ele>
        <time>2017-04-22T11:28:24Z</time>
      </trkpt>
      <trkpt lat="45.38579" lon="5.81551">
        <ele>1602.17</ele>
        <time>2017-04-22T11:28:36Z</time>
      </trkpt>
      <trkpt lat="45.38586" lon="5.81556">
        <ele>1600.73</ele>
        <time>2017-04-22T11:28:43Z</time>
      </trkpt>
      <trkpt lat="45.38599" lon="5.81566">
        <ele>1596.89</ele>
        <time>2017-04-22T11:28:56Z</time>
      </trkpt>
      <trkpt lat="45.38609" lon="5.81578">
        <ele>1594.96</ele>
        <time>2017-04-22T11:29:07Z</time>
      </trkpt>
      <trkpt lat="45.38621" lon="5.81587">
        <ele>1593.04</ele>
        <time>2017-04-22T11:29:17Z</time>
      </trkpt>
      <trkpt lat="45.38635" lon="5.81598">
        <ele>1588.72</ele>
        <time>2017-04-22T11:29:30Z</time>
      </trkpt>
      <trkpt lat="45.38641" lon="5.81603">
        <ele>1587.75</ele>
        <time>2017-04-22T11:29:34Z</time>
      </trkpt>
      <trkpt lat="45.38645" lon="5.81608">
        <ele>1586.79</ele>
        <time>2017-04-22T11:29:38Z</time>
      </trkpt>
      <trkpt lat="45.38647" lon="5.81611">
        <ele>1586.31</ele>
        <time>2017-04-22T11:29:40Z</time>
      </trkpt>
      <trkpt lat="45.3865" lon="5.81618">
        <ele>1586.79</ele>
        <time>2017-04-22T11:29:45Z</time>
      </trkpt>
      <trkpt lat="45.38653" lon="5.81621">
        <ele>1586.79</ele>
        <time>2017-04-22T11:29:47Z</time>
      </trkpt>
      <trkpt lat="45.38662" lon="5.81627">
        <ele>1585.83</ele>
        <time>2017-04-22T11:29:53Z</time>
      </trkpt>
      <trkpt lat="45.3867" lon="5.81638">
        <ele>1582.47</ele>
        <time>2017-04-22T11:30:02Z</time>
      </trkpt>
      <trkpt lat="45.38677" lon="5.81648">
        <ele>1580.06</ele>
        <time>2017-04-22T11:30:11Z</time>
      </trkpt>
      <trkpt lat="45.38695" lon="5.81656">
        <ele>1571.41</ele>
        <time>2017-04-22T11:30:25Z</time>
      </trkpt>
      <trkpt lat="45.387" lon="5.81657">
        <ele>1567.09</ele>
        <time>2017-04-22T11:30:28Z</time>
      </trkpt>
      <trkpt lat="45.38702" lon="5.81658">
        <ele>1565.16</ele>
        <time>2017-04-22T11:30:30Z</time>
      </trkpt>
      <trkpt lat="45.38707" lon="5.81665">
        <ele>1560.36</ele>
        <time>2017-04-22T11:30:36Z</time>
      </trkpt>
      <trkpt lat="45.38708" lon="5.81668">
        <ele>1557.95</ele>
        <time>2017-04-22T11:30:38Z</time>
      </trkpt>
      <trkpt lat="45.38715" lon="5.81671">
        <ele>1551.22</ele>
        <time>2017-04-22T11:30:44Z</time>
      </trkpt>
      <trkpt lat="45.38719" lon="5.81674">
        <ele>1544.98</ele>
        <time>2017-04-22T11:30:48Z</time>
      </trkpt>
      <trkpt lat="45.38725" lon="5.81677">
        <ele>1537.29</ele>
        <time>2017-04-22T11:30:53Z</time>
      </trkpt>
      <trkpt lat="45.38736" lon="5.81681">
        <ele>1522.87</ele>
        <time>2017-04-22T11:31:02Z</time>
      </trkpt>
      <trkpt lat="45.38748" lon="5.81681">
        <ele>1510.37</ele>
        <time>2017-04-22T11:31:14Z</time>
      </trkpt>
      <trkpt lat="45.38754" lon="5.81682">
        <ele>1507</ele>
        <time>2017-04-22T11:31:18Z</time>
      </trkpt>
      <trkpt lat="45.38772" lon="5.81683">
        <ele>1498.83</ele>
        <time>2017-04-22T11:31:32Z</time>
      </trkpt>
      <trkpt lat="45.38775" lon="5.81683">
        <ele>1496.91</ele>
        <time>2017-04-22T11:31:35Z</time>
      </trkpt>
      <trkpt lat="45.3878" lon="5.81686">
        <ele>1495.47</ele>
        <time>2017-04-22T11:31:39Z</time>
      </trkpt>
      <trkpt lat="45.38785" lon="5.81689">
        <ele>1496.43</ele>
        <time>2017-04-22T11:31:44Z</time>
      </trkpt>
      <trkpt lat="45.38793" lon="5.81694">
        <ele>1500.76</ele>
        <time>2017-04-22T11:31:51Z</time>
      </trkpt>
      <trkpt lat="45.38796" lon="5.81694">
        <ele>1501.24</ele>
        <time>2017-04-22T11:31:53Z</time>
      </trkpt>
      <trkpt lat="45.388" lon="5.81694">
        <ele>1503.64</ele>
        <time>2017-04-22T11:31:58Z</time>
      </trkpt>
      <trkpt lat="45.38807" lon="5.81702">
        <ele>1507.97</ele>
        <time>2017-04-22T11:32:08Z</time>
      </trkpt>
      <trkpt lat="45.38812" lon="5.8171">
        <ele>1507.97</ele>
        <time>2017-04-22T11:32:18Z</time>
      </trkpt>
      <trkpt lat="45.38828" lon="5.81725">
        <ele>1523.35</ele>
        <time>2017-04-22T11:32:31Z</time>
      </trkpt>
      <trkpt lat="45.38834" lon="5.81736">
        <ele>1526.71</ele>
        <time>2017-04-22T11:32:41Z</time>
      </trkpt>
      <trkpt lat="45.38843" lon="5.81747">
        <ele>1529.11</ele>
        <time>2017-04-22T11:32:53Z</time>
      </trkpt>
      <trkpt lat="45.38843" lon="5.81748">
        <ele>1529.11</ele>
        <time>2017-04-22T11:32:54Z</time>
      </trkpt>
      <trkpt lat="45.38846" lon="5.81759">
        <ele>1535.36</ele>
        <time>2017-04-22T11:33:04Z</time>
      </trkpt>
      <trkpt lat="45.38846" lon="5.8176">
        <ele>1535.84</ele>
        <time>2017-04-22T11:33:05Z</time>
      </trkpt>
      <trkpt lat="45.38854" lon="5.81783">
        <ele>1547.38</ele>
        <time>2017-04-22T11:33:18Z</time>
      </trkpt>
      <trkpt lat="45.38857" lon="5.81794">
        <ele>1551.22</ele>
        <time>2017-04-22T11:33:28Z</time>
      </trkpt>
      <trkpt lat="45.38858" lon="5.81806">
        <ele>1557.95</ele>
        <time>2017-04-22T11:33:37Z</time>
      </trkpt>
      <trkpt lat="45.38859" lon="5.81809">
        <ele>1559.4</ele>
        <time>2017-04-22T11:33:39Z</time>
      </trkpt>
      <trkpt lat="45.38863" lon="5.81821">
        <ele>1568.05</ele>
        <time>2017-04-22T11:33:49Z</time>
      </trkpt>
      <trkpt lat="45.38873" lon="5.81834">
        <ele>1568.53</ele>
        <time>2017-04-22T11:34:00Z</time>
      </trkpt>
      <trkpt lat="45.38876" lon="5.81834">
        <ele>1569.97</ele>
        <time>2017-04-22T11:34:06Z</time>
      </trkpt>
      <trkpt lat="45.38894" lon="5.81855">
        <ele>1562.76</ele>
        <time>2017-04-22T11:34:20Z</time>
      </trkpt>
      <trkpt lat="45.38901" lon="5.81861">
        <ele>1560.84</ele>
        <time>2017-04-22T11:34:33Z</time>
      </trkpt>
      <trkpt lat="45.38906" lon="5.81863">
        <ele>1561.8</ele>
        <time>2017-04-22T11:34:47Z</time>
      </trkpt>
      <trkpt lat="45.38912" lon="5.81865">
        <ele>1565.16</ele>
        <time>2017-04-22T11:34:58Z</time>
      </trkpt>
      <trkpt lat="45.38919" lon="5.81867">
        <ele>1568.05</ele>
        <time>2017-04-22T11:35:09Z</time>
      </trkpt>
      <trkpt lat="45.38923" lon="5.81865">
        <ele>1569.01</ele>
        <time>2017-04-22T11:35:20Z</time>
      </trkpt>
      <trkpt lat="45.38927" lon="5.81862">
        <ele>1569.01</ele>
        <time>2017-04-22T11:35:31Z</time>
      </trkpt>
      <trkpt lat="45.38934" lon="5.81864">
        <ele>1570.45</ele>
        <time>2017-04-22T11:35:42Z</time>
      </trkpt>
      <trkpt lat="45.38937" lon="5.81865">
        <ele>1570.45</ele>
        <time>2017-04-22T11:35:51Z</time>
      </trkpt>
      <trkpt lat="45.38942" lon="5.81861">
        <ele>1569.97</ele>
        <time>2017-04-22T11:36:00Z</time>
      </trkpt>
      <trkpt lat="45.38953" lon="5.81874">
        <ele>1567.57</ele>
        <time>2017-04-22T11:36:11Z</time>
      </trkpt>
      <trkpt lat="45.38966" lon="5.8188">
        <ele>1563.72</ele>
        <time>2017-04-22T11:36:24Z</time>
      </trkpt>
      <trkpt lat="45.38974" lon="5.81885">
        <ele>1563.24</ele>
        <time>2017-04-22T11:36:36Z</time>
      </trkpt>
      <trkpt lat="45.38975" lon="5.81881">
        <ele>1563.24</ele>
        <time>2017-04-22T11:36:40Z</time>
      </trkpt>
      <trkpt lat="45.38979" lon="5.81877">
        <ele>1563.72</ele>
        <time>2017-04-22T11:36:46Z</time>
      </trkpt>
      <trkpt lat="45.38982" lon="5.81878">
        <ele>1563.72</ele>
        <time>2017-04-22T11:36:49Z</time>
      </trkpt>
      <trkpt lat="45.38983" lon="5.81876">
        <ele>1563.72</ele>
        <time>2017-04-22T11:36:51Z</time>
      </trkpt>
      <trkpt lat="45.38988" lon="5.8187">
        <ele>1566.61</ele>
        <time>2017-04-22T11:36:57Z</time>
      </trkpt>
      <trkpt lat="45.38989" lon="5.81868">
        <ele>1567.09</ele>
        <time>2017-04-22T11:36:59Z</time>
      </trkpt>
      <trkpt lat="45.38992" lon="5.81867">
        <ele>1567.57</ele>
        <time>2017-04-22T11:37:03Z</time>
      </trkpt>
      <trkpt lat="45.38997" lon="5.81869">
        <ele>1569.97</ele>
        <time>2017-04-22T11:37:13Z</time>
      </trkpt>
      <trkpt lat="45.39002" lon="5.81872">
        <ele>1576.22</ele>
        <time>2017-04-22T11:37:22Z</time>
      </trkpt>
      <trkpt lat="45.39012" lon="5.8187">
        <ele>1583.91</ele>
        <time>2017-04-22T11:37:33Z</time>
      </trkpt>
      <trkpt lat="45.3902" lon="5.81873">
        <ele>1587.27</ele>
        <time>2017-04-22T11:37:42Z</time>
      </trkpt>
      <trkpt lat="45.39024" lon="5.81873">
        <ele>1586.79</ele>
        <time>2017-04-22T11:37:46Z</time>
      </trkpt>
      <trkpt lat="45.39033" lon="5.8188">
        <ele>1583.91</ele>
        <time>2017-04-22T11:37:56Z</time>
      </trkpt>
      <trkpt lat="45.39046" lon="5.81885">
        <ele>1583.91</ele>
        <time>2017-04-22T11:38:10Z</time>
      </trkpt>
      <trkpt lat="45.3906" lon="5.81885">
        <ele>1572.85</ele>
        <time>2017-04-22T11:38:28Z</time>
      </trkpt>
      <trkpt lat="45.39063" lon="5.81885">
        <ele>1570.45</ele>
        <time>2017-04-22T11:38:41Z</time>
      </trkpt>
      <trkpt lat="45.39064" lon="5.81882">
        <ele>1569.97</ele>
        <time>2017-04-22T11:38:45Z</time>
      </trkpt>
      <trkpt lat="45.39067" lon="5.81885">
        <ele>1569.97</ele>
        <time>2017-04-22T11:38:47Z</time>
      </trkpt>
      <trkpt lat="45.39078" lon="5.81891">
        <ele>1565.64</ele>
        <time>2017-04-22T11:38:58Z</time>
      </trkpt>
      <trkpt lat="45.39083" lon="5.81891">
        <ele>1563.24</ele>
        <time>2017-04-22T11:39:04Z</time>
      </trkpt>
      <trkpt lat="45.39095" lon="5.81894">
        <ele>1564.2</ele>
        <time>2017-04-22T11:39:15Z</time>
      </trkpt>
      <trkpt lat="45.39097" lon="5.81895">
        <ele>1564.68</ele>
        <time>2017-04-22T11:39:17Z</time>
      </trkpt>
      <trkpt lat="45.39105" lon="5.81895">
        <ele>1566.12</ele>
        <time>2017-04-22T11:39:23Z</time>
      </trkpt>
      <trkpt lat="45.39113" lon="5.81897">
        <ele>1569.01</ele>
        <time>2017-04-22T11:39:31Z</time>
      </trkpt>
      <trkpt lat="45.39118" lon="5.81907">
        <ele>1575.26</ele>
        <time>2017-04-22T11:39:39Z</time>
      </trkpt>
      <trkpt lat="45.39125" lon="5.81902">
        <ele>1583.43</ele>
        <time>2017-04-22T11:39:49Z</time>
      </trkpt>
      <trkpt lat="45.39128" lon="5.81907">
        <ele>1587.75</ele>
        <time>2017-04-22T11:39:58Z</time>
      </trkpt>
      <trkpt lat="45.39131" lon="5.81913">
        <ele>1589.68</ele>
        <time>2017-04-22T11:40:02Z</time>
      </trkpt>
      <trkpt lat="45.39133" lon="5.81911">
        <ele>1590.16</ele>
        <time>2017-04-22T11:40:04Z</time>
      </trkpt>
      <trkpt lat="45.39142" lon="5.81924">
        <ele>1594</ele>
        <time>2017-04-22T11:40:15Z</time>
      </trkpt>
      <trkpt lat="45.39152" lon="5.81931">
        <ele>1602.66</ele>
        <time>2017-04-22T11:40:26Z</time>
      </trkpt>
      <trkpt lat="45.39161" lon="5.81933">
        <ele>1603.62</ele>
        <time>2017-04-22T11:40:38Z</time>
      </trkpt>
      <trkpt lat="45.39176" lon="5.81938">
        <ele>1596.89</ele>
        <time>2017-04-22T11:40:51Z</time>
      </trkpt>
      <trkpt lat="45.39176" lon="5.81938">
        <ele>1596.41</ele>
        <time>2017-04-22T11:40:54Z</time>
      </trkpt>
      <trkpt lat="45.39175" lon="5.81938">
        <ele>1597.85</ele>
        <time>2017-04-22T11:41:05Z</time>
      </trkpt>
      <trkpt lat="45.39181" lon="5.81935">
        <ele>1597.85</ele>
        <time>2017-04-22T11:41:15Z</time>
      </trkpt>
      <trkpt lat="45.39182" lon="5.81937">
        <ele>1598.33</ele>
        <time>2017-04-22T11:41:17Z</time>
      </trkpt>
      <trkpt lat="45.39188" lon="5.81938">
        <ele>1598.81</ele>
        <time>2017-04-22T11:41:26Z</time>
      </trkpt>
      <trkpt lat="45.39194" lon="5.81933">
        <ele>1599.77</ele>
        <time>2017-04-22T11:41:37Z</time>
      </trkpt>
      <trkpt lat="45.39205" lon="5.81941">
        <ele>1603.62</ele>
        <time>2017-04-22T11:41:47Z</time>
      </trkpt>
      <trkpt lat="45.39207" lon="5.81931">
        <ele>1607.46</ele>
        <time>2017-04-22T11:41:57Z</time>
      </trkpt>
      <trkpt lat="45.39211" lon="5.81931">
        <ele>1608.42</ele>
        <time>2017-04-22T11:42:01Z</time>
      </trkpt>
      <trkpt lat="45.39221" lon="5.81934">
        <ele>1609.38</ele>
        <time>2017-04-22T11:42:09Z</time>
      </trkpt>
      <trkpt lat="45.39223" lon="5.81933">
        <ele>1609.86</ele>
        <time>2017-04-22T11:42:11Z</time>
      </trkpt>
      <trkpt lat="45.39229" lon="5.81935">
        <ele>1614.19</ele>
        <time>2017-04-22T11:42:17Z</time>
      </trkpt>
      <trkpt lat="45.39233" lon="5.81937">
        <ele>1617.07</ele>
        <time>2017-04-22T11:42:20Z</time>
      </trkpt>
      <trkpt lat="45.39236" lon="5.81939">
        <ele>1619</ele>
        <time>2017-04-22T11:42:22Z</time>
      </trkpt>
      <trkpt lat="45.39239" lon="5.81939">
        <ele>1621.4</ele>
        <time>2017-04-22T11:42:24Z</time>
      </trkpt>
      <trkpt lat="45.39247" lon="5.81942">
        <ele>1626.21</ele>
        <time>2017-04-22T11:42:29Z</time>
      </trkpt>
      <trkpt lat="45.39257" lon="5.81938">
        <ele>1632.46</ele>
        <time>2017-04-22T11:42:39Z</time>
      </trkpt>
      <trkpt lat="45.39265" lon="5.81939">
        <ele>1639.67</ele>
        <time>2017-04-22T11:42:46Z</time>
      </trkpt>
      <trkpt lat="45.39272" lon="5.81941">
        <ele>1640.63</ele>
        <time>2017-04-22T11:42:50Z</time>
      </trkpt>
      <trkpt lat="45.39282" lon="5.81939">
        <ele>1642.55</ele>
        <time>2017-04-22T11:42:59Z</time>
      </trkpt>
      <trkpt lat="45.39298" lon="5.81944">
        <ele>1636.3</ele>
        <time>2017-04-22T11:43:06Z</time>
      </trkpt>
      <trkpt lat="45.393" lon="5.81941">
        <ele>1632.94</ele>
        <time>2017-04-22T11:43:08Z</time>
      </trkpt>
      <trkpt lat="45.39317" lon="5.81951">
        <ele>1629.09</ele>
        <time>2017-04-22T11:43:19Z</time>
      </trkpt>
      <trkpt lat="45.3933" lon="5.81958">
        <ele>1624.28</ele>
        <time>2017-04-22T11:43:34Z</time>
      </trkpt>
      <trkpt lat="45.39337" lon="5.81961">
        <ele>1621.4</ele>
        <time>2017-04-22T11:43:48Z</time>
      </trkpt>
      <trkpt lat="45.39348" lon="5.81972">
        <ele>1611.79</ele>
        <time>2017-04-22T11:43:59Z</time>
      </trkpt>
      <trkpt lat="45.3936" lon="5.81966">
        <ele>1596.89</ele>
        <time>2017-04-22T11:44:10Z</time>
      </trkpt>
      <trkpt lat="45.3937" lon="5.81959">
        <ele>1582.95</ele>
        <time>2017-04-22T11:44:20Z</time>
      </trkpt>
      <trkpt lat="45.39373" lon="5.81954">
        <ele>1582.95</ele>
        <time>2017-04-22T11:44:27Z</time>
      </trkpt>
      <trkpt lat="45.39374" lon="5.81952">
        <ele>1582.47</ele>
        <time>2017-04-22T11:44:29Z</time>
      </trkpt>
      <trkpt lat="45.39378" lon="5.81947">
        <ele>1582.47</ele>
        <time>2017-04-22T11:44:39Z</time>
      </trkpt>
      <trkpt lat="45.39384" lon="5.81946">
        <ele>1582.47</ele>
        <time>2017-04-22T11:44:50Z</time>
      </trkpt>
      <trkpt lat="45.3939" lon="5.81943">
        <ele>1582.95</ele>
        <time>2017-04-22T11:44:57Z</time>
      </trkpt>
      <trkpt lat="45.39393" lon="5.81942">
        <ele>1582.95</ele>
        <time>2017-04-22T11:44:59Z</time>
      </trkpt>
      <trkpt lat="45.39397" lon="5.81942">
        <ele>1582.95</ele>
        <time>2017-04-22T11:45:02Z</time>
      </trkpt>
      <trkpt lat="45.394" lon="5.81938">
        <ele>1582.95</ele>
        <time>2017-04-22T11:45:07Z</time>
      </trkpt>
      <trkpt lat="45.39406" lon="5.81943">
        <ele>1582.95</ele>
        <time>2017-04-22T11:45:18Z</time>
      </trkpt>
      <trkpt lat="45.39411" lon="5.81949">
        <ele>1582.95</ele>
        <time>2017-04-22T11:45:25Z</time>
      </trkpt>
      <trkpt lat="45.3942" lon="5.81959">
        <ele>1583.43</ele>
        <time>2017-04-22T11:45:36Z</time>
      </trkpt>
      <trkpt lat="45.39439" lon="5.81982">
        <ele>1559.88</ele>
        <time>2017-04-22T11:45:39Z</time>
      </trkpt>
      <trkpt lat="45.39444" lon="5.81982">
        <ele>1548.34</ele>
        <time>2017-04-22T11:45:49Z</time>
      </trkpt>
      <trkpt lat="45.39444" lon="5.81983">
        <ele>1550.26</ele>
        <time>2017-04-22T11:45:50Z</time>
      </trkpt>
      <trkpt lat="45.3945" lon="5.81993">
        <ele>1568.05</ele>
        <time>2017-04-22T11:45:59Z</time>
      </trkpt>
      <trkpt lat="45.3945" lon="5.81994">
        <ele>1569.49</ele>
        <time>2017-04-22T11:46:00Z</time>
      </trkpt>
      <trkpt lat="45.39453" lon="5.82008">
        <ele>1591.6</ele>
        <time>2017-04-22T11:46:12Z</time>
      </trkpt>
      <trkpt lat="45.39459" lon="5.8201">
        <ele>1602.66</ele>
        <time>2017-04-22T11:46:21Z</time>
      </trkpt>
      <trkpt lat="45.39464" lon="5.82012">
        <ele>1609.38</ele>
        <time>2017-04-22T11:46:29Z</time>
      </trkpt>
      <trkpt lat="45.39472" lon="5.82024">
        <ele>1621.88</ele>
        <time>2017-04-22T11:46:38Z</time>
      </trkpt>
      <trkpt lat="45.39481" lon="5.82025">
        <ele>1622.36</ele>
        <time>2017-04-22T11:46:46Z</time>
      </trkpt>
      <trkpt lat="45.39486" lon="5.82027">
        <ele>1622.36</ele>
        <time>2017-04-22T11:46:51Z</time>
      </trkpt>
      <trkpt lat="45.3949" lon="5.82028">
        <ele>1622.84</ele>
        <time>2017-04-22T11:46:54Z</time>
      </trkpt>
      <trkpt lat="45.39493" lon="5.82027">
        <ele>1621.88</ele>
        <time>2017-04-22T11:46:57Z</time>
      </trkpt>
      <trkpt lat="45.39501" lon="5.82031">
        <ele>1609.38</ele>
        <time>2017-04-22T11:47:01Z</time>
      </trkpt>
      <trkpt lat="45.39505" lon="5.82032">
        <ele>1597.37</ele>
        <time>2017-04-22T11:47:03Z</time>
      </trkpt>
      <trkpt lat="45.39516" lon="5.82041">
        <ele>1597.37</ele>
        <time>2017-04-22T11:47:12Z</time>
      </trkpt>
      <trkpt lat="45.3952" lon="5.82045">
        <ele>1597.37</ele>
        <time>2017-04-22T11:47:16Z</time>
      </trkpt>
      <trkpt lat="45.39526" lon="5.82053">
        <ele>1597.85</ele>
        <time>2017-04-22T11:47:24Z</time>
      </trkpt>
      <trkpt lat="45.39534" lon="5.82053">
        <ele>1582.47</ele>
        <time>2017-04-22T11:47:27Z</time>
      </trkpt>
      <trkpt lat="45.39551" lon="5.8206">
        <ele>1526.71</ele>
        <time>2017-04-22T11:47:36Z</time>
      </trkpt>
      <trkpt lat="45.39553" lon="5.82045">
        <ele>1507.48</ele>
        <time>2017-04-22T11:47:47Z</time>
      </trkpt>
      <trkpt lat="45.39553" lon="5.82042">
        <ele>1506.52</ele>
        <time>2017-04-22T11:47:52Z</time>
      </trkpt>
      <trkpt lat="45.39552" lon="5.82041">
        <ele>1505.08</ele>
        <time>2017-04-22T11:47:56Z</time>
      </trkpt>
      <trkpt lat="45.3955" lon="5.82043">
        <ele>1478.16</ele>
        <time>2017-04-22T11:48:08Z</time>
      </trkpt>
      <trkpt lat="45.39552" lon="5.82023">
        <ele>1457.98</ele>
        <time>2017-04-22T11:48:19Z</time>
      </trkpt>
      <trkpt lat="45.39553" lon="5.82021">
        <ele>1456.05</ele>
        <time>2017-04-22T11:48:20Z</time>
      </trkpt>
      <trkpt lat="45.39555" lon="5.82019">
        <ele>1452.69</ele>
        <time>2017-04-22T11:48:23Z</time>
      </trkpt>
      <trkpt lat="45.39562" lon="5.82006">
        <ele>1437.31</ele>
        <time>2017-04-22T11:48:29Z</time>
      </trkpt>
      <trkpt lat="45.3957" lon="5.82003">
        <ele>1427.7</ele>
        <time>2017-04-22T11:48:38Z</time>
      </trkpt>
      <trkpt lat="45.39577" lon="5.81997">
        <ele>1421.93</ele>
        <time>2017-04-22T11:48:44Z</time>
      </trkpt>
      <trkpt lat="45.3959" lon="5.8199">
        <ele>1409.43</ele>
        <time>2017-04-22T11:48:53Z</time>
      </trkpt>
      <trkpt lat="45.39593" lon="5.81988">
        <ele>1408.47</ele>
        <time>2017-04-22T11:48:56Z</time>
      </trkpt>
      <trkpt lat="45.39597" lon="5.81986">
        <ele>1406.07</ele>
        <time>2017-04-22T11:48:59Z</time>
      </trkpt>
      <trkpt lat="45.39604" lon="5.81984">
        <ele>1405.1</ele>
        <time>2017-04-22T11:49:06Z</time>
      </trkpt>
      <trkpt lat="45.3961" lon="5.81985">
        <ele>1405.1</ele>
        <time>2017-04-22T11:49:12Z</time>
      </trkpt>
      <trkpt lat="45.3962" lon="5.81987">
        <ele>1405.58</ele>
        <time>2017-04-22T11:49:22Z</time>
      </trkpt>
      <trkpt lat="45.39625" lon="5.81986">
        <ele>1405.58</ele>
        <time>2017-04-22T11:49:25Z</time>
      </trkpt>
      <trkpt lat="45.39638" lon="5.81988">
        <ele>1405.1</ele>
        <time>2017-04-22T11:49:37Z</time>
      </trkpt>
      <trkpt lat="45.39641" lon="5.81993">
        <ele>1405.1</ele>
        <time>2017-04-22T11:49:40Z</time>
      </trkpt>
      <trkpt lat="45.39651" lon="5.81996">
        <ele>1405.1</ele>
        <time>2017-04-22T11:49:49Z</time>
      </trkpt>
      <trkpt lat="45.39663" lon="5.82">
        <ele>1405.1</ele>
        <time>2017-04-22T11:49:57Z</time>
      </trkpt>
      <trkpt lat="45.39665" lon="5.82001">
        <ele>1404.62</ele>
        <time>2017-04-22T11:50:01Z</time>
      </trkpt>
      <trkpt lat="45.39667" lon="5.82001">
        <ele>1405.1</ele>
        <time>2017-04-22T11:50:03Z</time>
      </trkpt>
      <trkpt lat="45.39675" lon="5.82006">
        <ele>1405.1</ele>
        <time>2017-04-22T11:50:12Z</time>
      </trkpt>
      <trkpt lat="45.39676" lon="5.82006">
        <ele>1405.1</ele>
        <time>2017-04-22T11:50:13Z</time>
      </trkpt>
      <trkpt lat="45.39679" lon="5.82012">
        <ele>1405.1</ele>
        <time>2017-04-22T11:50:17Z</time>
      </trkpt>
      <trkpt lat="45.39691" lon="5.82021">
        <ele>1406.07</ele>
        <time>2017-04-22T11:50:27Z</time>
      </trkpt>
      <trkpt lat="45.39693" lon="5.82021">
        <ele>1406.07</ele>
        <time>2017-04-22T11:50:29Z</time>
      </trkpt>
      <trkpt lat="45.39708" lon="5.82029">
        <ele>1407.03</ele>
        <time>2017-04-22T11:50:40Z</time>
      </trkpt>
      <trkpt lat="45.39714" lon="5.82034">
        <ele>1407.51</ele>
        <time>2017-04-22T11:50:47Z</time>
      </trkpt>
      <trkpt lat="45.39726" lon="5.82052">
        <ele>1407.03</ele>
        <time>2017-04-22T11:50:55Z</time>
      </trkpt>
      <trkpt lat="45.39755" lon="5.821">
        <ele>1387.32</ele>
        <time>2017-04-22T11:51:02Z</time>
      </trkpt>
      <trkpt lat="45.39769" lon="5.82087">
        <ele>1366.17</ele>
        <time>2017-04-22T11:51:12Z</time>
      </trkpt>
      <trkpt lat="45.39776" lon="5.82086">
        <ele>1354.63</ele>
        <time>2017-04-22T11:51:18Z</time>
      </trkpt>
      <trkpt lat="45.3978" lon="5.82092">
        <ele>1353.19</ele>
        <time>2017-04-22T11:51:21Z</time>
      </trkpt>
      <trkpt lat="45.39795" lon="5.82101">
        <ele>1351.75</ele>
        <time>2017-04-22T11:51:32Z</time>
      </trkpt>
      <trkpt lat="45.398" lon="5.82103">
        <ele>1348.87</ele>
        <time>2017-04-22T11:51:36Z</time>
      </trkpt>
      <trkpt lat="45.39803" lon="5.82105">
        <ele>1347.91</ele>
        <time>2017-04-22T11:51:38Z</time>
      </trkpt>
      <trkpt lat="45.39807" lon="5.82107">
        <ele>1348.87</ele>
        <time>2017-04-22T11:51:42Z</time>
      </trkpt>
      <trkpt lat="45.39813" lon="5.82111">
        <ele>1346.94</ele>
        <time>2017-04-22T11:51:47Z</time>
      </trkpt>
      <trkpt lat="45.39824" lon="5.82118">
        <ele>1344.54</ele>
        <time>2017-04-22T11:51:54Z</time>
      </trkpt>
      <trkpt lat="45.39832" lon="5.82128">
        <ele>1344.54</ele>
        <time>2017-04-22T11:52:04Z</time>
      </trkpt>
      <trkpt lat="45.39837" lon="5.82137">
        <ele>1346.46</ele>
        <time>2017-04-22T11:52:13Z</time>
      </trkpt>
      <trkpt lat="45.39843" lon="5.82149">
        <ele>1346.94</ele>
        <time>2017-04-22T11:52:23Z</time>
      </trkpt>
      <trkpt lat="45.39854" lon="5.82162">
        <ele>1348.39</ele>
        <time>2017-04-22T11:52:34Z</time>
      </trkpt>
      <trkpt lat="45.39859" lon="5.82168">
        <ele>1348.87</ele>
        <time>2017-04-22T11:52:42Z</time>
      </trkpt>
      <trkpt lat="45.39864" lon="5.82173">
        <ele>1349.35</ele>
        <time>2017-04-22T11:52:46Z</time>
      </trkpt>
      <trkpt lat="45.39877" lon="5.82183">
        <ele>1333.01</ele>
        <time>2017-04-22T11:52:58Z</time>
      </trkpt>
      <trkpt lat="45.39886" lon="5.82176">
        <ele>1332.04</ele>
        <time>2017-04-22T11:53:07Z</time>
      </trkpt>
      <trkpt lat="45.39893" lon="5.82186">
        <ele>1332.04</ele>
        <time>2017-04-22T11:53:17Z</time>
      </trkpt>
      <trkpt lat="45.39896" lon="5.82189">
        <ele>1332.04</ele>
        <time>2017-04-22T11:53:24Z</time>
      </trkpt>
      <trkpt lat="45.39901" lon="5.8219">
        <ele>1332.52</ele>
        <time>2017-04-22T11:53:30Z</time>
      </trkpt>
      <trkpt lat="45.39903" lon="5.82192">
        <ele>1332.52</ele>
        <time>2017-04-22T11:53:32Z</time>
      </trkpt>
      <trkpt lat="45.39917" lon="5.82209">
        <ele>1320.51</ele>
        <time>2017-04-22T11:53:44Z</time>
      </trkpt>
      <trkpt lat="45.3992" lon="5.82212">
        <ele>1318.1</ele>
        <time>2017-04-22T11:53:48Z</time>
      </trkpt>
      <trkpt lat="45.3993" lon="5.82211">
        <ele>1307.05</ele>
        <time>2017-04-22T11:53:59Z</time>
      </trkpt>
      <trkpt lat="45.39934" lon="5.82204">
        <ele>1307.05</ele>
        <time>2017-04-22T11:54:08Z</time>
      </trkpt>
      <trkpt lat="45.39939" lon="5.82201">
        <ele>1306.57</ele>
        <time>2017-04-22T11:54:17Z</time>
      </trkpt>
      <trkpt lat="45.39949" lon="5.82199">
        <ele>1304.17</ele>
        <time>2017-04-22T11:54:28Z</time>
      </trkpt>
      <trkpt lat="45.3995" lon="5.82198">
        <ele>1303.69</ele>
        <time>2017-04-22T11:54:30Z</time>
      </trkpt>
      <trkpt lat="45.39956" lon="5.82196">
        <ele>1302.72</ele>
        <time>2017-04-22T11:54:41Z</time>
      </trkpt>
      <trkpt lat="45.3996" lon="5.82195">
        <ele>1302.72</ele>
        <time>2017-04-22T11:54:46Z</time>
      </trkpt>
      <trkpt lat="45.39964" lon="5.822">
        <ele>1303.2</ele>
        <time>2017-04-22T11:54:51Z</time>
      </trkpt>
      <trkpt lat="45.39974" lon="5.82201">
        <ele>1303.69</ele>
        <time>2017-04-22T11:55:01Z</time>
      </trkpt>
      <trkpt lat="45.39976" lon="5.822">
        <ele>1304.17</ele>
        <time>2017-04-22T11:55:03Z</time>
      </trkpt>
      <trkpt lat="45.39981" lon="5.82202">
        <ele>1305.13</ele>
        <time>2017-04-22T11:55:12Z</time>
      </trkpt>
      <trkpt lat="45.39989" lon="5.8221">
        <ele>1305.61</ele>
        <time>2017-04-22T11:55:23Z</time>
      </trkpt>
      <trkpt lat="45.39994" lon="5.82218">
        <ele>1306.09</ele>
        <time>2017-04-22T11:55:32Z</time>
      </trkpt>
      <trkpt lat="45.39999" lon="5.82223">
        <ele>1305.13</ele>
        <time>2017-04-22T11:55:39Z</time>
      </trkpt>
      <trkpt lat="45.40011" lon="5.82223">
        <ele>1306.09</ele>
        <time>2017-04-22T11:55:50Z</time>
      </trkpt>
      <trkpt lat="45.40019" lon="5.82228">
        <ele>1306.09</ele>
        <time>2017-04-22T11:56:00Z</time>
      </trkpt>
      <trkpt lat="45.40026" lon="5.82227">
        <ele>1306.57</ele>
        <time>2017-04-22T11:56:08Z</time>
      </trkpt>
      <trkpt lat="45.40032" lon="5.8223">
        <ele>1306.57</ele>
        <time>2017-04-22T11:56:12Z</time>
      </trkpt>
      <trkpt lat="45.40036" lon="5.82231">
        <ele>1306.57</ele>
        <time>2017-04-22T11:56:15Z</time>
      </trkpt>
      <trkpt lat="45.40045" lon="5.82243">
        <ele>1306.09</ele>
        <time>2017-04-22T11:56:21Z</time>
      </trkpt>
      <trkpt lat="45.40055" lon="5.82259">
        <ele>1304.17</ele>
        <time>2017-04-22T11:56:29Z</time>
      </trkpt>
      <trkpt lat="45.4006" lon="5.82261">
        <ele>1303.69</ele>
        <time>2017-04-22T11:56:36Z</time>
      </trkpt>
      <trkpt lat="45.40063" lon="5.82269">
        <ele>1304.17</ele>
        <time>2017-04-22T11:56:46Z</time>
      </trkpt>
      <trkpt lat="45.40064" lon="5.82272">
        <ele>1304.17</ele>
        <time>2017-04-22T11:56:48Z</time>
      </trkpt>
      <trkpt lat="45.40072" lon="5.82282">
        <ele>1305.13</ele>
        <time>2017-04-22T11:56:59Z</time>
      </trkpt>
      <trkpt lat="45.4008" lon="5.82291">
        <ele>1305.61</ele>
        <time>2017-04-22T11:57:07Z</time>
      </trkpt>
      <trkpt lat="45.40088" lon="5.82298">
        <ele>1306.09</ele>
        <time>2017-04-22T11:57:12Z</time>
      </trkpt>
      <trkpt lat="45.40101" lon="5.82319">
        <ele>1307.05</ele>
        <time>2017-04-22T11:57:22Z</time>
      </trkpt>
      <trkpt lat="45.40107" lon="5.8233">
        <ele>1307.53</ele>
        <time>2017-04-22T11:57:29Z</time>
      </trkpt>
      <trkpt lat="45.40128" lon="5.82353">
        <ele>1308.97</ele>
        <time>2017-04-22T11:57:40Z</time>
      </trkpt>
      <trkpt lat="45.40144" lon="5.82379">
        <ele>1308.97</ele>
        <time>2017-04-22T11:57:52Z</time>
      </trkpt>
      <trkpt lat="45.40161" lon="5.82396">
        <ele>1310.41</ele>
        <time>2017-04-22T11:58:02Z</time>
      </trkpt>
      <trkpt lat="45.40162" lon="5.82396">
        <ele>1310.41</ele>
        <time>2017-04-22T11:58:03Z</time>
      </trkpt>
      <trkpt lat="45.40167" lon="5.82403">
        <ele>1310.9</ele>
        <time>2017-04-22T11:58:09Z</time>
      </trkpt>
      <trkpt lat="45.40169" lon="5.82406">
        <ele>1311.38</ele>
        <time>2017-04-22T11:58:10Z</time>
      </trkpt>
      <trkpt lat="45.4017" lon="5.82408">
        <ele>1311.38</ele>
        <time>2017-04-22T11:58:11Z</time>
      </trkpt>
      <trkpt lat="45.40173" lon="5.82411">
        <ele>1311.38</ele>
        <time>2017-04-22T11:58:12Z</time>
      </trkpt>
      <trkpt lat="45.40174" lon="5.82414">
        <ele>1311.86</ele>
        <time>2017-04-22T11:58:13Z</time>
      </trkpt>
      <trkpt lat="45.40176" lon="5.82417">
        <ele>1311.86</ele>
        <time>2017-04-22T11:58:14Z</time>
      </trkpt>
      <trkpt lat="45.40179" lon="5.8242">
        <ele>1311.86</ele>
        <time>2017-04-22T11:58:15Z</time>
      </trkpt>
      <trkpt lat="45.40187" lon="5.82428">
        <ele>1312.34</ele>
        <time>2017-04-22T11:58:20Z</time>
      </trkpt>
      <trkpt lat="45.4019" lon="5.82432">
        <ele>1312.82</ele>
        <time>2017-04-22T11:58:22Z</time>
      </trkpt>
      <trkpt lat="45.40195" lon="5.82439">
        <ele>1312.82</ele>
        <time>2017-04-22T11:58:29Z</time>
      </trkpt>
      <trkpt lat="45.40196" lon="5.82442">
        <ele>1313.3</ele>
        <time>2017-04-22T11:58:30Z</time>
      </trkpt>
      <trkpt lat="45.40198" lon="5.82445">
        <ele>1313.3</ele>
        <time>2017-04-22T11:58:31Z</time>
      </trkpt>
      <trkpt lat="45.40207" lon="5.82457">
        <ele>1313.78</ele>
        <time>2017-04-22T11:58:38Z</time>
      </trkpt>
      <trkpt lat="45.40209" lon="5.8246">
        <ele>1313.78</ele>
        <time>2017-04-22T11:58:39Z</time>
      </trkpt>
      <trkpt lat="45.40211" lon="5.82462">
        <ele>1314.26</ele>
        <time>2017-04-22T11:58:40Z</time>
      </trkpt>
      <trkpt lat="45.40213" lon="5.82465">
        <ele>1314.26</ele>
        <time>2017-04-22T11:58:41Z</time>
      </trkpt>
      <trkpt lat="45.40224" lon="5.82483">
        <ele>1315.22</ele>
        <time>2017-04-22T11:58:47Z</time>
      </trkpt>
      <trkpt lat="45.40226" lon="5.82486">
        <ele>1315.22</ele>
        <time>2017-04-22T11:58:48Z</time>
      </trkpt>
      <trkpt lat="45.40228" lon="5.8249">
        <ele>1315.22</ele>
        <time>2017-04-22T11:58:49Z</time>
      </trkpt>
      <trkpt lat="45.40236" lon="5.82505">
        <ele>1315.7</ele>
        <time>2017-04-22T11:58:56Z</time>
      </trkpt>
      <trkpt lat="45.4025" lon="5.82525">
        <ele>1316.18</ele>
        <time>2017-04-22T11:59:07Z</time>
      </trkpt>
      <trkpt lat="45.40261" lon="5.82542">
        <ele>1316.66</ele>
        <time>2017-04-22T11:59:15Z</time>
      </trkpt>
      <trkpt lat="45.40273" lon="5.82554">
        <ele>1317.14</ele>
        <time>2017-04-22T11:59:24Z</time>
      </trkpt>
      <trkpt lat="45.4028" lon="5.82557">
        <ele>1317.14</ele>
        <time>2017-04-22T11:59:33Z</time>
      </trkpt>
      <trkpt lat="45.40291" lon="5.8257">
        <ele>1318.1</ele>
        <time>2017-04-22T11:59:41Z</time>
      </trkpt>
      <trkpt lat="45.40298" lon="5.82585">
        <ele>1318.1</ele>
        <time>2017-04-22T11:59:50Z</time>
      </trkpt>
      <trkpt lat="45.40304" lon="5.82595">
        <ele>1318.59</ele>
        <time>2017-04-22T11:59:59Z</time>
      </trkpt>
      <trkpt lat="45.4031" lon="5.82593">
        <ele>1319.07</ele>
        <time>2017-04-22T12:00:08Z</time>
      </trkpt>
      <trkpt lat="45.4032" lon="5.82606">
        <ele>1319.07</ele>
        <time>2017-04-22T12:00:18Z</time>
      </trkpt>
      <trkpt lat="45.40328" lon="5.82603">
        <ele>1319.07</ele>
        <time>2017-04-22T12:00:26Z</time>
      </trkpt>
      <trkpt lat="45.40335" lon="5.82606">
        <ele>1319.07</ele>
        <time>2017-04-22T12:00:32Z</time>
      </trkpt>
      <trkpt lat="45.40346" lon="5.82614">
        <ele>1319.55</ele>
        <time>2017-04-22T12:00:42Z</time>
      </trkpt>
      <trkpt lat="45.40354" lon="5.82621">
        <ele>1320.03</ele>
        <time>2017-04-22T12:00:48Z</time>
      </trkpt>
      <trkpt lat="45.40357" lon="5.82622">
        <ele>1320.03</ele>
        <time>2017-04-22T12:00:50Z</time>
      </trkpt>
      <trkpt lat="45.40359" lon="5.82622">
        <ele>1320.03</ele>
        <time>2017-04-22T12:00:53Z</time>
      </trkpt>
      <trkpt lat="45.40363" lon="5.82626">
        <ele>1320.03</ele>
        <time>2017-04-22T12:00:58Z</time>
      </trkpt>
      <trkpt lat="45.40375" lon="5.82639">
        <ele>1320.51</ele>
        <time>2017-04-22T12:01:06Z</time>
      </trkpt>
      <trkpt lat="45.40377" lon="5.82642">
        <ele>1320.51</ele>
        <time>2017-04-22T12:01:07Z</time>
      </trkpt>
      <trkpt lat="45.40377" lon="5.82643">
        <ele>1320.51</ele>
        <time>2017-04-22T12:01:08Z</time>
      </trkpt>
      <trkpt lat="45.40378" lon="5.82646">
        <ele>1320.99</ele>
        <time>2017-04-22T12:01:09Z</time>
      </trkpt>
      <trkpt lat="45.40381" lon="5.82656">
        <ele>1320.99</ele>
        <time>2017-04-22T12:01:17Z</time>
      </trkpt>
      <trkpt lat="45.40389" lon="5.82678">
        <ele>1321.47</ele>
        <time>2017-04-22T12:01:23Z</time>
      </trkpt>
      <trkpt lat="45.4039" lon="5.82682">
        <ele>1321.47</ele>
        <time>2017-04-22T12:01:24Z</time>
      </trkpt>
      <trkpt lat="45.40392" lon="5.82687">
        <ele>1321.47</ele>
        <time>2017-04-22T12:01:25Z</time>
      </trkpt>
      <trkpt lat="45.40394" lon="5.82691">
        <ele>1321.47</ele>
        <time>2017-04-22T12:01:26Z</time>
      </trkpt>
      <trkpt lat="45.40395" lon="5.82693">
        <ele>1321.47</ele>
        <time>2017-04-22T12:01:27Z</time>
      </trkpt>
      <trkpt lat="45.40397" lon="5.82696">
        <ele>1321.95</ele>
        <time>2017-04-22T12:01:28Z</time>
      </trkpt>
      <trkpt lat="45.40398" lon="5.82698">
        <ele>1321.95</ele>
        <time>2017-04-22T12:01:29Z</time>
      </trkpt>
      <trkpt lat="45.40401" lon="5.82702">
        <ele>1321.95</ele>
        <time>2017-04-22T12:01:30Z</time>
      </trkpt>
      <trkpt lat="45.40402" lon="5.82705">
        <ele>1321.95</ele>
        <time>2017-04-22T12:01:31Z</time>
      </trkpt>
      <trkpt lat="45.40404" lon="5.82709">
        <ele>1321.95</ele>
        <time>2017-04-22T12:01:32Z</time>
      </trkpt>
      <trkpt lat="45.40406" lon="5.82711">
        <ele>1321.95</ele>
        <time>2017-04-22T12:01:33Z</time>
      </trkpt>
      <trkpt lat="45.40422" lon="5.82718">
        <ele>1317.62</ele>
        <time>2017-04-22T12:01:42Z</time>
      </trkpt>
      <trkpt lat="45.4043" lon="5.8274">
        <ele>1317.62</ele>
        <time>2017-04-22T12:01:49Z</time>
      </trkpt>
      <trkpt lat="45.40432" lon="5.8274">
        <ele>1317.62</ele>
        <time>2017-04-22T12:01:52Z</time>
      </trkpt>
      <trkpt lat="45.40437" lon="5.82753">
        <ele>1317.62</ele>
        <time>2017-04-22T12:01:58Z</time>
      </trkpt>
      <trkpt lat="45.40445" lon="5.82766">
        <ele>1316.66</ele>
        <time>2017-04-22T12:02:08Z</time>
      </trkpt>
      <trkpt lat="45.40456" lon="5.82774">
        <ele>1304.65</ele>
        <time>2017-04-22T12:02:19Z</time>
      </trkpt>
      <trkpt lat="45.40473" lon="5.82776">
        <ele>1287.82</ele>
        <time>2017-04-22T12:02:28Z</time>
      </trkpt>
      <trkpt lat="45.4049" lon="5.8278">
        <ele>1276.29</ele>
        <time>2017-04-22T12:02:38Z</time>
      </trkpt>
      <trkpt lat="45.40504" lon="5.82788">
        <ele>1262.35</ele>
        <time>2017-04-22T12:02:44Z</time>
      </trkpt>
      <trkpt lat="45.40522" lon="5.82804">
        <ele>1229.66</ele>
        <time>2017-04-22T12:02:48Z</time>
      </trkpt>
      <trkpt lat="45.40537" lon="5.82822">
        <ele>1193.13</ele>
        <time>2017-04-22T12:02:58Z</time>
      </trkpt>
      <trkpt lat="45.40536" lon="5.82829">
        <ele>1186.4</ele>
        <time>2017-04-22T12:03:01Z</time>
      </trkpt>
      <trkpt lat="45.40538" lon="5.82839">
        <ele>1178.23</ele>
        <time>2017-04-22T12:03:05Z</time>
      </trkpt>
      <trkpt lat="45.4054" lon="5.8284">
        <ele>1176.31</ele>
        <time>2017-04-22T12:03:07Z</time>
      </trkpt>
      <trkpt lat="45.40562" lon="5.82847">
        <ele>1165.74</ele>
        <time>2017-04-22T12:03:17Z</time>
      </trkpt>
      <trkpt lat="45.40569" lon="5.82858">
        <ele>1159.49</ele>
        <time>2017-04-22T12:03:24Z</time>
      </trkpt>
      <trkpt lat="45.40569" lon="5.82863">
        <ele>1158.05</ele>
        <time>2017-04-22T12:03:26Z</time>
      </trkpt>
      <trkpt lat="45.40568" lon="5.82879">
        <ele>1153.72</ele>
        <time>2017-04-22T12:03:34Z</time>
      </trkpt>
      <trkpt lat="45.40589" lon="5.82881">
        <ele>1150.35</ele>
        <time>2017-04-22T12:03:44Z</time>
      </trkpt>
      <trkpt lat="45.40595" lon="5.82889">
        <ele>1147.95</ele>
        <time>2017-04-22T12:03:53Z</time>
      </trkpt>
      <trkpt lat="45.40603" lon="5.82886">
        <ele>1147.47</ele>
        <time>2017-04-22T12:04:01Z</time>
      </trkpt>
      <trkpt lat="45.40609" lon="5.82889">
        <ele>1146.03</ele>
        <time>2017-04-22T12:04:14Z</time>
      </trkpt>
      <trkpt lat="45.40618" lon="5.82885">
        <ele>1145.07</ele>
        <time>2017-04-22T12:04:26Z</time>
      </trkpt>
      <trkpt lat="45.40634" lon="5.82876">
        <ele>1145.55</ele>
        <time>2017-04-22T12:04:35Z</time>
      </trkpt>
      <trkpt lat="45.40637" lon="5.82874">
        <ele>1145.55</ele>
        <time>2017-04-22T12:04:36Z</time>
      </trkpt>
      <trkpt lat="45.40639" lon="5.82873">
        <ele>1145.55</ele>
        <time>2017-04-22T12:04:37Z</time>
      </trkpt>
      <trkpt lat="45.4064" lon="5.82873">
        <ele>1145.55</ele>
        <time>2017-04-22T12:04:38Z</time>
      </trkpt>
      <trkpt lat="45.40642" lon="5.82871">
        <ele>1145.55</ele>
        <time>2017-04-22T12:04:39Z</time>
      </trkpt>
      <trkpt lat="45.4065" lon="5.82867">
        <ele>1146.03</ele>
        <time>2017-04-22T12:04:44Z</time>
      </trkpt>
      <trkpt lat="45.40652" lon="5.82867">
        <ele>1146.03</ele>
        <time>2017-04-22T12:04:45Z</time>
      </trkpt>
      <trkpt lat="45.40657" lon="5.82869">
        <ele>1146.99</ele>
        <time>2017-04-22T12:04:48Z</time>
      </trkpt>
      <trkpt lat="45.40659" lon="5.82871">
        <ele>1147.47</ele>
        <time>2017-04-22T12:04:49Z</time>
      </trkpt>
      <trkpt lat="45.40664" lon="5.82871">
        <ele>1147.47</ele>
        <time>2017-04-22T12:04:52Z</time>
      </trkpt>
      <trkpt lat="45.4067" lon="5.82871">
        <ele>1147.95</ele>
        <time>2017-04-22T12:04:56Z</time>
      </trkpt>
      <trkpt lat="45.40672" lon="5.82873">
        <ele>1147.95</ele>
        <time>2017-04-22T12:04:57Z</time>
      </trkpt>
      <trkpt lat="45.40673" lon="5.82875">
        <ele>1147.95</ele>
        <time>2017-04-22T12:04:58Z</time>
      </trkpt>
      <trkpt lat="45.40675" lon="5.82877">
        <ele>1147.95</ele>
        <time>2017-04-22T12:04:59Z</time>
      </trkpt>
      <trkpt lat="45.40676" lon="5.82879">
        <ele>1147.95</ele>
        <time>2017-04-22T12:05:00Z</time>
      </trkpt>
      <trkpt lat="45.40678" lon="5.8288">
        <ele>1147.95</ele>
        <time>2017-04-22T12:05:01Z</time>
      </trkpt>
      <trkpt lat="45.4068" lon="5.82881">
        <ele>1148.43</ele>
        <time>2017-04-22T12:05:02Z</time>
      </trkpt>
      <trkpt lat="45.40682" lon="5.82883">
        <ele>1148.43</ele>
        <time>2017-04-22T12:05:03Z</time>
      </trkpt>
      <trkpt lat="45.40683" lon="5.82883">
        <ele>1148.43</ele>
        <time>2017-04-22T12:05:04Z</time>
      </trkpt>
      <trkpt lat="45.40691" lon="5.82876">
        <ele>1149.39</ele>
        <time>2017-04-22T12:05:12Z</time>
      </trkpt>
      <trkpt lat="45.40704" lon="5.82885">
        <ele>1150.35</ele>
        <time>2017-04-22T12:05:19Z</time>
      </trkpt>
      <trkpt lat="45.40706" lon="5.82886">
        <ele>1150.35</ele>
        <time>2017-04-22T12:05:20Z</time>
      </trkpt>
      <trkpt lat="45.40708" lon="5.82888">
        <ele>1150.84</ele>
        <time>2017-04-22T12:05:21Z</time>
      </trkpt>
      <trkpt lat="45.40725" lon="5.82902">
        <ele>1151.32</ele>
        <time>2017-04-22T12:05:31Z</time>
      </trkpt>
      <trkpt lat="45.40729" lon="5.82903">
        <ele>1152.28</ele>
        <time>2017-04-22T12:05:33Z</time>
      </trkpt>
      <trkpt lat="45.4073" lon="5.82901">
        <ele>1152.28</ele>
        <time>2017-04-22T12:05:34Z</time>
      </trkpt>
      <trkpt lat="45.4074" lon="5.82909">
        <ele>1152.76</ele>
        <time>2017-04-22T12:05:39Z</time>
      </trkpt>
      <trkpt lat="45.40754" lon="5.82926">
        <ele>1154.2</ele>
        <time>2017-04-22T12:05:49Z</time>
      </trkpt>
      <trkpt lat="45.40765" lon="5.82941">
        <ele>1154.68</ele>
        <time>2017-04-22T12:05:58Z</time>
      </trkpt>
      <trkpt lat="45.40771" lon="5.82942">
        <ele>1155.16</ele>
        <time>2017-04-22T12:06:06Z</time>
      </trkpt>
      <trkpt lat="45.40783" lon="5.82953">
        <ele>1155.64</ele>
        <time>2017-04-22T12:06:16Z</time>
      </trkpt>
      <trkpt lat="45.40792" lon="5.82959">
        <ele>1156.12</ele>
        <time>2017-04-22T12:06:26Z</time>
      </trkpt>
      <trkpt lat="45.40802" lon="5.82974">
        <ele>1156.6</ele>
        <time>2017-04-22T12:06:35Z</time>
      </trkpt>
      <trkpt lat="45.40807" lon="5.82981">
        <ele>1157.08</ele>
        <time>2017-04-22T12:06:38Z</time>
      </trkpt>
      <trkpt lat="45.40816" lon="5.82993">
        <ele>1157.08</ele>
        <time>2017-04-22T12:06:47Z</time>
      </trkpt>
      <trkpt lat="45.40879" lon="5.83058">
        <ele>1052.3</ele>
        <time>2017-04-22T12:06:59Z</time>
      </trkpt>
      <trkpt lat="45.40889" lon="5.83036">
        <ele>1040.76</ele>
        <time>2017-04-22T12:07:13Z</time>
      </trkpt>
      <trkpt lat="45.40899" lon="5.8303">
        <ele>1041.73</ele>
        <time>2017-04-22T12:07:25Z</time>
      </trkpt>
      <trkpt lat="45.40905" lon="5.83043">
        <ele>1046.53</ele>
        <time>2017-04-22T12:07:33Z</time>
      </trkpt>
      <trkpt lat="45.40907" lon="5.83058">
        <ele>1050.86</ele>
        <time>2017-04-22T12:07:39Z</time>
      </trkpt>
      <trkpt lat="45.40908" lon="5.8309">
        <ele>1063.36</ele>
        <time>2017-04-22T12:07:51Z</time>
      </trkpt>
      <trkpt lat="45.40908" lon="5.83097">
        <ele>1066.72</ele>
        <time>2017-04-22T12:07:55Z</time>
      </trkpt>
      <trkpt lat="45.40917" lon="5.83122">
        <ele>1071.53</ele>
        <time>2017-04-22T12:08:08Z</time>
      </trkpt>
      <trkpt lat="45.40927" lon="5.83148">
        <ele>1071.53</ele>
        <time>2017-04-22T12:08:20Z</time>
      </trkpt>
      <trkpt lat="45.40937" lon="5.83173">
        <ele>1071.53</ele>
        <time>2017-04-22T12:08:31Z</time>
      </trkpt>
      <trkpt lat="45.40941" lon="5.83183">
        <ele>1072.49</ele>
        <time>2017-04-22T12:08:35Z</time>
      </trkpt>
      <trkpt lat="45.40926" lon="5.83221">
        <ele>1072.97</ele>
        <time>2017-04-22T12:08:46Z</time>
      </trkpt>
      <trkpt lat="45.40925" lon="5.83246">
        <ele>1072.97</ele>
        <time>2017-04-22T12:08:55Z</time>
      </trkpt>
      <trkpt lat="45.40928" lon="5.83248">
        <ele>1073.45</ele>
        <time>2017-04-22T12:08:57Z</time>
      </trkpt>
      <trkpt lat="45.40939" lon="5.83256">
        <ele>1072.49</ele>
        <time>2017-04-22T12:09:04Z</time>
      </trkpt>
      <trkpt lat="45.4095" lon="5.83264">
        <ele>1072.01</ele>
        <time>2017-04-22T12:09:14Z</time>
      </trkpt>
      <trkpt lat="45.40955" lon="5.83284">
        <ele>1071.53</ele>
        <time>2017-04-22T12:09:20Z</time>
      </trkpt>
      <trkpt lat="45.40956" lon="5.83288">
        <ele>1071.05</ele>
        <time>2017-04-22T12:09:21Z</time>
      </trkpt>
      <trkpt lat="45.40956" lon="5.83289">
        <ele>1071.05</ele>
        <time>2017-04-22T12:09:22Z</time>
      </trkpt>
      <trkpt lat="45.40955" lon="5.83299">
        <ele>1070.57</ele>
        <time>2017-04-22T12:09:25Z</time>
      </trkpt>
      <trkpt lat="45.40957" lon="5.83308">
        <ele>1070.57</ele>
        <time>2017-04-22T12:09:29Z</time>
      </trkpt>
      <trkpt lat="45.40959" lon="5.83321">
        <ele>1070.08</ele>
        <time>2017-04-22T12:09:33Z</time>
      </trkpt>
      <trkpt lat="45.40961" lon="5.83338">
        <ele>1068.64</ele>
        <time>2017-04-22T12:09:41Z</time>
      </trkpt>
      <trkpt lat="45.40972" lon="5.83361">
        <ele>1061.43</ele>
        <time>2017-04-22T12:09:52Z</time>
      </trkpt>
      <trkpt lat="45.40988" lon="5.83385">
        <ele>1054.22</ele>
        <time>2017-04-22T12:10:04Z</time>
      </trkpt>
      <trkpt lat="45.41004" lon="5.83411">
        <ele>1048.94</ele>
        <time>2017-04-22T12:10:17Z</time>
      </trkpt>
      <trkpt lat="45.4101" lon="5.83422">
        <ele>1047.01</ele>
        <time>2017-04-22T12:10:23Z</time>
      </trkpt>
      <trkpt lat="45.41013" lon="5.83423">
        <ele>1046.53</ele>
        <time>2017-04-22T12:10:24Z</time>
      </trkpt>
      <trkpt lat="45.41027" lon="5.83432">
        <ele>1041.25</ele>
        <time>2017-04-22T12:10:32Z</time>
      </trkpt>
      <trkpt lat="45.41044" lon="5.83444">
        <ele>1033.55</ele>
        <time>2017-04-22T12:10:40Z</time>
      </trkpt>
      <trkpt lat="45.41054" lon="5.83432">
        <ele>1034.04</ele>
        <time>2017-04-22T12:10:50Z</time>
      </trkpt>
      <trkpt lat="45.41059" lon="5.83428">
        <ele>1034.04</ele>
        <time>2017-04-22T12:10:55Z</time>
      </trkpt>
      <trkpt lat="45.4107" lon="5.83429">
        <ele>1034.04</ele>
        <time>2017-04-22T12:11:06Z</time>
      </trkpt>
      <trkpt lat="45.41083" lon="5.83432">
        <ele>1035</ele>
        <time>2017-04-22T12:11:19Z</time>
      </trkpt>
      <trkpt lat="45.41098" lon="5.83442">
        <ele>1035</ele>
        <time>2017-04-22T12:11:29Z</time>
      </trkpt>
      <trkpt lat="45.41103" lon="5.83442">
        <ele>1036.44</ele>
        <time>2017-04-22T12:11:33Z</time>
      </trkpt>
      <trkpt lat="45.41105" lon="5.83444">
        <ele>1036.44</ele>
        <time>2017-04-22T12:11:35Z</time>
      </trkpt>
      <trkpt lat="45.41109" lon="5.83445">
        <ele>1037.88</ele>
        <time>2017-04-22T12:11:38Z</time>
      </trkpt>
      <trkpt lat="45.41112" lon="5.83445">
        <ele>1038.36</ele>
        <time>2017-04-22T12:11:40Z</time>
      </trkpt>
      <trkpt lat="45.41123" lon="5.83455">
        <ele>1038.84</ele>
        <time>2017-04-22T12:11:48Z</time>
      </trkpt>
      <trkpt lat="45.41137" lon="5.83472">
        <ele>1028.75</ele>
        <time>2017-04-22T12:11:55Z</time>
      </trkpt>
      <trkpt lat="45.41144" lon="5.83473">
        <ele>1026.83</ele>
        <time>2017-04-22T12:12:01Z</time>
      </trkpt>
      <trkpt lat="45.41161" lon="5.83471">
        <ele>1024.42</ele>
        <time>2017-04-22T12:12:14Z</time>
      </trkpt>
      <trkpt lat="45.41168" lon="5.8347">
        <ele>1022.98</ele>
        <time>2017-04-22T12:12:19Z</time>
      </trkpt>
      <trkpt lat="45.41169" lon="5.83472">
        <ele>1022.98</ele>
        <time>2017-04-22T12:12:21Z</time>
      </trkpt>
      <trkpt lat="45.41182" lon="5.83471">
        <ele>1016.73</ele>
        <time>2017-04-22T12:12:30Z</time>
      </trkpt>
      <trkpt lat="45.41188" lon="5.83466">
        <ele>1016.73</ele>
        <time>2017-04-22T12:12:34Z</time>
      </trkpt>
      <trkpt lat="45.41193" lon="5.83464">
        <ele>1016.25</ele>
        <time>2017-04-22T12:12:37Z</time>
      </trkpt>
      <trkpt lat="45.41205" lon="5.83461">
        <ele>1014.81</ele>
        <time>2017-04-22T12:12:46Z</time>
      </trkpt>
      <trkpt lat="45.4121" lon="5.83453">
        <ele>1015.77</ele>
        <time>2017-04-22T12:12:51Z</time>
      </trkpt>
      <trkpt lat="45.41228" lon="5.83429">
        <ele>1006.64</ele>
        <time>2017-04-22T12:13:02Z</time>
      </trkpt>
      <trkpt lat="45.41238" lon="5.83407">
        <ele>1002.31</ele>
        <time>2017-04-22T12:13:10Z</time>
      </trkpt>
      <trkpt lat="45.41246" lon="5.83387">
        <ele>1001.35</ele>
        <time>2017-04-22T12:13:18Z</time>
      </trkpt>
      <trkpt lat="45.41248" lon="5.83383">
        <ele>1001.35</ele>
        <time>2017-04-22T12:13:20Z</time>
      </trkpt>
      <trkpt lat="45.41253" lon="5.83358">
        <ele>1000.39</ele>
        <time>2017-04-22T12:13:31Z</time>
      </trkpt>
      <trkpt lat="45.41255" lon="5.8334">
        <ele>999.91</ele>
        <time>2017-04-22T12:13:40Z</time>
      </trkpt>
      <trkpt lat="45.41256" lon="5.83318">
        <ele>999.91</ele>
        <time>2017-04-22T12:13:49Z</time>
      </trkpt>
      <trkpt lat="45.4125" lon="5.833">
        <ele>1006.16</ele>
        <time>2017-04-22T12:13:58Z</time>
      </trkpt>
      <trkpt lat="45.41248" lon="5.8329">
        <ele>1010.96</ele>
        <time>2017-04-22T12:14:06Z</time>
      </trkpt>
      <trkpt lat="45.41241" lon="5.83276">
        <ele>1012.41</ele>
        <time>2017-04-22T12:14:17Z</time>
      </trkpt>
      <trkpt lat="45.41238" lon="5.8327">
        <ele>1015.29</ele>
        <time>2017-04-22T12:14:27Z</time>
      </trkpt>
      <trkpt lat="45.41233" lon="5.83264">
        <ele>1018.17</ele>
        <time>2017-04-22T12:14:41Z</time>
      </trkpt>
      <trkpt lat="45.41228" lon="5.83252">
        <ele>1020.58</ele>
        <time>2017-04-22T12:14:53Z</time>
      </trkpt>
      <trkpt lat="45.41229" lon="5.8325">
        <ele>1020.58</ele>
        <time>2017-04-22T12:14:56Z</time>
      </trkpt>
      <trkpt lat="45.41231" lon="5.83234">
        <ele>1023.46</ele>
        <time>2017-04-22T12:15:09Z</time>
      </trkpt>
      <trkpt lat="45.4123" lon="5.83226">
        <ele>1025.38</ele>
        <time>2017-04-22T12:15:17Z</time>
      </trkpt>
      <trkpt lat="45.41228" lon="5.83227">
        <ele>1027.79</ele>
        <time>2017-04-22T12:15:20Z</time>
      </trkpt>
      <trkpt lat="45.41224" lon="5.83215">
        <ele>1032.11</ele>
        <time>2017-04-22T12:15:30Z</time>
      </trkpt>
      <trkpt lat="45.41218" lon="5.83208">
        <ele>1032.59</ele>
        <time>2017-04-22T12:15:38Z</time>
      </trkpt>
      <trkpt lat="45.41215" lon="5.83192">
        <ele>1031.15</ele>
        <time>2017-04-22T12:15:48Z</time>
      </trkpt>
      <trkpt lat="45.41209" lon="5.83192">
        <ele>1032.11</ele>
        <time>2017-04-22T12:15:56Z</time>
      </trkpt>
      <trkpt lat="45.41211" lon="5.83179">
        <ele>1033.07</ele>
        <time>2017-04-22T12:16:07Z</time>
      </trkpt>
      <trkpt lat="45.41216" lon="5.8316">
        <ele>1034.04</ele>
        <time>2017-04-22T12:16:18Z</time>
      </trkpt>
      <trkpt lat="45.41217" lon="5.83159">
        <ele>1034.04</ele>
        <time>2017-04-22T12:16:19Z</time>
      </trkpt>
      <trkpt lat="45.41233" lon="5.83115">
        <ele>1032.11</ele>
        <time>2017-04-22T12:16:31Z</time>
      </trkpt>
      <trkpt lat="45.41238" lon="5.83106">
        <ele>1031.15</ele>
        <time>2017-04-22T12:16:41Z</time>
      </trkpt>
      <trkpt lat="45.41244" lon="5.83102">
        <ele>1030.19</ele>
        <time>2017-04-22T12:16:51Z</time>
      </trkpt>
      <trkpt lat="45.4125" lon="5.83104">
        <ele>1030.67</ele>
        <time>2017-04-22T12:17:01Z</time>
      </trkpt>
      <trkpt lat="45.41257" lon="5.83099">
        <ele>1033.55</ele>
        <time>2017-04-22T12:17:12Z</time>
      </trkpt>
      <trkpt lat="45.41259" lon="5.83099">
        <ele>1035</ele>
        <time>2017-04-22T12:17:15Z</time>
      </trkpt>
      <trkpt lat="45.4127" lon="5.831">
        <ele>1039.32</ele>
        <time>2017-04-22T12:17:27Z</time>
      </trkpt>
      <trkpt lat="45.41275" lon="5.83105">
        <ele>1039.32</ele>
        <time>2017-04-22T12:17:35Z</time>
      </trkpt>
      <trkpt lat="45.41295" lon="5.83099">
        <ele>1040.76</ele>
        <time>2017-04-22T12:17:48Z</time>
      </trkpt>
      <trkpt lat="45.41309" lon="5.83098">
        <ele>1043.65</ele>
        <time>2017-04-22T12:17:59Z</time>
      </trkpt>
      <trkpt lat="45.4132" lon="5.83099">
        <ele>1043.65</ele>
        <time>2017-04-22T12:18:10Z</time>
      </trkpt>
      <trkpt lat="45.41333" lon="5.83096">
        <ele>1044.61</ele>
        <time>2017-04-22T12:18:20Z</time>
      </trkpt>
      <trkpt lat="45.41342" lon="5.83095">
        <ele>1045.57</ele>
        <time>2017-04-22T12:18:29Z</time>
      </trkpt>
      <trkpt lat="45.41342" lon="5.83095">
        <ele>1045.57</ele>
        <time>2017-04-22T12:18:30Z</time>
      </trkpt>
      <trkpt lat="45.41357" lon="5.83085">
        <ele>1047.01</ele>
        <time>2017-04-22T12:18:41Z</time>
      </trkpt>
      <trkpt lat="45.41369" lon="5.83073">
        <ele>1047.97</ele>
        <time>2017-04-22T12:18:51Z</time>
      </trkpt>
      <trkpt lat="45.41384" lon="5.83081">
        <ele>1040.76</ele>
        <time>2017-04-22T12:19:02Z</time>
      </trkpt>
      <trkpt lat="45.41386" lon="5.83074">
        <ele>1040.28</ele>
        <time>2017-04-22T12:19:11Z</time>
      </trkpt>
      <trkpt lat="45.41388" lon="5.83064">
        <ele>1041.25</ele>
        <time>2017-04-22T12:19:17Z</time>
      </trkpt>
      <trkpt lat="45.41385" lon="5.83061">
        <ele>1044.13</ele>
        <time>2017-04-22T12:19:28Z</time>
      </trkpt>
      <trkpt lat="45.41381" lon="5.83056">
        <ele>1045.09</ele>
        <time>2017-04-22T12:19:39Z</time>
      </trkpt>
      <trkpt lat="45.41381" lon="5.8305">
        <ele>1046.05</ele>
        <time>2017-04-22T12:19:46Z</time>
      </trkpt>
      <trkpt lat="45.4138" lon="5.83042">
        <ele>1046.53</ele>
        <time>2017-04-22T12:19:57Z</time>
      </trkpt>
      <trkpt lat="45.41376" lon="5.8304">
        <ele>1047.97</ele>
        <time>2017-04-22T12:20:08Z</time>
      </trkpt>
      <trkpt lat="45.41378" lon="5.83029">
        <ele>1049.9</ele>
        <time>2017-04-22T12:20:20Z</time>
      </trkpt>
      <trkpt lat="45.41382" lon="5.83017">
        <ele>1056.63</ele>
        <time>2017-04-22T12:20:32Z</time>
      </trkpt>
      <trkpt lat="45.41387" lon="5.83005">
        <ele>1059.03</ele>
        <time>2017-04-22T12:20:40Z</time>
      </trkpt>
      <trkpt lat="45.41388" lon="5.82993">
        <ele>1064.32</ele>
        <time>2017-04-22T12:20:50Z</time>
      </trkpt>
      <trkpt lat="45.4139" lon="5.82985">
        <ele>1065.76</ele>
        <time>2017-04-22T12:20:55Z</time>
      </trkpt>
      <trkpt lat="45.41391" lon="5.82976">
        <ele>1069.12</ele>
        <time>2017-04-22T12:21:01Z</time>
      </trkpt>
      <trkpt lat="45.41398" lon="5.82961">
        <ele>1074.41</ele>
        <time>2017-04-22T12:21:13Z</time>
      </trkpt>
      <trkpt lat="45.41401" lon="5.82953">
        <ele>1076.33</ele>
        <time>2017-04-22T12:21:21Z</time>
      </trkpt>
      <trkpt lat="45.41401" lon="5.82943">
        <ele>1079.22</ele>
        <time>2017-04-22T12:21:31Z</time>
      </trkpt>
      <trkpt lat="45.41401" lon="5.82943">
        <ele>1079.22</ele>
        <time>2017-04-22T12:21:32Z</time>
      </trkpt>
      <trkpt lat="45.41413" lon="5.82931">
        <ele>1081.62</ele>
        <time>2017-04-22T12:21:44Z</time>
      </trkpt>
      <trkpt lat="45.41411" lon="5.82929">
        <ele>1084.02</ele>
        <time>2017-04-22T12:21:54Z</time>
      </trkpt>
      <trkpt lat="45.41416" lon="5.82907">
        <ele>1085.47</ele>
        <time>2017-04-22T12:22:06Z</time>
      </trkpt>
      <trkpt lat="45.41419" lon="5.82903">
        <ele>1085.47</ele>
        <time>2017-04-22T12:22:15Z</time>
      </trkpt>
      <trkpt lat="45.41418" lon="5.82892">
        <ele>1086.91</ele>
        <time>2017-04-22T12:22:24Z</time>
      </trkpt>
      <trkpt lat="45.41416" lon="5.82892">
        <ele>1086.91</ele>
        <time>2017-04-22T12:22:25Z</time>
      </trkpt>
      <trkpt lat="45.41418" lon="5.82881">
        <ele>1087.39</ele>
        <time>2017-04-22T12:22:35Z</time>
      </trkpt>
      <trkpt lat="45.41419" lon="5.82875">
        <ele>1087.39</ele>
        <time>2017-04-22T12:22:46Z</time>
      </trkpt>
      <trkpt lat="45.41426" lon="5.8287">
        <ele>1087.87</ele>
        <time>2017-04-22T12:22:54Z</time>
      </trkpt>
      <trkpt lat="45.41424" lon="5.82869">
        <ele>1087.87</ele>
        <time>2017-04-22T12:22:59Z</time>
      </trkpt>
      <trkpt lat="45.41422" lon="5.82872">
        <ele>1087.87</ele>
        <time>2017-04-22T12:23:00Z</time>
      </trkpt>
      <trkpt lat="45.41426" lon="5.82868">
        <ele>1087.87</ele>
        <time>2017-04-22T12:23:07Z</time>
      </trkpt>
      <trkpt lat="45.41428" lon="5.82866">
        <ele>1087.87</ele>
        <time>2017-04-22T12:23:08Z</time>
      </trkpt>
      <trkpt lat="45.41431" lon="5.82859">
        <ele>1087.87</ele>
        <time>2017-04-22T12:23:13Z</time>
      </trkpt>
      <trkpt lat="45.4143" lon="5.8286">
        <ele>1087.87</ele>
        <time>2017-04-22T12:23:14Z</time>
      </trkpt>
      <trkpt lat="45.4143" lon="5.82862">
        <ele>1087.87</ele>
        <time>2017-04-22T12:23:17Z</time>
      </trkpt>
      <trkpt lat="45.41432" lon="5.82854">
        <ele>1087.87</ele>
        <time>2017-04-22T12:23:27Z</time>
      </trkpt>
      <trkpt lat="45.41456" lon="5.82835">
        <ele>1087.87</ele>
        <time>2017-04-22T12:23:37Z</time>
      </trkpt>
      <trkpt lat="45.41457" lon="5.82833">
        <ele>1087.87</ele>
        <time>2017-04-22T12:23:38Z</time>
      </trkpt>
      <trkpt lat="45.41458" lon="5.82825">
        <ele>1089.31</ele>
        <time>2017-04-22T12:23:44Z</time>
      </trkpt>
      <trkpt lat="45.41459" lon="5.82817">
        <ele>1089.31</ele>
        <time>2017-04-22T12:23:55Z</time>
      </trkpt>
      <trkpt lat="45.4147" lon="5.82795">
        <ele>1090.27</ele>
        <time>2017-04-22T12:24:05Z</time>
      </trkpt>
      <trkpt lat="45.4148" lon="5.82777">
        <ele>1092.2</ele>
        <time>2017-04-22T12:24:13Z</time>
      </trkpt>
      <trkpt lat="45.41491" lon="5.82758">
        <ele>1103.25</ele>
        <time>2017-04-22T12:24:22Z</time>
      </trkpt>
      <trkpt lat="45.4149" lon="5.8276">
        <ele>1104.69</ele>
        <time>2017-04-22T12:24:26Z</time>
      </trkpt>
      <trkpt lat="45.41479" lon="5.82766">
        <ele>1108.06</ele>
        <time>2017-04-22T12:24:38Z</time>
      </trkpt>
      <trkpt lat="45.41478" lon="5.82762">
        <ele>1111.42</ele>
        <time>2017-04-22T12:24:46Z</time>
      </trkpt>
      <trkpt lat="45.41477" lon="5.82757">
        <ele>1115.75</ele>
        <time>2017-04-22T12:24:50Z</time>
      </trkpt>
      <trkpt lat="45.41473" lon="5.82752">
        <ele>1119.11</ele>
        <time>2017-04-22T12:24:58Z</time>
      </trkpt>
      <trkpt lat="45.41468" lon="5.82755">
        <ele>1122</ele>
        <time>2017-04-22T12:25:03Z</time>
      </trkpt>
      <trkpt lat="45.41458" lon="5.82759">
        <ele>1122.48</ele>
        <time>2017-04-22T12:25:13Z</time>
      </trkpt>
      <trkpt lat="45.4145" lon="5.82755">
        <ele>1124.88</ele>
        <time>2017-04-22T12:25:22Z</time>
      </trkpt>
      <trkpt lat="45.41438" lon="5.82764">
        <ele>1124.4</ele>
        <time>2017-04-22T12:25:34Z</time>
      </trkpt>
      <trkpt lat="45.41437" lon="5.82756">
        <ele>1129.69</ele>
        <time>2017-04-22T12:25:44Z</time>
      </trkpt>
      <trkpt lat="45.4142" lon="5.82762">
        <ele>1126.32</ele>
        <time>2017-04-22T12:25:54Z</time>
      </trkpt>
      <trkpt lat="45.41411" lon="5.82766">
        <ele>1126.32</ele>
        <time>2017-04-22T12:26:05Z</time>
      </trkpt>
      <trkpt lat="45.41409" lon="5.82763">
        <ele>1127.28</ele>
        <time>2017-04-22T12:26:14Z</time>
      </trkpt>
      <trkpt lat="45.41402" lon="5.8276">
        <ele>1126.32</ele>
        <time>2017-04-22T12:26:21Z</time>
      </trkpt>
      <trkpt lat="45.41402" lon="5.82749">
        <ele>1123.92</ele>
        <time>2017-04-22T12:26:32Z</time>
      </trkpt>
      <trkpt lat="45.41401" lon="5.82738">
        <ele>1123.44</ele>
        <time>2017-04-22T12:26:43Z</time>
      </trkpt>
      <trkpt lat="45.41394" lon="5.82726">
        <ele>1123.44</ele>
        <time>2017-04-22T12:26:54Z</time>
      </trkpt>
      <trkpt lat="45.41394" lon="5.82714">
        <ele>1122</ele>
        <time>2017-04-22T12:27:05Z</time>
      </trkpt>
      <trkpt lat="45.41394" lon="5.82698">
        <ele>1121.03</ele>
        <time>2017-04-22T12:27:15Z</time>
      </trkpt>
      <trkpt lat="45.41391" lon="5.82693">
        <ele>1120.55</ele>
        <time>2017-04-22T12:27:23Z</time>
      </trkpt>
      <trkpt lat="45.41384" lon="5.82688">
        <ele>1116.71</ele>
        <time>2017-04-22T12:27:32Z</time>
      </trkpt>
      <trkpt lat="45.4138" lon="5.8269">
        <ele>1116.23</ele>
        <time>2017-04-22T12:27:40Z</time>
      </trkpt>
      <trkpt lat="45.41377" lon="5.82684">
        <ele>1118.15</ele>
        <time>2017-04-22T12:27:46Z</time>
      </trkpt>
      <trkpt lat="45.41369" lon="5.82683">
        <ele>1114.31</ele>
        <time>2017-04-22T12:27:56Z</time>
      </trkpt>
      <trkpt lat="45.41362" lon="5.82683">
        <ele>1105.65</ele>
        <time>2017-04-22T12:28:07Z</time>
      </trkpt>
      <trkpt lat="45.41361" lon="5.82678">
        <ele>1102.77</ele>
        <time>2017-04-22T12:28:18Z</time>
      </trkpt>
      <trkpt lat="45.4136" lon="5.82674">
        <ele>1103.73</ele>
        <time>2017-04-22T12:28:26Z</time>
      </trkpt>
      <trkpt lat="45.41358" lon="5.82671">
        <ele>1103.25</ele>
        <time>2017-04-22T12:28:32Z</time>
      </trkpt>
      <trkpt lat="45.41362" lon="5.82657">
        <ele>1098.44</ele>
        <time>2017-04-22T12:28:42Z</time>
      </trkpt>
      <trkpt lat="45.41361" lon="5.82658">
        <ele>1098.44</ele>
        <time>2017-04-22T12:28:51Z</time>
      </trkpt>
      <trkpt lat="45.41356" lon="5.82657">
        <ele>1096.52</ele>
        <time>2017-04-22T12:29:12Z</time>
      </trkpt>
      <trkpt lat="45.41349" lon="5.82656">
        <ele>1091.23</ele>
        <time>2017-04-22T12:29:21Z</time>
      </trkpt>
      <trkpt lat="45.41344" lon="5.82655">
        <ele>1085.95</ele>
        <time>2017-04-22T12:29:29Z</time>
      </trkpt>
      <trkpt lat="45.41341" lon="5.82658">
        <ele>1080.18</ele>
        <time>2017-04-22T12:29:39Z</time>
      </trkpt>
      <trkpt lat="45.41334" lon="5.82655">
        <ele>1081.62</ele>
        <time>2017-04-22T12:29:48Z</time>
      </trkpt>
      <trkpt lat="45.41334" lon="5.82654">
        <ele>1081.62</ele>
        <time>2017-04-22T12:29:49Z</time>
      </trkpt>
      <trkpt lat="45.41346" lon="5.82644">
        <ele>1082.58</ele>
        <time>2017-04-22T12:29:54Z</time>
      </trkpt>
      <trkpt lat="45.41346" lon="5.82647">
        <ele>1077.78</ele>
        <time>2017-04-22T12:30:07Z</time>
      </trkpt>
      <trkpt lat="45.41343" lon="5.82645">
        <ele>1076.33</ele>
        <time>2017-04-22T12:30:17Z</time>
      </trkpt>
      <trkpt lat="45.41341" lon="5.82634">
        <ele>1077.29</ele>
        <time>2017-04-22T12:30:28Z</time>
      </trkpt>
      <trkpt lat="45.41345" lon="5.82631">
        <ele>1074.89</ele>
        <time>2017-04-22T12:30:31Z</time>
      </trkpt>
      <trkpt lat="45.41347" lon="5.8263">
        <ele>1074.41</ele>
        <time>2017-04-22T12:30:32Z</time>
      </trkpt>
      <trkpt lat="45.41347" lon="5.82627">
        <ele>1073.45</ele>
        <time>2017-04-22T12:30:38Z</time>
      </trkpt>
      <trkpt lat="45.41341" lon="5.82627">
        <ele>1070.08</ele>
        <time>2017-04-22T12:30:47Z</time>
      </trkpt>
      <trkpt lat="45.41339" lon="5.82623">
        <ele>1062.87</ele>
        <time>2017-04-22T12:30:57Z</time>
      </trkpt>
      <trkpt lat="45.41334" lon="5.82619">
        <ele>1061.43</ele>
        <time>2017-04-22T12:31:07Z</time>
      </trkpt>
      <trkpt lat="45.4133" lon="5.8262">
        <ele>1060.47</ele>
        <time>2017-04-22T12:31:13Z</time>
      </trkpt>
      <trkpt lat="45.41328" lon="5.8262">
        <ele>1060.47</ele>
        <time>2017-04-22T12:31:14Z</time>
      </trkpt>
      <trkpt lat="45.41327" lon="5.82616">
        <ele>1059.99</ele>
        <time>2017-04-22T12:31:21Z</time>
      </trkpt>
      <trkpt lat="45.41329" lon="5.82617">
        <ele>1059.99</ele>
        <time>2017-04-22T12:31:22Z</time>
      </trkpt>
      <trkpt lat="45.41335" lon="5.82614">
        <ele>1061.43</ele>
        <time>2017-04-22T12:31:26Z</time>
      </trkpt>
      <trkpt lat="45.41337" lon="5.82613">
        <ele>1061.43</ele>
        <time>2017-04-22T12:31:27Z</time>
      </trkpt>
      <trkpt lat="45.41337" lon="5.82607">
        <ele>1061.91</ele>
        <time>2017-04-22T12:31:36Z</time>
      </trkpt>
      <trkpt lat="45.41329" lon="5.82586">
        <ele>1064.32</ele>
        <time>2017-04-22T12:31:45Z</time>
      </trkpt>
      <trkpt lat="45.4131" lon="5.82567">
        <ele>1063.84</ele>
        <time>2017-04-22T12:31:51Z</time>
      </trkpt>
      <trkpt lat="45.41305" lon="5.82561">
        <ele>1062.87</ele>
        <time>2017-04-22T12:31:57Z</time>
      </trkpt>
      <trkpt lat="45.41314" lon="5.82565">
        <ele>1062.87</ele>
        <time>2017-04-22T12:32:08Z</time>
      </trkpt>
      <trkpt lat="45.41327" lon="5.82564">
        <ele>1062.39</ele>
        <time>2017-04-22T12:32:19Z</time>
      </trkpt>
      <trkpt lat="45.41332" lon="5.82558">
        <ele>1063.84</ele>
        <time>2017-04-22T12:32:33Z</time>
      </trkpt>
      <trkpt lat="45.41306" lon="5.82532">
        <ele>1063.84</ele>
        <time>2017-04-22T12:32:42Z</time>
      </trkpt>
      <trkpt lat="45.41295" lon="5.82523">
        <ele>1063.36</ele>
        <time>2017-04-22T12:32:50Z</time>
      </trkpt>
      <trkpt lat="45.41303" lon="5.82518">
        <ele>1063.36</ele>
        <time>2017-04-22T12:32:59Z</time>
      </trkpt>
      <trkpt lat="45.41299" lon="5.82514">
        <ele>1063.84</ele>
        <time>2017-04-22T12:33:07Z</time>
      </trkpt>
      <trkpt lat="45.4129" lon="5.82502">
        <ele>1061.91</ele>
        <time>2017-04-22T12:33:13Z</time>
      </trkpt>
      <trkpt lat="45.4129" lon="5.82504">
        <ele>1062.87</ele>
        <time>2017-04-22T12:33:22Z</time>
      </trkpt>
      <trkpt lat="45.41297" lon="5.82498">
        <ele>1061.91</ele>
        <time>2017-04-22T12:33:32Z</time>
      </trkpt>
      <trkpt lat="45.41293" lon="5.82485">
        <ele>1061.91</ele>
        <time>2017-04-22T12:33:45Z</time>
      </trkpt>
      <trkpt lat="45.41297" lon="5.82468">
        <ele>1062.87</ele>
        <time>2017-04-22T12:33:56Z</time>
      </trkpt>
      <trkpt lat="45.41293" lon="5.82456">
        <ele>1058.07</ele>
        <time>2017-04-22T12:34:00Z</time>
      </trkpt>
      <trkpt lat="45.41302" lon="5.82449">
        <ele>1052.3</ele>
        <time>2017-04-22T12:34:11Z</time>
      </trkpt>
      <trkpt lat="45.41303" lon="5.82445">
        <ele>1052.3</ele>
        <time>2017-04-22T12:34:21Z</time>
      </trkpt>
      <trkpt lat="45.41301" lon="5.82445">
        <ele>1053.26</ele>
        <time>2017-04-22T12:34:26Z</time>
      </trkpt>
      <trkpt lat="45.413" lon="5.82434">
        <ele>1053.26</ele>
        <time>2017-04-22T12:34:37Z</time>
      </trkpt>
      <trkpt lat="45.41298" lon="5.82435">
        <ele>1052.78</ele>
        <time>2017-04-22T12:34:38Z</time>
      </trkpt>
      <trkpt lat="45.41295" lon="5.82434">
        <ele>1053.26</ele>
        <time>2017-04-22T12:34:40Z</time>
      </trkpt>
      <trkpt lat="45.41285" lon="5.82424">
        <ele>1053.74</ele>
        <time>2017-04-22T12:34:52Z</time>
      </trkpt>
      <trkpt lat="45.41277" lon="5.82413">
        <ele>1055.18</ele>
        <time>2017-04-22T12:35:03Z</time>
      </trkpt>
      <trkpt lat="45.41256" lon="5.82413">
        <ele>1056.15</ele>
        <time>2017-04-22T12:35:15Z</time>
      </trkpt>
      <trkpt lat="45.41247" lon="5.82396">
        <ele>1059.51</ele>
        <time>2017-04-22T12:35:27Z</time>
      </trkpt>
      <trkpt lat="45.41241" lon="5.82379">
        <ele>1056.63</ele>
        <time>2017-04-22T12:35:39Z</time>
      </trkpt>
      <trkpt lat="45.4123" lon="5.82351">
        <ele>1038.84</ele>
        <time>2017-04-22T12:35:48Z</time>
      </trkpt>
      <trkpt lat="45.41217" lon="5.82342">
        <ele>1034.04</ele>
        <time>2017-04-22T12:35:59Z</time>
      </trkpt>
      <trkpt lat="45.41212" lon="5.8234">
        <ele>1033.07</ele>
        <time>2017-04-22T12:36:07Z</time>
      </trkpt>
      <trkpt lat="45.41211" lon="5.82342">
        <ele>1034.52</ele>
        <time>2017-04-22T12:36:18Z</time>
      </trkpt>
      <trkpt lat="45.41203" lon="5.82341">
        <ele>1035.48</ele>
        <time>2017-04-22T12:36:21Z</time>
      </trkpt>
      <trkpt lat="45.412" lon="5.82336">
        <ele>1038.36</ele>
        <time>2017-04-22T12:36:31Z</time>
      </trkpt>
      <trkpt lat="45.41204" lon="5.82332">
        <ele>1039.32</ele>
        <time>2017-04-22T12:36:39Z</time>
      </trkpt>
      <trkpt lat="45.41205" lon="5.82313">
        <ele>1042.21</ele>
        <time>2017-04-22T12:36:48Z</time>
      </trkpt>
      <trkpt lat="45.41202" lon="5.82309">
        <ele>1038.36</ele>
        <time>2017-04-22T12:36:53Z</time>
      </trkpt>
      <trkpt lat="45.41202" lon="5.82285">
        <ele>1030.19</ele>
        <time>2017-04-22T12:37:05Z</time>
      </trkpt>
      <trkpt lat="45.41199" lon="5.82265">
        <ele>1023.94</ele>
        <time>2017-04-22T12:37:17Z</time>
      </trkpt>
      <trkpt lat="45.41196" lon="5.82267">
        <ele>1022.02</ele>
        <time>2017-04-22T12:37:19Z</time>
      </trkpt>
      <trkpt lat="45.4119" lon="5.82269">
        <ele>1020.58</ele>
        <time>2017-04-22T12:37:22Z</time>
      </trkpt>
      <trkpt lat="45.41185" lon="5.82266">
        <ele>1019.62</ele>
        <time>2017-04-22T12:37:26Z</time>
      </trkpt>
      <trkpt lat="45.41188" lon="5.82238">
        <ele>1022.5</ele>
        <time>2017-04-22T12:37:32Z</time>
      </trkpt>
      <trkpt lat="45.41181" lon="5.82216">
        <ele>1017.69</ele>
        <time>2017-04-22T12:37:41Z</time>
      </trkpt>
      <trkpt lat="45.41182" lon="5.82203">
        <ele>1017.21</ele>
        <time>2017-04-22T12:37:46Z</time>
      </trkpt>
      <trkpt lat="45.41171" lon="5.82189">
        <ele>1014.81</ele>
        <time>2017-04-22T12:37:59Z</time>
      </trkpt>
      <trkpt lat="45.41162" lon="5.82175">
        <ele>1015.77</ele>
        <time>2017-04-22T12:38:10Z</time>
      </trkpt>
      <trkpt lat="45.41159" lon="5.82166">
        <ele>1014.33</ele>
        <time>2017-04-22T12:38:15Z</time>
      </trkpt>
      <trkpt lat="45.41155" lon="5.82163">
        <ele>1014.33</ele>
        <time>2017-04-22T12:38:19Z</time>
      </trkpt>
      <trkpt lat="45.41146" lon="5.82149">
        <ele>1014.33</ele>
        <time>2017-04-22T12:38:28Z</time>
      </trkpt>
      <trkpt lat="45.41141" lon="5.82137">
        <ele>1012.89</ele>
        <time>2017-04-22T12:38:39Z</time>
      </trkpt>
      <trkpt lat="45.41139" lon="5.82134">
        <ele>1013.37</ele>
        <time>2017-04-22T12:38:41Z</time>
      </trkpt>
      <trkpt lat="45.41129" lon="5.82119">
        <ele>1012.41</ele>
        <time>2017-04-22T12:38:53Z</time>
      </trkpt>
      <trkpt lat="45.4112" lon="5.82111">
        <ele>1014.33</ele>
        <time>2017-04-22T12:39:03Z</time>
      </trkpt>
      <trkpt lat="45.41116" lon="5.82101">
        <ele>1018.65</ele>
        <time>2017-04-22T12:39:12Z</time>
      </trkpt>
      <trkpt lat="45.41109" lon="5.82092">
        <ele>1021.06</ele>
        <time>2017-04-22T12:39:23Z</time>
      </trkpt>
      <trkpt lat="45.41101" lon="5.82094">
        <ele>1025.38</ele>
        <time>2017-04-22T12:39:33Z</time>
      </trkpt>
      <trkpt lat="45.411" lon="5.82093">
        <ele>1024.9</ele>
        <time>2017-04-22T12:39:35Z</time>
      </trkpt>
      <trkpt lat="45.41095" lon="5.82079">
        <ele>1024.9</ele>
        <time>2017-04-22T12:39:45Z</time>
      </trkpt>
      <trkpt lat="45.41088" lon="5.82073">
        <ele>1026.83</ele>
        <time>2017-04-22T12:39:53Z</time>
      </trkpt>
      <trkpt lat="45.41074" lon="5.8206">
        <ele>1025.86</ele>
        <time>2017-04-22T12:40:05Z</time>
      </trkpt>
      <trkpt lat="45.41074" lon="5.82052">
        <ele>1033.07</ele>
        <time>2017-04-22T12:40:17Z</time>
      </trkpt>
      <trkpt lat="45.41067" lon="5.82041">
        <ele>1035.96</ele>
        <time>2017-04-22T12:40:29Z</time>
      </trkpt>
      <trkpt lat="45.41057" lon="5.82027">
        <ele>1039.8</ele>
        <time>2017-04-22T12:40:41Z</time>
      </trkpt>
      <trkpt lat="45.4105" lon="5.82021">
        <ele>1040.28</ele>
        <time>2017-04-22T12:40:49Z</time>
      </trkpt>
      <trkpt lat="45.41045" lon="5.82005">
        <ele>1042.69</ele>
        <time>2017-04-22T12:41:02Z</time>
      </trkpt>
      <trkpt lat="45.41041" lon="5.81995">
        <ele>1043.17</ele>
        <time>2017-04-22T12:41:10Z</time>
      </trkpt>
      <trkpt lat="45.4104" lon="5.81994">
        <ele>1045.57</ele>
        <time>2017-04-22T12:41:14Z</time>
      </trkpt>
      <trkpt lat="45.41036" lon="5.81967">
        <ele>1047.01</ele>
        <time>2017-04-22T12:41:29Z</time>
      </trkpt>
      <trkpt lat="45.4103" lon="5.81956">
        <ele>1048.94</ele>
        <time>2017-04-22T12:41:40Z</time>
      </trkpt>
      <trkpt lat="45.4103" lon="5.81952">
        <ele>1049.42</ele>
        <time>2017-04-22T12:41:43Z</time>
      </trkpt>
      <trkpt lat="45.41028" lon="5.81943">
        <ele>1052.3</ele>
        <time>2017-04-22T12:41:48Z</time>
      </trkpt>
      <trkpt lat="45.4103" lon="5.8193">
        <ele>1053.74</ele>
        <time>2017-04-22T12:41:59Z</time>
      </trkpt>
      <trkpt lat="45.41025" lon="5.81922">
        <ele>1052.78</ele>
        <time>2017-04-22T12:42:09Z</time>
      </trkpt>
      <trkpt lat="45.41025" lon="5.8191">
        <ele>1053.74</ele>
        <time>2017-04-22T12:42:15Z</time>
      </trkpt>
      <trkpt lat="45.41021" lon="5.819">
        <ele>1055.67</ele>
        <time>2017-04-22T12:42:23Z</time>
      </trkpt>
      <trkpt lat="45.41019" lon="5.81897">
        <ele>1055.18</ele>
        <time>2017-04-22T12:42:25Z</time>
      </trkpt>
      <trkpt lat="45.41015" lon="5.81881">
        <ele>1053.74</ele>
        <time>2017-04-22T12:42:34Z</time>
      </trkpt>
      <trkpt lat="45.41011" lon="5.81877">
        <ele>1053.26</ele>
        <time>2017-04-22T12:42:38Z</time>
      </trkpt>
      <trkpt lat="45.41006" lon="5.81852">
        <ele>1053.26</ele>
        <time>2017-04-22T12:42:50Z</time>
      </trkpt>
      <trkpt lat="45.41002" lon="5.81842">
        <ele>1053.74</ele>
        <time>2017-04-22T12:43:01Z</time>
      </trkpt>
      <trkpt lat="45.41002" lon="5.81845">
        <ele>1055.18</ele>
        <time>2017-04-22T12:43:04Z</time>
      </trkpt>
      <trkpt lat="45.41003" lon="5.81846">
        <ele>1055.67</ele>
        <time>2017-04-22T12:43:07Z</time>
      </trkpt>
      <trkpt lat="45.41004" lon="5.81837">
        <ele>1051.82</ele>
        <time>2017-04-22T12:43:17Z</time>
      </trkpt>
      <trkpt lat="45.41007" lon="5.81829">
        <ele>1050.86</ele>
        <time>2017-04-22T12:43:21Z</time>
      </trkpt>
      <trkpt lat="45.41012" lon="5.81803">
        <ele>1049.42</ele>
        <time>2017-04-22T12:43:30Z</time>
      </trkpt>
      <trkpt lat="45.41012" lon="5.81761">
        <ele>1047.97</ele>
        <time>2017-04-22T12:43:43Z</time>
      </trkpt>
      <trkpt lat="45.41009" lon="5.81752">
        <ele>1046.53</ele>
        <time>2017-04-22T12:43:49Z</time>
      </trkpt>
      <trkpt lat="45.41006" lon="5.81731">
        <ele>1038.36</ele>
        <time>2017-04-22T12:44:00Z</time>
      </trkpt>
      <trkpt lat="45.41005" lon="5.81729">
        <ele>1037.4</ele>
        <time>2017-04-22T12:44:01Z</time>
      </trkpt>
      <trkpt lat="45.41005" lon="5.81721">
        <ele>1038.36</ele>
        <time>2017-04-22T12:44:04Z</time>
      </trkpt>
      <trkpt lat="45.41006" lon="5.81714">
        <ele>1039.32</ele>
        <time>2017-04-22T12:44:06Z</time>
      </trkpt>
      <trkpt lat="45.41003" lon="5.81687">
        <ele>1041.73</ele>
        <time>2017-04-22T12:44:15Z</time>
      </trkpt>
      <trkpt lat="45.41" lon="5.81678">
        <ele>1040.28</ele>
        <time>2017-04-22T12:44:20Z</time>
      </trkpt>
      <trkpt lat="45.40992" lon="5.81654">
        <ele>1039.32</ele>
        <time>2017-04-22T12:44:33Z</time>
      </trkpt>
      <trkpt lat="45.40984" lon="5.81632">
        <ele>1043.17</ele>
        <time>2017-04-22T12:44:44Z</time>
      </trkpt>
      <trkpt lat="45.4098" lon="5.8162">
        <ele>1043.65</ele>
        <time>2017-04-22T12:44:50Z</time>
      </trkpt>
      <trkpt lat="45.40973" lon="5.8161">
        <ele>1046.05</ele>
        <time>2017-04-22T12:45:01Z</time>
      </trkpt>
      <trkpt lat="45.40973" lon="5.81607">
        <ele>1047.01</ele>
        <time>2017-04-22T12:45:03Z</time>
      </trkpt>
      <trkpt lat="45.4097" lon="5.81598">
        <ele>1047.97</ele>
        <time>2017-04-22T12:45:09Z</time>
      </trkpt>
      <trkpt lat="45.40957" lon="5.81583">
        <ele>1050.38</ele>
        <time>2017-04-22T12:45:22Z</time>
      </trkpt>
      <trkpt lat="45.40955" lon="5.81582">
        <ele>1050.38</ele>
        <time>2017-04-22T12:45:23Z</time>
      </trkpt>
      <trkpt lat="45.40941" lon="5.81576">
        <ele>1049.42</ele>
        <time>2017-04-22T12:45:30Z</time>
      </trkpt>
      <trkpt lat="45.40938" lon="5.81574">
        <ele>1049.9</ele>
        <time>2017-04-22T12:45:32Z</time>
      </trkpt>
      <trkpt lat="45.40935" lon="5.81569">
        <ele>1049.9</ele>
        <time>2017-04-22T12:45:35Z</time>
      </trkpt>
      <trkpt lat="45.4093" lon="5.81564">
        <ele>1049.42</ele>
        <time>2017-04-22T12:45:40Z</time>
      </trkpt>
      <trkpt lat="45.40912" lon="5.81557">
        <ele>1049.42</ele>
        <time>2017-04-22T12:45:52Z</time>
      </trkpt>
      <trkpt lat="45.40904" lon="5.81553">
        <ele>1045.09</ele>
        <time>2017-04-22T12:46:00Z</time>
      </trkpt>
      <trkpt lat="45.40901" lon="5.81545">
        <ele>1047.49</ele>
        <time>2017-04-22T12:46:08Z</time>
      </trkpt>
      <trkpt lat="45.40878" lon="5.81535">
        <ele>1046.05</ele>
        <time>2017-04-22T12:46:21Z</time>
      </trkpt>
      <trkpt lat="45.40855" lon="5.81521">
        <ele>1038.84</ele>
        <time>2017-04-22T12:46:29Z</time>
      </trkpt>
      <trkpt lat="45.40841" lon="5.81514">
        <ele>1035.96</ele>
        <time>2017-04-22T12:46:38Z</time>
      </trkpt>
      <trkpt lat="45.40837" lon="5.81509">
        <ele>1035.96</ele>
        <time>2017-04-22T12:46:43Z</time>
      </trkpt>
      <trkpt lat="45.40829" lon="5.81503">
        <ele>1035.96</ele>
        <time>2017-04-22T12:46:47Z</time>
      </trkpt>
      <trkpt lat="45.40826" lon="5.81501">
        <ele>1035.96</ele>
        <time>2017-04-22T12:46:48Z</time>
      </trkpt>
      <trkpt lat="45.40824" lon="5.815">
        <ele>1035.96</ele>
        <time>2017-04-22T12:46:49Z</time>
      </trkpt>
      <trkpt lat="45.40819" lon="5.81493">
        <ele>1035.48</ele>
        <time>2017-04-22T12:46:53Z</time>
      </trkpt>
      <trkpt lat="45.40817" lon="5.81491">
        <ele>1035.96</ele>
        <time>2017-04-22T12:46:54Z</time>
      </trkpt>
      <trkpt lat="45.40815" lon="5.81488">
        <ele>1036.44</ele>
        <time>2017-04-22T12:46:55Z</time>
      </trkpt>
      <trkpt lat="45.40801" lon="5.81476">
        <ele>1039.8</ele>
        <time>2017-04-22T12:47:06Z</time>
      </trkpt>
      <trkpt lat="45.40786" lon="5.81463">
        <ele>1038.84</ele>
        <time>2017-04-22T12:47:15Z</time>
      </trkpt>
      <trkpt lat="45.40772" lon="5.81451">
        <ele>1038.84</ele>
        <time>2017-04-22T12:47:24Z</time>
      </trkpt>
      <trkpt lat="45.40758" lon="5.81448">
        <ele>1041.25</ele>
        <time>2017-04-22T12:47:33Z</time>
      </trkpt>
      <trkpt lat="45.40756" lon="5.81446">
        <ele>1040.28</ele>
        <time>2017-04-22T12:47:34Z</time>
      </trkpt>
      <trkpt lat="45.40752" lon="5.81443">
        <ele>1039.32</ele>
        <time>2017-04-22T12:47:38Z</time>
      </trkpt>
      <trkpt lat="45.40747" lon="5.81439">
        <ele>1040.28</ele>
        <time>2017-04-22T12:47:49Z</time>
      </trkpt>
      <trkpt lat="45.40748" lon="5.8144">
        <ele>1039.32</ele>
        <time>2017-04-22T12:47:51Z</time>
      </trkpt>
      <trkpt lat="45.4074" lon="5.81429">
        <ele>1038.36</ele>
        <time>2017-04-22T12:48:01Z</time>
      </trkpt>
      <trkpt lat="45.40729" lon="5.81421">
        <ele>1052.3</ele>
        <time>2017-04-22T12:48:11Z</time>
      </trkpt>
      <trkpt lat="45.4073" lon="5.8142">
        <ele>1054.22</ele>
        <time>2017-04-22T12:48:12Z</time>
      </trkpt>
      <trkpt lat="45.40732" lon="5.81414">
        <ele>1064.8</ele>
        <time>2017-04-22T12:48:20Z</time>
      </trkpt>
      <trkpt lat="45.40732" lon="5.81401">
        <ele>1066.24</ele>
        <time>2017-04-22T12:48:27Z</time>
      </trkpt>
      <trkpt lat="45.40729" lon="5.81384">
        <ele>1063.84</ele>
        <time>2017-04-22T12:48:34Z</time>
      </trkpt>
      <trkpt lat="45.40725" lon="5.8138">
        <ele>1066.72</ele>
        <time>2017-04-22T12:48:38Z</time>
      </trkpt>
      <trkpt lat="45.40719" lon="5.81373">
        <ele>1066.72</ele>
        <time>2017-04-22T12:48:42Z</time>
      </trkpt>
      <trkpt lat="45.40708" lon="5.81363">
        <ele>1067.68</ele>
        <time>2017-04-22T12:48:50Z</time>
      </trkpt>
      <trkpt lat="45.40699" lon="5.81352">
        <ele>1066.24</ele>
        <time>2017-04-22T12:49:02Z</time>
      </trkpt>
      <trkpt lat="45.40701" lon="5.81345">
        <ele>1069.6</ele>
        <time>2017-04-22T12:49:08Z</time>
      </trkpt>
      <trkpt lat="45.40706" lon="5.81329">
        <ele>1074.41</ele>
        <time>2017-04-22T12:49:20Z</time>
      </trkpt>
      <trkpt lat="45.40703" lon="5.81309">
        <ele>1065.76</ele>
        <time>2017-04-22T12:49:29Z</time>
      </trkpt>
      <trkpt lat="45.40704" lon="5.81299">
        <ele>1066.24</ele>
        <time>2017-04-22T12:49:32Z</time>
      </trkpt>
      <trkpt lat="45.40704" lon="5.81297">
        <ele>1066.24</ele>
        <time>2017-04-22T12:49:35Z</time>
      </trkpt>
      <trkpt lat="45.40704" lon="5.81296">
        <ele>1066.24</ele>
        <time>2017-04-22T12:49:38Z</time>
      </trkpt>
      <trkpt lat="45.40705" lon="5.81281">
        <ele>1070.57</ele>
        <time>2017-04-22T12:49:44Z</time>
      </trkpt>
      <trkpt lat="45.407" lon="5.81265">
        <ele>1070.08</ele>
        <time>2017-04-22T12:49:53Z</time>
      </trkpt>
      <trkpt lat="45.40697" lon="5.8126">
        <ele>1072.97</ele>
        <time>2017-04-22T12:50:04Z</time>
      </trkpt>
      <trkpt lat="45.40701" lon="5.81246">
        <ele>1080.18</ele>
        <time>2017-04-22T12:50:13Z</time>
      </trkpt>
      <trkpt lat="45.40711" lon="5.81247">
        <ele>1080.18</ele>
        <time>2017-04-22T12:50:24Z</time>
      </trkpt>
      <trkpt lat="45.4072" lon="5.81231">
        <ele>1077.78</ele>
        <time>2017-04-22T12:50:33Z</time>
      </trkpt>
      <trkpt lat="45.40721" lon="5.81225">
        <ele>1076.33</ele>
        <time>2017-04-22T12:50:37Z</time>
      </trkpt>
      <trkpt lat="45.40729" lon="5.81188">
        <ele>1068.16</ele>
        <time>2017-04-22T12:50:49Z</time>
      </trkpt>
      <trkpt lat="45.4073" lon="5.81189">
        <ele>1069.12</ele>
        <time>2017-04-22T12:50:51Z</time>
      </trkpt>
      <trkpt lat="45.40739" lon="5.81177">
        <ele>1063.84</ele>
        <time>2017-04-22T12:51:03Z</time>
      </trkpt>
      <trkpt lat="45.40745" lon="5.81144">
        <ele>1060.95</ele>
        <time>2017-04-22T12:51:16Z</time>
      </trkpt>
      <trkpt lat="45.40745" lon="5.81139">
        <ele>1059.99</ele>
        <time>2017-04-22T12:51:20Z</time>
      </trkpt>
      <trkpt lat="45.40743" lon="5.81116">
        <ele>1053.74</ele>
        <time>2017-04-22T12:51:30Z</time>
      </trkpt>
      <trkpt lat="45.40744" lon="5.81092">
        <ele>1054.22</ele>
        <time>2017-04-22T12:51:43Z</time>
      </trkpt>
      <trkpt lat="45.4075" lon="5.81082">
        <ele>1055.67</ele>
        <time>2017-04-22T12:51:53Z</time>
      </trkpt>
      <trkpt lat="45.40749" lon="5.81057">
        <ele>1047.49</ele>
        <time>2017-04-22T12:52:03Z</time>
      </trkpt>
      <trkpt lat="45.40751" lon="5.8105">
        <ele>1048.45</ele>
        <time>2017-04-22T12:52:06Z</time>
      </trkpt>
      <trkpt lat="45.40755" lon="5.81023">
        <ele>1059.51</ele>
        <time>2017-04-22T12:52:15Z</time>
      </trkpt>
      <trkpt lat="45.40749" lon="5.80992">
        <ele>1065.76</ele>
        <time>2017-04-22T12:52:26Z</time>
      </trkpt>
      <trkpt lat="45.40748" lon="5.80977">
        <ele>1066.24</ele>
        <time>2017-04-22T12:52:30Z</time>
      </trkpt>
      <trkpt lat="45.40739" lon="5.80957">
        <ele>1066.24</ele>
        <time>2017-04-22T12:52:36Z</time>
      </trkpt>
      <trkpt lat="45.40731" lon="5.80943">
        <ele>1065.76</ele>
        <time>2017-04-22T12:52:42Z</time>
      </trkpt>
      <trkpt lat="45.40727" lon="5.80928">
        <ele>1064.8</ele>
        <time>2017-04-22T12:52:48Z</time>
      </trkpt>
      <trkpt lat="45.4073" lon="5.80927">
        <ele>1063.84</ele>
        <time>2017-04-22T12:52:52Z</time>
      </trkpt>
      <trkpt lat="45.40718" lon="5.8091">
        <ele>1062.87</ele>
        <time>2017-04-22T12:52:58Z</time>
      </trkpt>
      <trkpt lat="45.40714" lon="5.80905">
        <ele>1063.36</ele>
        <time>2017-04-22T12:53:00Z</time>
      </trkpt>
      <trkpt lat="45.40708" lon="5.80895">
        <ele>1062.87</ele>
        <time>2017-04-22T12:53:04Z</time>
      </trkpt>
      <trkpt lat="45.40697" lon="5.80886">
        <ele>1061.91</ele>
        <time>2017-04-22T12:53:10Z</time>
      </trkpt>
      <trkpt lat="45.40688" lon="5.80884">
        <ele>1060.47</ele>
        <time>2017-04-22T12:53:14Z</time>
      </trkpt>
      <trkpt lat="45.40685" lon="5.80875">
        <ele>1059.99</ele>
        <time>2017-04-22T12:53:19Z</time>
      </trkpt>
      <trkpt lat="45.40683" lon="5.80872">
        <ele>1059.51</ele>
        <time>2017-04-22T12:53:21Z</time>
      </trkpt>
      <trkpt lat="45.40681" lon="5.80863">
        <ele>1059.51</ele>
        <time>2017-04-22T12:53:25Z</time>
      </trkpt>
      <trkpt lat="45.4068" lon="5.80851">
        <ele>1059.03</ele>
        <time>2017-04-22T12:53:31Z</time>
      </trkpt>
      <trkpt lat="45.40683" lon="5.80841">
        <ele>1059.03</ele>
        <time>2017-04-22T12:53:36Z</time>
      </trkpt>
      <trkpt lat="45.40679" lon="5.80831">
        <ele>1059.51</ele>
        <time>2017-04-22T12:53:41Z</time>
      </trkpt>
      <trkpt lat="45.40679" lon="5.80822">
        <ele>1059.51</ele>
        <time>2017-04-22T12:53:45Z</time>
      </trkpt>
      <trkpt lat="45.40678" lon="5.80813">
        <ele>1059.99</ele>
        <time>2017-04-22T12:53:50Z</time>
      </trkpt>
      <trkpt lat="45.40671" lon="5.8079">
        <ele>1062.39</ele>
        <time>2017-04-22T12:54:01Z</time>
      </trkpt>
      <trkpt lat="45.40667" lon="5.80771">
        <ele>1064.8</ele>
        <time>2017-04-22T12:54:11Z</time>
      </trkpt>
      <trkpt lat="45.4067" lon="5.80761">
        <ele>1066.24</ele>
        <time>2017-04-22T12:54:17Z</time>
      </trkpt>
      <trkpt lat="45.4067" lon="5.80758">
        <ele>1066.24</ele>
        <time>2017-04-22T12:54:18Z</time>
      </trkpt>
      <trkpt lat="45.4067" lon="5.80753">
        <ele>1066.72</ele>
        <time>2017-04-22T12:54:21Z</time>
      </trkpt>
      <trkpt lat="45.40669" lon="5.80752">
        <ele>1067.2</ele>
        <time>2017-04-22T12:54:22Z</time>
      </trkpt>
      <trkpt lat="45.40661" lon="5.80738">
        <ele>1070.08</ele>
        <time>2017-04-22T12:54:32Z</time>
      </trkpt>
      <trkpt lat="45.40653" lon="5.80711">
        <ele>1072.49</ele>
        <time>2017-04-22T12:54:45Z</time>
      </trkpt>
      <trkpt lat="45.40642" lon="5.80703">
        <ele>1073.45</ele>
        <time>2017-04-22T12:54:51Z</time>
      </trkpt>
      <trkpt lat="45.40633" lon="5.807">
        <ele>1073.93</ele>
        <time>2017-04-22T12:54:55Z</time>
      </trkpt>
      <trkpt lat="45.40607" lon="5.80652">
        <ele>1060.47</ele>
        <time>2017-04-22T12:55:07Z</time>
      </trkpt>
      <trkpt lat="45.40594" lon="5.80638">
        <ele>1057.11</ele>
        <time>2017-04-22T12:55:15Z</time>
      </trkpt>
      <trkpt lat="45.40587" lon="5.80632">
        <ele>1057.11</ele>
        <time>2017-04-22T12:55:19Z</time>
      </trkpt>
      <trkpt lat="45.40582" lon="5.80632">
        <ele>1057.59</ele>
        <time>2017-04-22T12:55:27Z</time>
      </trkpt>
      <trkpt lat="45.40579" lon="5.80625">
        <ele>1064.8</ele>
        <time>2017-04-22T12:55:36Z</time>
      </trkpt>
      <trkpt lat="45.40572" lon="5.80604">
        <ele>1064.32</ele>
        <time>2017-04-22T12:55:47Z</time>
      </trkpt>
      <trkpt lat="45.40554" lon="5.80576">
        <ele>1055.18</ele>
        <time>2017-04-22T12:55:58Z</time>
      </trkpt>
      <trkpt lat="45.4055" lon="5.80561">
        <ele>1056.63</ele>
        <time>2017-04-22T12:56:06Z</time>
      </trkpt>
      <trkpt lat="45.40547" lon="5.80555">
        <ele>1056.63</ele>
        <time>2017-04-22T12:56:09Z</time>
      </trkpt>
      <trkpt lat="45.40546" lon="5.80552">
        <ele>1057.11</ele>
        <time>2017-04-22T12:56:10Z</time>
      </trkpt>
      <trkpt lat="45.40545" lon="5.8055">
        <ele>1057.11</ele>
        <time>2017-04-22T12:56:11Z</time>
      </trkpt>
      <trkpt lat="45.40542" lon="5.80543">
        <ele>1057.11</ele>
        <time>2017-04-22T12:56:16Z</time>
      </trkpt>
      <trkpt lat="45.40541" lon="5.80538">
        <ele>1057.11</ele>
        <time>2017-04-22T12:56:18Z</time>
      </trkpt>
      <trkpt lat="45.4054" lon="5.8053">
        <ele>1057.11</ele>
        <time>2017-04-22T12:56:21Z</time>
      </trkpt>
      <trkpt lat="45.40535" lon="5.80521">
        <ele>1060.47</ele>
        <time>2017-04-22T12:56:30Z</time>
      </trkpt>
      <trkpt lat="45.40531" lon="5.80511">
        <ele>1062.87</ele>
        <time>2017-04-22T12:56:41Z</time>
      </trkpt>
      <trkpt lat="45.40527" lon="5.80491">
        <ele>1070.57</ele>
        <time>2017-04-22T12:56:51Z</time>
      </trkpt>
      <trkpt lat="45.4054" lon="5.80455">
        <ele>1062.87</ele>
        <time>2017-04-22T12:57:03Z</time>
      </trkpt>
      <trkpt lat="45.40546" lon="5.80459">
        <ele>1064.32</ele>
        <time>2017-04-22T12:57:13Z</time>
      </trkpt>
      <trkpt lat="45.40549" lon="5.80467">
        <ele>1062.87</ele>
        <time>2017-04-22T12:57:24Z</time>
      </trkpt>
      <trkpt lat="45.40557" lon="5.80472">
        <ele>1064.8</ele>
        <time>2017-04-22T12:57:34Z</time>
      </trkpt>
      <trkpt lat="45.40569" lon="5.80473">
        <ele>1065.76</ele>
        <time>2017-04-22T12:57:44Z</time>
      </trkpt>
      <trkpt lat="45.40573" lon="5.80473">
        <ele>1068.16</ele>
        <time>2017-04-22T12:57:48Z</time>
      </trkpt>
      <trkpt lat="45.4059" lon="5.80471">
        <ele>1083.06</ele>
        <time>2017-04-22T12:57:58Z</time>
      </trkpt>
      <trkpt lat="45.40593" lon="5.80471">
        <ele>1085.47</ele>
        <time>2017-04-22T12:58:00Z</time>
      </trkpt>
      <trkpt lat="45.40603" lon="5.8046">
        <ele>1097.48</ele>
        <time>2017-04-22T12:58:07Z</time>
      </trkpt>
      <trkpt lat="45.40607" lon="5.80448">
        <ele>1110.46</ele>
        <time>2017-04-22T12:58:14Z</time>
      </trkpt>
      <trkpt lat="45.40623" lon="5.80442">
        <ele>1128.73</ele>
        <time>2017-04-22T12:58:22Z</time>
      </trkpt>
      <trkpt lat="45.40636" lon="5.80432">
        <ele>1139.78</ele>
        <time>2017-04-22T12:58:27Z</time>
      </trkpt>
      <trkpt lat="45.4064" lon="5.8043">
        <ele>1139.78</ele>
        <time>2017-04-22T12:58:28Z</time>
      </trkpt>
      <trkpt lat="45.40642" lon="5.8043">
        <ele>1140.26</ele>
        <time>2017-04-22T12:58:29Z</time>
      </trkpt>
      <trkpt lat="45.40644" lon="5.80429">
        <ele>1140.26</ele>
        <time>2017-04-22T12:58:30Z</time>
      </trkpt>
      <trkpt lat="45.40647" lon="5.80428">
        <ele>1140.26</ele>
        <time>2017-04-22T12:58:31Z</time>
      </trkpt>
      <trkpt lat="45.40654" lon="5.80426">
        <ele>1140.74</ele>
        <time>2017-04-22T12:58:34Z</time>
      </trkpt>
      <trkpt lat="45.40664" lon="5.8042">
        <ele>1140.74</ele>
        <time>2017-04-22T12:58:44Z</time>
      </trkpt>
      <trkpt lat="45.4069" lon="5.80421">
        <ele>1140.74</ele>
        <time>2017-04-22T12:58:53Z</time>
      </trkpt>
      <trkpt lat="45.40707" lon="5.80421">
        <ele>1139.78</ele>
        <time>2017-04-22T12:59:02Z</time>
      </trkpt>
      <trkpt lat="45.40711" lon="5.80414">
        <ele>1140.74</ele>
        <time>2017-04-22T12:59:06Z</time>
      </trkpt>
      <trkpt lat="45.40722" lon="5.80407">
        <ele>1140.26</ele>
        <time>2017-04-22T12:59:16Z</time>
      </trkpt>
      <trkpt lat="45.40753" lon="5.80423">
        <ele>1106.13</ele>
        <time>2017-04-22T12:59:34Z</time>
      </trkpt>
      <trkpt lat="45.40772" lon="5.80427">
        <ele>1088.83</ele>
        <time>2017-04-22T12:59:48Z</time>
      </trkpt>
      <trkpt lat="45.40784" lon="5.80428">
        <ele>1083.06</ele>
        <time>2017-04-22T12:59:52Z</time>
      </trkpt>
      <trkpt lat="45.40802" lon="5.80431">
        <ele>1066.24</ele>
        <time>2017-04-22T13:00:03Z</time>
      </trkpt>
      <trkpt lat="45.40823" lon="5.80438">
        <ele>1061.91</ele>
        <time>2017-04-22T13:00:14Z</time>
      </trkpt>
      <trkpt lat="45.40838" lon="5.80448">
        <ele>1059.51</ele>
        <time>2017-04-22T13:00:25Z</time>
      </trkpt>
      <trkpt lat="45.40871" lon="5.80464">
        <ele>1036.92</ele>
        <time>2017-04-22T13:00:41Z</time>
      </trkpt>
      <trkpt lat="45.40872" lon="5.80464">
        <ele>1036.92</ele>
        <time>2017-04-22T13:00:42Z</time>
      </trkpt>
      <trkpt lat="45.40882" lon="5.80468">
        <ele>1032.11</ele>
        <time>2017-04-22T13:00:55Z</time>
      </trkpt>
      <trkpt lat="45.40885" lon="5.80469">
        <ele>1031.63</ele>
        <time>2017-04-22T13:00:58Z</time>
      </trkpt>
      <trkpt lat="45.40893" lon="5.80469">
        <ele>1029.71</ele>
        <time>2017-04-22T13:01:04Z</time>
      </trkpt>
      <trkpt lat="45.40906" lon="5.80462">
        <ele>1030.67</ele>
        <time>2017-04-22T13:01:15Z</time>
      </trkpt>
      <trkpt lat="45.40907" lon="5.8044">
        <ele>1034.52</ele>
        <time>2017-04-22T13:01:32Z</time>
      </trkpt>
      <trkpt lat="45.40911" lon="5.80433">
        <ele>1035.96</ele>
        <time>2017-04-22T13:01:39Z</time>
      </trkpt>
      <trkpt lat="45.40913" lon="5.80425">
        <ele>1035.96</ele>
        <time>2017-04-22T13:01:44Z</time>
      </trkpt>
      <trkpt lat="45.40917" lon="5.80414">
        <ele>1036.92</ele>
        <time>2017-04-22T13:01:49Z</time>
      </trkpt>
      <trkpt lat="45.40926" lon="5.80401">
        <ele>1032.59</ele>
        <time>2017-04-22T13:02:00Z</time>
      </trkpt>
      <trkpt lat="45.40937" lon="5.80383">
        <ele>1033.07</ele>
        <time>2017-04-22T13:02:11Z</time>
      </trkpt>
      <trkpt lat="45.40939" lon="5.80372">
        <ele>1038.84</ele>
        <time>2017-04-22T13:02:20Z</time>
      </trkpt>
      <trkpt lat="45.4095" lon="5.80359">
        <ele>1047.01</ele>
        <time>2017-04-22T13:02:34Z</time>
      </trkpt>
      <trkpt lat="45.40952" lon="5.80346">
        <ele>1060.47</ele>
        <time>2017-04-22T13:02:49Z</time>
      </trkpt>
      <trkpt lat="45.40949" lon="5.80337">
        <ele>1071.53</ele>
        <time>2017-04-22T13:03:04Z</time>
      </trkpt>
      <trkpt lat="45.40947" lon="5.80331">
        <ele>1078.26</ele>
        <time>2017-04-22T13:03:16Z</time>
      </trkpt>
      <trkpt lat="45.40944" lon="5.80314">
        <ele>1074.41</ele>
        <time>2017-04-22T13:03:29Z</time>
      </trkpt>
      <trkpt lat="45.40937" lon="5.80318">
        <ele>1076.81</ele>
        <time>2017-04-22T13:03:40Z</time>
      </trkpt>
      <trkpt lat="45.40934" lon="5.8032">
        <ele>1077.78</ele>
        <time>2017-04-22T13:03:47Z</time>
      </trkpt>
      <trkpt lat="45.40917" lon="5.80313">
        <ele>1080.18</ele>
        <time>2017-04-22T13:04:02Z</time>
      </trkpt>
      <trkpt lat="45.40897" lon="5.80303">
        <ele>1078.74</ele>
        <time>2017-04-22T13:04:19Z</time>
      </trkpt>
      <trkpt lat="45.40875" lon="5.80292">
        <ele>1080.18</ele>
        <time>2017-04-22T13:04:38Z</time>
      </trkpt>
      <trkpt lat="45.40857" lon="5.80281">
        <ele>1081.62</ele>
        <time>2017-04-22T13:04:55Z</time>
      </trkpt>
      <trkpt lat="45.40846" lon="5.80269">
        <ele>1084.99</ele>
        <time>2017-04-22T13:05:10Z</time>
      </trkpt>
      <trkpt lat="45.40841" lon="5.8026">
        <ele>1087.87</ele>
        <time>2017-04-22T13:05:21Z</time>
      </trkpt>
      <trkpt lat="45.40838" lon="5.80257">
        <ele>1088.35</ele>
        <time>2017-04-22T13:05:27Z</time>
      </trkpt>
      <trkpt lat="45.40844" lon="5.8025">
        <ele>1089.79</ele>
        <time>2017-04-22T13:05:33Z</time>
      </trkpt>
      <trkpt lat="45.40847" lon="5.80247">
        <ele>1090.27</ele>
        <time>2017-04-22T13:05:36Z</time>
      </trkpt>
      <trkpt lat="45.40846" lon="5.80234">
        <ele>1090.75</ele>
        <time>2017-04-22T13:05:43Z</time>
      </trkpt>
      <trkpt lat="45.40825" lon="5.80219">
        <ele>1091.23</ele>
        <time>2017-04-22T13:06:00Z</time>
      </trkpt>
      <trkpt lat="45.40795" lon="5.80227">
        <ele>1091.23</ele>
        <time>2017-04-22T13:06:22Z</time>
      </trkpt>
      <trkpt lat="45.4077" lon="5.80228">
        <ele>1092.2</ele>
        <time>2017-04-22T13:06:39Z</time>
      </trkpt>
      <trkpt lat="45.40752" lon="5.80214">
        <ele>1093.64</ele>
        <time>2017-04-22T13:06:54Z</time>
      </trkpt>
      <trkpt lat="45.40736" lon="5.80188">
        <ele>1096.52</ele>
        <time>2017-04-22T13:07:13Z</time>
      </trkpt>
      <trkpt lat="45.40736" lon="5.80159">
        <ele>1100.37</ele>
        <time>2017-04-22T13:07:29Z</time>
      </trkpt>
      <trkpt lat="45.40737" lon="5.8013">
        <ele>1104.69</ele>
        <time>2017-04-22T13:07:43Z</time>
      </trkpt>
      <trkpt lat="45.40745" lon="5.80103">
        <ele>1109.02</ele>
        <time>2017-04-22T13:07:58Z</time>
      </trkpt>
      <trkpt lat="45.40759" lon="5.80076">
        <ele>1109.5</ele>
        <time>2017-04-22T13:08:12Z</time>
      </trkpt>
      <trkpt lat="45.40767" lon="5.80044">
        <ele>1110.46</ele>
        <time>2017-04-22T13:08:28Z</time>
      </trkpt>
      <trkpt lat="45.40765" lon="5.80004">
        <ele>1112.86</ele>
        <time>2017-04-22T13:08:46Z</time>
      </trkpt>
      <trkpt lat="45.40768" lon="5.79969">
        <ele>1113.34</ele>
        <time>2017-04-22T13:09:01Z</time>
      </trkpt>
      <trkpt lat="45.40781" lon="5.79933">
        <ele>1112.86</ele>
        <time>2017-04-22T13:09:14Z</time>
      </trkpt>
      <trkpt lat="45.40807" lon="5.79907">
        <ele>1113.82</ele>
        <time>2017-04-22T13:09:29Z</time>
      </trkpt>
      <trkpt lat="45.40831" lon="5.79891">
        <ele>1117.19</ele>
        <time>2017-04-22T13:09:43Z</time>
      </trkpt>
      <trkpt lat="45.40855" lon="5.79878">
        <ele>1117.67</ele>
        <time>2017-04-22T13:09:56Z</time>
      </trkpt>
      <trkpt lat="45.40874" lon="5.79871">
        <ele>1119.59</ele>
        <time>2017-04-22T13:10:07Z</time>
      </trkpt>
      <trkpt lat="45.40875" lon="5.79872">
        <ele>1119.59</ele>
        <time>2017-04-22T13:10:08Z</time>
      </trkpt>
      <trkpt lat="45.40877" lon="5.79872">
        <ele>1119.59</ele>
        <time>2017-04-22T13:10:09Z</time>
      </trkpt>
      <trkpt lat="45.40879" lon="5.79872">
        <ele>1119.59</ele>
        <time>2017-04-22T13:10:10Z</time>
      </trkpt>
      <trkpt lat="45.40881" lon="5.79872">
        <ele>1120.07</ele>
        <time>2017-04-22T13:10:11Z</time>
      </trkpt>
      <trkpt lat="45.40883" lon="5.79871">
        <ele>1120.55</ele>
        <time>2017-04-22T13:10:12Z</time>
      </trkpt>
      <trkpt lat="45.40885" lon="5.79871">
        <ele>1121.03</ele>
        <time>2017-04-22T13:10:13Z</time>
      </trkpt>
      <trkpt lat="45.40887" lon="5.79871">
        <ele>1121.03</ele>
        <time>2017-04-22T13:10:14Z</time>
      </trkpt>
      <trkpt lat="45.40888" lon="5.7987">
        <ele>1121.03</ele>
        <time>2017-04-22T13:10:15Z</time>
      </trkpt>
      <trkpt lat="45.4089" lon="5.7987">
        <ele>1121.52</ele>
        <time>2017-04-22T13:10:16Z</time>
      </trkpt>
      <trkpt lat="45.40892" lon="5.7987">
        <ele>1121.52</ele>
        <time>2017-04-22T13:10:17Z</time>
      </trkpt>
      <trkpt lat="45.40915" lon="5.79865">
        <ele>1122.96</ele>
        <time>2017-04-22T13:10:30Z</time>
      </trkpt>
      <trkpt lat="45.40941" lon="5.79858">
        <ele>1127.28</ele>
        <time>2017-04-22T13:10:44Z</time>
      </trkpt>
      <trkpt lat="45.40965" lon="5.79847">
        <ele>1129.69</ele>
        <time>2017-04-22T13:10:58Z</time>
      </trkpt>
      <trkpt lat="45.40988" lon="5.79835">
        <ele>1131.61</ele>
        <time>2017-04-22T13:11:12Z</time>
      </trkpt>
      <trkpt lat="45.41009" lon="5.79821">
        <ele>1133.05</ele>
        <time>2017-04-22T13:11:25Z</time>
      </trkpt>
      <trkpt lat="45.41031" lon="5.79803">
        <ele>1134.01</ele>
        <time>2017-04-22T13:11:39Z</time>
      </trkpt>
      <trkpt lat="45.41051" lon="5.79786">
        <ele>1135.94</ele>
        <time>2017-04-22T13:11:52Z</time>
      </trkpt>
      <trkpt lat="45.41061" lon="5.79763">
        <ele>1139.78</ele>
        <time>2017-04-22T13:12:05Z</time>
      </trkpt>
      <trkpt lat="45.41061" lon="5.79758">
        <ele>1140.26</ele>
        <time>2017-04-22T13:12:07Z</time>
      </trkpt>
      <trkpt lat="45.41059" lon="5.79755">
        <ele>1140.74</ele>
        <time>2017-04-22T13:12:08Z</time>
      </trkpt>
      <trkpt lat="45.41058" lon="5.79754">
        <ele>1140.74</ele>
        <time>2017-04-22T13:12:09Z</time>
      </trkpt>
      <trkpt lat="45.41056" lon="5.79754">
        <ele>1141.22</ele>
        <time>2017-04-22T13:12:10Z</time>
      </trkpt>
      <trkpt lat="45.41055" lon="5.79753">
        <ele>1141.7</ele>
        <time>2017-04-22T13:12:11Z</time>
      </trkpt>
      <trkpt lat="45.41033" lon="5.79743">
        <ele>1144.11</ele>
        <time>2017-04-22T13:12:24Z</time>
      </trkpt>
      <trkpt lat="45.41021" lon="5.79736">
        <ele>1146.51</ele>
        <time>2017-04-22T13:12:37Z</time>
      </trkpt>
      <trkpt lat="45.41004" lon="5.79732">
        <ele>1150.35</ele>
        <time>2017-04-22T13:12:50Z</time>
      </trkpt>
      <trkpt lat="45.40982" lon="5.79725">
        <ele>1153.24</ele>
        <time>2017-04-22T13:13:03Z</time>
      </trkpt>
      <trkpt lat="45.40967" lon="5.79719">
        <ele>1154.68</ele>
        <time>2017-04-22T13:13:12Z</time>
      </trkpt>
      <trkpt lat="45.40966" lon="5.79718">
        <ele>1155.16</ele>
        <time>2017-04-22T13:13:13Z</time>
      </trkpt>
      <trkpt lat="45.40959" lon="5.79714">
        <ele>1155.64</ele>
        <time>2017-04-22T13:13:17Z</time>
      </trkpt>
      <trkpt lat="45.40958" lon="5.79713">
        <ele>1155.64</ele>
        <time>2017-04-22T13:13:18Z</time>
      </trkpt>
      <trkpt lat="45.40957" lon="5.79713">
        <ele>1156.12</ele>
        <time>2017-04-22T13:13:19Z</time>
      </trkpt>
      <trkpt lat="45.40955" lon="5.79713">
        <ele>1156.6</ele>
        <time>2017-04-22T13:13:20Z</time>
      </trkpt>
      <trkpt lat="45.40953" lon="5.79712">
        <ele>1156.6</ele>
        <time>2017-04-22T13:13:21Z</time>
      </trkpt>
      <trkpt lat="45.40952" lon="5.79711">
        <ele>1157.08</ele>
        <time>2017-04-22T13:13:22Z</time>
      </trkpt>
      <trkpt lat="45.4095" lon="5.79711">
        <ele>1157.08</ele>
        <time>2017-04-22T13:13:23Z</time>
      </trkpt>
      <trkpt lat="45.40949" lon="5.7971">
        <ele>1157.08</ele>
        <time>2017-04-22T13:13:24Z</time>
      </trkpt>
      <trkpt lat="45.40947" lon="5.7971">
        <ele>1157.08</ele>
        <time>2017-04-22T13:13:25Z</time>
      </trkpt>
      <trkpt lat="45.40946" lon="5.79709">
        <ele>1157.08</ele>
        <time>2017-04-22T13:13:26Z</time>
      </trkpt>
      <trkpt lat="45.40922" lon="5.79702">
        <ele>1160.93</ele>
        <time>2017-04-22T13:13:40Z</time>
      </trkpt>
      <trkpt lat="45.4092" lon="5.79702">
        <ele>1161.41</ele>
        <time>2017-04-22T13:13:41Z</time>
      </trkpt>
      <trkpt lat="45.40918" lon="5.79702">
        <ele>1161.41</ele>
        <time>2017-04-22T13:13:42Z</time>
      </trkpt>
      <trkpt lat="45.40916" lon="5.79701">
        <ele>1161.89</ele>
        <time>2017-04-22T13:13:43Z</time>
      </trkpt>
      <trkpt lat="45.40913" lon="5.79701">
        <ele>1162.37</ele>
        <time>2017-04-22T13:13:44Z</time>
      </trkpt>
      <trkpt lat="45.40911" lon="5.79701">
        <ele>1162.37</ele>
        <time>2017-04-22T13:13:45Z</time>
      </trkpt>
      <trkpt lat="45.40909" lon="5.79701">
        <ele>1162.85</ele>
        <time>2017-04-22T13:13:46Z</time>
      </trkpt>
      <trkpt lat="45.40907" lon="5.79701">
        <ele>1162.85</ele>
        <time>2017-04-22T13:13:47Z</time>
      </trkpt>
      <trkpt lat="45.40905" lon="5.79701">
        <ele>1162.85</ele>
        <time>2017-04-22T13:13:48Z</time>
      </trkpt>
      <trkpt lat="45.40903" lon="5.797">
        <ele>1163.33</ele>
        <time>2017-04-22T13:13:49Z</time>
      </trkpt>
      <trkpt lat="45.40901" lon="5.797">
        <ele>1163.33</ele>
        <time>2017-04-22T13:13:50Z</time>
      </trkpt>
      <trkpt lat="45.40899" lon="5.79701">
        <ele>1163.33</ele>
        <time>2017-04-22T13:13:51Z</time>
      </trkpt>
      <trkpt lat="45.40897" lon="5.797">
        <ele>1163.33</ele>
        <time>2017-04-22T13:13:52Z</time>
      </trkpt>
      <trkpt lat="45.40895" lon="5.797">
        <ele>1163.33</ele>
        <time>2017-04-22T13:13:53Z</time>
      </trkpt>
      <trkpt lat="45.40878" lon="5.79696">
        <ele>1159.97</ele>
        <time>2017-04-22T13:14:10Z</time>
      </trkpt>
      <trkpt lat="45.40871" lon="5.79697">
        <ele>1156.12</ele>
        <time>2017-04-22T13:14:20Z</time>
      </trkpt>
      <trkpt lat="45.40872" lon="5.79696">
        <ele>1156.6</ele>
        <time>2017-04-22T13:14:40Z</time>
      </trkpt>
      <trkpt lat="45.40869" lon="5.79692">
        <ele>1157.56</ele>
        <time>2017-04-22T13:14:56Z</time>
      </trkpt>
      <trkpt lat="45.40869" lon="5.79692">
        <ele>1157.56</ele>
        <time>2017-04-22T13:15:21Z</time>
      </trkpt>
    </trkseg>
  </trk>
</gpx>